<?xml version="1.0" encoding="UTF-8" standalone="no" ?>
<gpx xmlns="http://www.topografix.com/GPX/1/1" xmlns:xsi="http://www.w3.org/2001/XMLSchema-instance" xsi:schemaLocation="http://www.topografix.com/GPX/1/1 http://www.topografix.com/GPX/1/1/gpx.xsd" version="1.1" creator="VisuGPX - https://www.visugpx.com">
  <metadata>
    <name>Ranc des Agnelons</name>
    <desc><![CDATA[Le Ranc des Agnelons (Sud -> Nord) en partant de la route forestière de Prélenfrey]]></desc>
  </metadata>
  <trk>
    <name><![CDATA[Morning Hike]]></name>
    <trkseg>
      <trkpt lat="45.02022" lon="5.59786">
        <ele>1280</ele>
        <time>2017-07-16T07:19:22Z</time>
      </trkpt>
      <trkpt lat="45.02021" lon="5.59777">
        <ele>1280.8</ele>
        <time>2017-07-16T07:19:28Z</time>
      </trkpt>
      <trkpt lat="45.02025" lon="5.59774">
        <ele>1281</ele>
        <time>2017-07-16T07:19:32Z</time>
      </trkpt>
      <trkpt lat="45.02032" lon="5.5977">
        <ele>1282</ele>
        <time>2017-07-16T07:19:40Z</time>
      </trkpt>
      <trkpt lat="45.02042" lon="5.59771">
        <ele>1283.2</ele>
        <time>2017-07-16T07:19:49Z</time>
      </trkpt>
      <trkpt lat="45.02048" lon="5.59772">
        <ele>1284.4</ele>
        <time>2017-07-16T07:19:54Z</time>
      </trkpt>
      <trkpt lat="45.0206" lon="5.59774">
        <ele>1285.2</ele>
        <time>2017-07-16T07:20:04Z</time>
      </trkpt>
      <trkpt lat="45.0207" lon="5.59776">
        <ele>1286.4</ele>
        <time>2017-07-16T07:20:13Z</time>
      </trkpt>
      <trkpt lat="45.02079" lon="5.59777">
        <ele>1287.4</ele>
        <time>2017-07-16T07:20:22Z</time>
      </trkpt>
      <trkpt lat="45.02084" lon="5.59778">
        <ele>1288.4</ele>
        <time>2017-07-16T07:20:27Z</time>
      </trkpt>
      <trkpt lat="45.02094" lon="5.5978">
        <ele>1289.2</ele>
        <time>2017-07-16T07:20:38Z</time>
      </trkpt>
      <trkpt lat="45.02095" lon="5.5978">
        <ele>1289.4</ele>
        <time>2017-07-16T07:20:39Z</time>
      </trkpt>
      <trkpt lat="45.02111" lon="5.5978">
        <ele>1290.6</ele>
        <time>2017-07-16T07:20:53Z</time>
      </trkpt>
      <trkpt lat="45.02121" lon="5.5978">
        <ele>1291.6</ele>
        <time>2017-07-16T07:21:03Z</time>
      </trkpt>
      <trkpt lat="45.02133" lon="5.5978">
        <ele>1292.8</ele>
        <time>2017-07-16T07:21:14Z</time>
      </trkpt>
      <trkpt lat="45.02141" lon="5.5978">
        <ele>1294</ele>
        <time>2017-07-16T07:21:22Z</time>
      </trkpt>
      <trkpt lat="45.02147" lon="5.59781">
        <ele>1295</ele>
        <time>2017-07-16T07:21:29Z</time>
      </trkpt>
      <trkpt lat="45.02155" lon="5.59783">
        <ele>1296</ele>
        <time>2017-07-16T07:21:37Z</time>
      </trkpt>
      <trkpt lat="45.02163" lon="5.59782">
        <ele>1297.2</ele>
        <time>2017-07-16T07:21:44Z</time>
      </trkpt>
      <trkpt lat="45.02172" lon="5.59783">
        <ele>1298.2</ele>
        <time>2017-07-16T07:21:52Z</time>
      </trkpt>
      <trkpt lat="45.02184" lon="5.59787">
        <ele>1299.2</ele>
        <time>2017-07-16T07:22:03Z</time>
      </trkpt>
      <trkpt lat="45.02198" lon="5.59792">
        <ele>1300.4</ele>
        <time>2017-07-16T07:22:15Z</time>
      </trkpt>
      <trkpt lat="45.02208" lon="5.59796">
        <ele>1301.4</ele>
        <time>2017-07-16T07:22:24Z</time>
      </trkpt>
      <trkpt lat="45.02218" lon="5.59799">
        <ele>1302.4</ele>
        <time>2017-07-16T07:22:33Z</time>
      </trkpt>
      <trkpt lat="45.02228" lon="5.59801">
        <ele>1303.6</ele>
        <time>2017-07-16T07:22:41Z</time>
      </trkpt>
      <trkpt lat="45.02236" lon="5.59803">
        <ele>1304.6</ele>
        <time>2017-07-16T07:22:49Z</time>
      </trkpt>
      <trkpt lat="45.02246" lon="5.59804">
        <ele>1305.6</ele>
        <time>2017-07-16T07:22:58Z</time>
      </trkpt>
      <trkpt lat="45.02256" lon="5.59805">
        <ele>1306.6</ele>
        <time>2017-07-16T07:23:07Z</time>
      </trkpt>
      <trkpt lat="45.02266" lon="5.59806">
        <ele>1307.8</ele>
        <time>2017-07-16T07:23:16Z</time>
      </trkpt>
      <trkpt lat="45.02277" lon="5.59807">
        <ele>1309</ele>
        <time>2017-07-16T07:23:25Z</time>
      </trkpt>
      <trkpt lat="45.02286" lon="5.59809">
        <ele>1310</ele>
        <time>2017-07-16T07:23:32Z</time>
      </trkpt>
      <trkpt lat="45.02298" lon="5.59811">
        <ele>1311</ele>
        <time>2017-07-16T07:23:42Z</time>
      </trkpt>
      <trkpt lat="45.02311" lon="5.59815">
        <ele>1312</ele>
        <time>2017-07-16T07:23:53Z</time>
      </trkpt>
      <trkpt lat="45.02323" lon="5.59818">
        <ele>1313</ele>
        <time>2017-07-16T07:24:03Z</time>
      </trkpt>
      <trkpt lat="45.02334" lon="5.59821">
        <ele>1314.2</ele>
        <time>2017-07-16T07:24:13Z</time>
      </trkpt>
      <trkpt lat="45.02345" lon="5.59825">
        <ele>1315.2</ele>
        <time>2017-07-16T07:24:23Z</time>
      </trkpt>
      <trkpt lat="45.02352" lon="5.5983">
        <ele>1316.4</ele>
        <time>2017-07-16T07:24:30Z</time>
      </trkpt>
      <trkpt lat="45.02361" lon="5.59834">
        <ele>1317.4</ele>
        <time>2017-07-16T07:24:38Z</time>
      </trkpt>
      <trkpt lat="45.02369" lon="5.59832">
        <ele>1318.4</ele>
        <time>2017-07-16T07:24:45Z</time>
      </trkpt>
      <trkpt lat="45.02378" lon="5.59831">
        <ele>1319.6</ele>
        <time>2017-07-16T07:24:53Z</time>
      </trkpt>
      <trkpt lat="45.02385" lon="5.5983">
        <ele>1320.8</ele>
        <time>2017-07-16T07:25:00Z</time>
      </trkpt>
      <trkpt lat="45.02393" lon="5.5983">
        <ele>1321.8</ele>
        <time>2017-07-16T07:25:07Z</time>
      </trkpt>
      <trkpt lat="45.02398" lon="5.5983">
        <ele>1323</ele>
        <time>2017-07-16T07:25:12Z</time>
      </trkpt>
      <trkpt lat="45.02405" lon="5.59829">
        <ele>1324</ele>
        <time>2017-07-16T07:25:18Z</time>
      </trkpt>
      <trkpt lat="45.02409" lon="5.5983">
        <ele>1325.4</ele>
        <time>2017-07-16T07:25:23Z</time>
      </trkpt>
      <trkpt lat="45.02419" lon="5.59832">
        <ele>1326.4</ele>
        <time>2017-07-16T07:25:33Z</time>
      </trkpt>
      <trkpt lat="45.02426" lon="5.59833">
        <ele>1327.6</ele>
        <time>2017-07-16T07:25:40Z</time>
      </trkpt>
      <trkpt lat="45.02434" lon="5.59835">
        <ele>1328.6</ele>
        <time>2017-07-16T07:25:48Z</time>
      </trkpt>
      <trkpt lat="45.02442" lon="5.59836">
        <ele>1330</ele>
        <time>2017-07-16T07:25:55Z</time>
      </trkpt>
      <trkpt lat="45.02452" lon="5.59835">
        <ele>1331</ele>
        <time>2017-07-16T07:26:04Z</time>
      </trkpt>
      <trkpt lat="45.02461" lon="5.59835">
        <ele>1332.4</ele>
        <time>2017-07-16T07:26:12Z</time>
      </trkpt>
      <trkpt lat="45.02465" lon="5.59836">
        <ele>1333.4</ele>
        <time>2017-07-16T07:26:16Z</time>
      </trkpt>
      <trkpt lat="45.02487" lon="5.59836">
        <ele>1334.4</ele>
        <time>2017-07-16T07:26:33Z</time>
      </trkpt>
      <trkpt lat="45.02496" lon="5.59836">
        <ele>1335.4</ele>
        <time>2017-07-16T07:26:40Z</time>
      </trkpt>
      <trkpt lat="45.02502" lon="5.59838">
        <ele>1336.8</ele>
        <time>2017-07-16T07:26:45Z</time>
      </trkpt>
      <trkpt lat="45.02508" lon="5.5984">
        <ele>1337.8</ele>
        <time>2017-07-16T07:26:51Z</time>
      </trkpt>
      <trkpt lat="45.02526" lon="5.59845">
        <ele>1339</ele>
        <time>2017-07-16T07:27:08Z</time>
      </trkpt>
      <trkpt lat="45.02536" lon="5.59847">
        <ele>1340</ele>
        <time>2017-07-16T07:27:16Z</time>
      </trkpt>
      <trkpt lat="45.02544" lon="5.5985">
        <ele>1341.2</ele>
        <time>2017-07-16T07:27:23Z</time>
      </trkpt>
      <trkpt lat="45.02552" lon="5.59852">
        <ele>1342.2</ele>
        <time>2017-07-16T07:27:31Z</time>
      </trkpt>
      <trkpt lat="45.02559" lon="5.59852">
        <ele>1343.2</ele>
        <time>2017-07-16T07:27:38Z</time>
      </trkpt>
      <trkpt lat="45.02567" lon="5.59853">
        <ele>1344.4</ele>
        <time>2017-07-16T07:27:45Z</time>
      </trkpt>
      <trkpt lat="45.02576" lon="5.59856">
        <ele>1345.4</ele>
        <time>2017-07-16T07:27:52Z</time>
      </trkpt>
      <trkpt lat="45.02587" lon="5.59861">
        <ele>1346.6</ele>
        <time>2017-07-16T07:28:01Z</time>
      </trkpt>
      <trkpt lat="45.02596" lon="5.59863">
        <ele>1347.8</ele>
        <time>2017-07-16T07:28:09Z</time>
      </trkpt>
      <trkpt lat="45.02603" lon="5.59862">
        <ele>1348.6</ele>
        <time>2017-07-16T07:28:15Z</time>
      </trkpt>
      <trkpt lat="45.02611" lon="5.59863">
        <ele>1349.8</ele>
        <time>2017-07-16T07:28:23Z</time>
      </trkpt>
      <trkpt lat="45.0262" lon="5.59864">
        <ele>1350.8</ele>
        <time>2017-07-16T07:28:31Z</time>
      </trkpt>
      <trkpt lat="45.02627" lon="5.59864">
        <ele>1351.8</ele>
        <time>2017-07-16T07:28:38Z</time>
      </trkpt>
      <trkpt lat="45.02632" lon="5.59864">
        <ele>1353.2</ele>
        <time>2017-07-16T07:28:43Z</time>
      </trkpt>
      <trkpt lat="45.0264" lon="5.59865">
        <ele>1354.2</ele>
        <time>2017-07-16T07:28:52Z</time>
      </trkpt>
      <trkpt lat="45.0265" lon="5.59867">
        <ele>1355.4</ele>
        <time>2017-07-16T07:29:02Z</time>
      </trkpt>
      <trkpt lat="45.02658" lon="5.59867">
        <ele>1356.4</ele>
        <time>2017-07-16T07:29:10Z</time>
      </trkpt>
      <trkpt lat="45.02668" lon="5.5987">
        <ele>1357.6</ele>
        <time>2017-07-16T07:29:19Z</time>
      </trkpt>
      <trkpt lat="45.02677" lon="5.59874">
        <ele>1358.6</ele>
        <time>2017-07-16T07:29:26Z</time>
      </trkpt>
      <trkpt lat="45.02685" lon="5.59876">
        <ele>1359.8</ele>
        <time>2017-07-16T07:29:35Z</time>
      </trkpt>
      <trkpt lat="45.02693" lon="5.59878">
        <ele>1360.8</ele>
        <time>2017-07-16T07:29:42Z</time>
      </trkpt>
      <trkpt lat="45.027" lon="5.5988">
        <ele>1362</ele>
        <time>2017-07-16T07:29:48Z</time>
      </trkpt>
      <trkpt lat="45.02709" lon="5.5988">
        <ele>1363</ele>
        <time>2017-07-16T07:29:56Z</time>
      </trkpt>
      <trkpt lat="45.02717" lon="5.59878">
        <ele>1364</ele>
        <time>2017-07-16T07:30:03Z</time>
      </trkpt>
      <trkpt lat="45.02723" lon="5.59877">
        <ele>1365.2</ele>
        <time>2017-07-16T07:30:08Z</time>
      </trkpt>
      <trkpt lat="45.02732" lon="5.59877">
        <ele>1366.2</ele>
        <time>2017-07-16T07:30:17Z</time>
      </trkpt>
      <trkpt lat="45.02739" lon="5.59879">
        <ele>1367.4</ele>
        <time>2017-07-16T07:30:25Z</time>
      </trkpt>
      <trkpt lat="45.02746" lon="5.59883">
        <ele>1368.4</ele>
        <time>2017-07-16T07:30:33Z</time>
      </trkpt>
      <trkpt lat="45.02754" lon="5.59884">
        <ele>1369.6</ele>
        <time>2017-07-16T07:30:42Z</time>
      </trkpt>
      <trkpt lat="45.02762" lon="5.59885">
        <ele>1370.6</ele>
        <time>2017-07-16T07:30:51Z</time>
      </trkpt>
      <trkpt lat="45.02771" lon="5.5989">
        <ele>1371.8</ele>
        <time>2017-07-16T07:30:59Z</time>
      </trkpt>
      <trkpt lat="45.02779" lon="5.59891">
        <ele>1373</ele>
        <time>2017-07-16T07:31:05Z</time>
      </trkpt>
      <trkpt lat="45.02791" lon="5.59893">
        <ele>1374.4</ele>
        <time>2017-07-16T07:31:13Z</time>
      </trkpt>
      <trkpt lat="45.028" lon="5.59895">
        <ele>1375.4</ele>
        <time>2017-07-16T07:31:20Z</time>
      </trkpt>
      <trkpt lat="45.02809" lon="5.59897">
        <ele>1376.6</ele>
        <time>2017-07-16T07:31:28Z</time>
      </trkpt>
      <trkpt lat="45.02813" lon="5.59897">
        <ele>1377.6</ele>
        <time>2017-07-16T07:31:32Z</time>
      </trkpt>
      <trkpt lat="45.02826" lon="5.59901">
        <ele>1378.6</ele>
        <time>2017-07-16T07:31:44Z</time>
      </trkpt>
      <trkpt lat="45.02833" lon="5.59905">
        <ele>1379.6</ele>
        <time>2017-07-16T07:31:52Z</time>
      </trkpt>
      <trkpt lat="45.02841" lon="5.59908">
        <ele>1380.6</ele>
        <time>2017-07-16T07:32:00Z</time>
      </trkpt>
      <trkpt lat="45.02848" lon="5.59911">
        <ele>1381.6</ele>
        <time>2017-07-16T07:32:07Z</time>
      </trkpt>
      <trkpt lat="45.02857" lon="5.59915">
        <ele>1382.8</ele>
        <time>2017-07-16T07:32:15Z</time>
      </trkpt>
      <trkpt lat="45.02868" lon="5.59917">
        <ele>1383.8</ele>
        <time>2017-07-16T07:32:25Z</time>
      </trkpt>
      <trkpt lat="45.02875" lon="5.59922">
        <ele>1385</ele>
        <time>2017-07-16T07:32:33Z</time>
      </trkpt>
      <trkpt lat="45.02882" lon="5.59925">
        <ele>1386</ele>
        <time>2017-07-16T07:32:39Z</time>
      </trkpt>
      <trkpt lat="45.02888" lon="5.59927">
        <ele>1387.2</ele>
        <time>2017-07-16T07:32:45Z</time>
      </trkpt>
      <trkpt lat="45.029" lon="5.59932">
        <ele>1388.2</ele>
        <time>2017-07-16T07:32:56Z</time>
      </trkpt>
      <trkpt lat="45.02908" lon="5.59932">
        <ele>1389.4</ele>
        <time>2017-07-16T07:33:03Z</time>
      </trkpt>
      <trkpt lat="45.02917" lon="5.59935">
        <ele>1390.6</ele>
        <time>2017-07-16T07:33:12Z</time>
      </trkpt>
      <trkpt lat="45.02924" lon="5.59938">
        <ele>1391.8</ele>
        <time>2017-07-16T07:33:19Z</time>
      </trkpt>
      <trkpt lat="45.02932" lon="5.5994">
        <ele>1392.8</ele>
        <time>2017-07-16T07:33:26Z</time>
      </trkpt>
      <trkpt lat="45.02941" lon="5.59942">
        <ele>1394</ele>
        <time>2017-07-16T07:33:36Z</time>
      </trkpt>
      <trkpt lat="45.02947" lon="5.59944">
        <ele>1395.2</ele>
        <time>2017-07-16T07:33:42Z</time>
      </trkpt>
      <trkpt lat="45.02952" lon="5.59944">
        <ele>1396.2</ele>
        <time>2017-07-16T07:33:47Z</time>
      </trkpt>
      <trkpt lat="45.02962" lon="5.59947">
        <ele>1397.4</ele>
        <time>2017-07-16T07:33:56Z</time>
      </trkpt>
      <trkpt lat="45.02972" lon="5.59948">
        <ele>1398.4</ele>
        <time>2017-07-16T07:34:05Z</time>
      </trkpt>
      <trkpt lat="45.02982" lon="5.5995">
        <ele>1399.6</ele>
        <time>2017-07-16T07:34:14Z</time>
      </trkpt>
      <trkpt lat="45.02986" lon="5.59948">
        <ele>1400.6</ele>
        <time>2017-07-16T07:34:18Z</time>
      </trkpt>
      <trkpt lat="45.02998" lon="5.59949">
        <ele>1401.8</ele>
        <time>2017-07-16T07:34:30Z</time>
      </trkpt>
      <trkpt lat="45.03008" lon="5.59954">
        <ele>1402.8</ele>
        <time>2017-07-16T07:34:39Z</time>
      </trkpt>
      <trkpt lat="45.03017" lon="5.59956">
        <ele>1403.8</ele>
        <time>2017-07-16T07:34:47Z</time>
      </trkpt>
      <trkpt lat="45.03033" lon="5.59957">
        <ele>1405</ele>
        <time>2017-07-16T07:34:59Z</time>
      </trkpt>
      <trkpt lat="45.03039" lon="5.59959">
        <ele>1406</ele>
        <time>2017-07-16T07:35:04Z</time>
      </trkpt>
      <trkpt lat="45.03048" lon="5.59961">
        <ele>1407</ele>
        <time>2017-07-16T07:35:11Z</time>
      </trkpt>
      <trkpt lat="45.0306" lon="5.59966">
        <ele>1408.4</ele>
        <time>2017-07-16T07:35:22Z</time>
      </trkpt>
      <trkpt lat="45.03073" lon="5.5997">
        <ele>1409.2</ele>
        <time>2017-07-16T07:35:34Z</time>
      </trkpt>
      <trkpt lat="45.03083" lon="5.59972">
        <ele>1410.2</ele>
        <time>2017-07-16T07:35:43Z</time>
      </trkpt>
      <trkpt lat="45.03093" lon="5.59973">
        <ele>1411.4</ele>
        <time>2017-07-16T07:35:52Z</time>
      </trkpt>
      <trkpt lat="45.03101" lon="5.59973">
        <ele>1412.4</ele>
        <time>2017-07-16T07:35:59Z</time>
      </trkpt>
      <trkpt lat="45.03108" lon="5.59975">
        <ele>1413.6</ele>
        <time>2017-07-16T07:36:07Z</time>
      </trkpt>
      <trkpt lat="45.03119" lon="5.59974">
        <ele>1414.8</ele>
        <time>2017-07-16T07:36:19Z</time>
      </trkpt>
      <trkpt lat="45.03129" lon="5.59978">
        <ele>1415.6</ele>
        <time>2017-07-16T07:36:28Z</time>
      </trkpt>
      <trkpt lat="45.03135" lon="5.59981">
        <ele>1416.8</ele>
        <time>2017-07-16T07:36:34Z</time>
      </trkpt>
      <trkpt lat="45.03145" lon="5.59986">
        <ele>1417.8</ele>
        <time>2017-07-16T07:36:43Z</time>
      </trkpt>
      <trkpt lat="45.03154" lon="5.59992">
        <ele>1418.8</ele>
        <time>2017-07-16T07:36:51Z</time>
      </trkpt>
      <trkpt lat="45.03163" lon="5.59995">
        <ele>1420</ele>
        <time>2017-07-16T07:36:58Z</time>
      </trkpt>
      <trkpt lat="45.03173" lon="5.59998">
        <ele>1421</ele>
        <time>2017-07-16T07:37:06Z</time>
      </trkpt>
      <trkpt lat="45.03183" lon="5.60002">
        <ele>1422</ele>
        <time>2017-07-16T07:37:15Z</time>
      </trkpt>
      <trkpt lat="45.03187" lon="5.60004">
        <ele>1423.2</ele>
        <time>2017-07-16T07:37:19Z</time>
      </trkpt>
      <trkpt lat="45.03198" lon="5.6001">
        <ele>1424.4</ele>
        <time>2017-07-16T07:37:31Z</time>
      </trkpt>
      <trkpt lat="45.03208" lon="5.60015">
        <ele>1425.4</ele>
        <time>2017-07-16T07:37:40Z</time>
      </trkpt>
      <trkpt lat="45.03215" lon="5.60017">
        <ele>1426.4</ele>
        <time>2017-07-16T07:37:48Z</time>
      </trkpt>
      <trkpt lat="45.03224" lon="5.60019">
        <ele>1427.6</ele>
        <time>2017-07-16T07:37:56Z</time>
      </trkpt>
      <trkpt lat="45.03234" lon="5.60021">
        <ele>1428.8</ele>
        <time>2017-07-16T07:38:05Z</time>
      </trkpt>
      <trkpt lat="45.03245" lon="5.60023">
        <ele>1430</ele>
        <time>2017-07-16T07:38:16Z</time>
      </trkpt>
      <trkpt lat="45.03251" lon="5.60026">
        <ele>1431</ele>
        <time>2017-07-16T07:38:22Z</time>
      </trkpt>
      <trkpt lat="45.03262" lon="5.60029">
        <ele>1432.2</ele>
        <time>2017-07-16T07:38:31Z</time>
      </trkpt>
      <trkpt lat="45.03271" lon="5.60031">
        <ele>1433.2</ele>
        <time>2017-07-16T07:38:40Z</time>
      </trkpt>
      <trkpt lat="45.03287" lon="5.60027">
        <ele>1434.4</ele>
        <time>2017-07-16T07:38:53Z</time>
      </trkpt>
      <trkpt lat="45.03295" lon="5.60022">
        <ele>1435.4</ele>
        <time>2017-07-16T07:39:02Z</time>
      </trkpt>
      <trkpt lat="45.033" lon="5.6002">
        <ele>1436.6</ele>
        <time>2017-07-16T07:39:08Z</time>
      </trkpt>
      <trkpt lat="45.03305" lon="5.60018">
        <ele>1437.8</ele>
        <time>2017-07-16T07:39:13Z</time>
      </trkpt>
      <trkpt lat="45.03309" lon="5.60018">
        <ele>1438.8</ele>
        <time>2017-07-16T07:39:17Z</time>
      </trkpt>
      <trkpt lat="45.03314" lon="5.60018">
        <ele>1440.2</ele>
        <time>2017-07-16T07:39:22Z</time>
      </trkpt>
      <trkpt lat="45.03317" lon="5.60018">
        <ele>1441</ele>
        <time>2017-07-16T07:39:28Z</time>
      </trkpt>
      <trkpt lat="45.03319" lon="5.60018">
        <ele>1442.2</ele>
        <time>2017-07-16T07:39:32Z</time>
      </trkpt>
      <trkpt lat="45.03323" lon="5.60017">
        <ele>1443.4</ele>
        <time>2017-07-16T07:39:37Z</time>
      </trkpt>
      <trkpt lat="45.03326" lon="5.60014">
        <ele>1444.6</ele>
        <time>2017-07-16T07:39:41Z</time>
      </trkpt>
      <trkpt lat="45.03327" lon="5.60013">
        <ele>1445.4</ele>
        <time>2017-07-16T07:39:43Z</time>
      </trkpt>
      <trkpt lat="45.0333" lon="5.60012">
        <ele>1445.8</ele>
        <time>2017-07-16T07:39:47Z</time>
      </trkpt>
      <trkpt lat="45.03333" lon="5.60011">
        <ele>1446.8</ele>
        <time>2017-07-16T07:39:52Z</time>
      </trkpt>
      <trkpt lat="45.03335" lon="5.6001">
        <ele>1448.2</ele>
        <time>2017-07-16T07:39:56Z</time>
      </trkpt>
      <trkpt lat="45.03339" lon="5.60008">
        <ele>1449.2</ele>
        <time>2017-07-16T07:40:03Z</time>
      </trkpt>
      <trkpt lat="45.03341" lon="5.60007">
        <ele>1450.2</ele>
        <time>2017-07-16T07:40:09Z</time>
      </trkpt>
      <trkpt lat="45.03342" lon="5.60005">
        <ele>1451.4</ele>
        <time>2017-07-16T07:40:14Z</time>
      </trkpt>
      <trkpt lat="45.03345" lon="5.60002">
        <ele>1451.6</ele>
        <time>2017-07-16T07:40:17Z</time>
      </trkpt>
      <trkpt lat="45.03347" lon="5.60001">
        <ele>1452.4</ele>
        <time>2017-07-16T07:40:20Z</time>
      </trkpt>
      <trkpt lat="45.0335" lon="5.6">
        <ele>1453.4</ele>
        <time>2017-07-16T07:40:25Z</time>
      </trkpt>
      <trkpt lat="45.03353" lon="5.60001">
        <ele>1454.6</ele>
        <time>2017-07-16T07:40:31Z</time>
      </trkpt>
      <trkpt lat="45.03356" lon="5.60001">
        <ele>1455.6</ele>
        <time>2017-07-16T07:40:36Z</time>
      </trkpt>
      <trkpt lat="45.0336" lon="5.60001">
        <ele>1456.6</ele>
        <time>2017-07-16T07:40:43Z</time>
      </trkpt>
      <trkpt lat="45.03362" lon="5.60001">
        <ele>1457.8</ele>
        <time>2017-07-16T07:40:48Z</time>
      </trkpt>
      <trkpt lat="45.03365" lon="5.59999">
        <ele>1459</ele>
        <time>2017-07-16T07:40:53Z</time>
      </trkpt>
      <trkpt lat="45.03368" lon="5.59998">
        <ele>1460.2</ele>
        <time>2017-07-16T07:40:59Z</time>
      </trkpt>
      <trkpt lat="45.03372" lon="5.59996">
        <ele>1461.2</ele>
        <time>2017-07-16T07:41:05Z</time>
      </trkpt>
      <trkpt lat="45.03376" lon="5.59994">
        <ele>1462.2</ele>
        <time>2017-07-16T07:41:11Z</time>
      </trkpt>
      <trkpt lat="45.03382" lon="5.59995">
        <ele>1463.2</ele>
        <time>2017-07-16T07:41:17Z</time>
      </trkpt>
      <trkpt lat="45.03383" lon="5.59995">
        <ele>1463.4</ele>
        <time>2017-07-16T07:41:18Z</time>
      </trkpt>
      <trkpt lat="45.03383" lon="5.59995">
        <ele>1463.8</ele>
        <time>2017-07-16T07:41:19Z</time>
      </trkpt>
      <trkpt lat="45.03385" lon="5.59995">
        <ele>1464.4</ele>
        <time>2017-07-16T07:41:22Z</time>
      </trkpt>
      <trkpt lat="45.03386" lon="5.59995">
        <ele>1464.6</ele>
        <time>2017-07-16T07:41:23Z</time>
      </trkpt>
      <trkpt lat="45.0339" lon="5.59995">
        <ele>1465.8</ele>
        <time>2017-07-16T07:41:28Z</time>
      </trkpt>
      <trkpt lat="45.03394" lon="5.59994">
        <ele>1466.8</ele>
        <time>2017-07-16T07:41:34Z</time>
      </trkpt>
      <trkpt lat="45.03397" lon="5.59993">
        <ele>1468</ele>
        <time>2017-07-16T07:41:39Z</time>
      </trkpt>
      <trkpt lat="45.03401" lon="5.59992">
        <ele>1469</ele>
        <time>2017-07-16T07:41:44Z</time>
      </trkpt>
      <trkpt lat="45.03406" lon="5.59992">
        <ele>1470.2</ele>
        <time>2017-07-16T07:41:51Z</time>
      </trkpt>
      <trkpt lat="45.0341" lon="5.59992">
        <ele>1471.4</ele>
        <time>2017-07-16T07:41:58Z</time>
      </trkpt>
      <trkpt lat="45.03416" lon="5.5999">
        <ele>1472.4</ele>
        <time>2017-07-16T07:42:06Z</time>
      </trkpt>
      <trkpt lat="45.03422" lon="5.59989">
        <ele>1473.6</ele>
        <time>2017-07-16T07:42:14Z</time>
      </trkpt>
      <trkpt lat="45.03425" lon="5.59989">
        <ele>1474.6</ele>
        <time>2017-07-16T07:42:19Z</time>
      </trkpt>
      <trkpt lat="45.03428" lon="5.59988">
        <ele>1475.6</ele>
        <time>2017-07-16T07:42:25Z</time>
      </trkpt>
      <trkpt lat="45.03432" lon="5.59988">
        <ele>1476.6</ele>
        <time>2017-07-16T07:42:30Z</time>
      </trkpt>
      <trkpt lat="45.03436" lon="5.59986">
        <ele>1477.4</ele>
        <time>2017-07-16T07:42:34Z</time>
      </trkpt>
      <trkpt lat="45.03437" lon="5.59986">
        <ele>1477.8</ele>
        <time>2017-07-16T07:42:35Z</time>
      </trkpt>
      <trkpt lat="45.03438" lon="5.59986">
        <ele>1478</ele>
        <time>2017-07-16T07:42:36Z</time>
      </trkpt>
      <trkpt lat="45.03441" lon="5.59986">
        <ele>1478.6</ele>
        <time>2017-07-16T07:42:40Z</time>
      </trkpt>
      <trkpt lat="45.03442" lon="5.59985">
        <ele>1478.6</ele>
        <time>2017-07-16T07:42:41Z</time>
      </trkpt>
      <trkpt lat="45.03443" lon="5.59986">
        <ele>1478.8</ele>
        <time>2017-07-16T07:42:42Z</time>
      </trkpt>
      <trkpt lat="45.03448" lon="5.59984">
        <ele>1480</ele>
        <time>2017-07-16T07:42:49Z</time>
      </trkpt>
      <trkpt lat="45.03452" lon="5.59985">
        <ele>1481.4</ele>
        <time>2017-07-16T07:42:55Z</time>
      </trkpt>
      <trkpt lat="45.0346" lon="5.59985">
        <ele>1482.2</ele>
        <time>2017-07-16T07:43:04Z</time>
      </trkpt>
      <trkpt lat="45.03462" lon="5.59985">
        <ele>1482.6</ele>
        <time>2017-07-16T07:43:06Z</time>
      </trkpt>
      <trkpt lat="45.03463" lon="5.59985">
        <ele>1482.4</ele>
        <time>2017-07-16T07:43:07Z</time>
      </trkpt>
      <trkpt lat="45.03465" lon="5.59985">
        <ele>1482.6</ele>
        <time>2017-07-16T07:43:09Z</time>
      </trkpt>
      <trkpt lat="45.03468" lon="5.59985">
        <ele>1482.8</ele>
        <time>2017-07-16T07:43:13Z</time>
      </trkpt>
      <trkpt lat="45.0347" lon="5.59986">
        <ele>1483.4</ele>
        <time>2017-07-16T07:43:16Z</time>
      </trkpt>
      <trkpt lat="45.0347" lon="5.59986">
        <ele>1483.6</ele>
        <time>2017-07-16T07:43:17Z</time>
      </trkpt>
      <trkpt lat="45.03471" lon="5.59986">
        <ele>1483.6</ele>
        <time>2017-07-16T07:43:18Z</time>
      </trkpt>
      <trkpt lat="45.03476" lon="5.59987">
        <ele>1484.6</ele>
        <time>2017-07-16T07:43:24Z</time>
      </trkpt>
      <trkpt lat="45.03481" lon="5.59987">
        <ele>1485.6</ele>
        <time>2017-07-16T07:43:30Z</time>
      </trkpt>
      <trkpt lat="45.03483" lon="5.59987">
        <ele>1485.8</ele>
        <time>2017-07-16T07:43:32Z</time>
      </trkpt>
      <trkpt lat="45.03489" lon="5.59983">
        <ele>1486.6</ele>
        <time>2017-07-16T07:43:37Z</time>
      </trkpt>
      <trkpt lat="45.03489" lon="5.59983">
        <ele>1487</ele>
        <time>2017-07-16T07:43:38Z</time>
      </trkpt>
      <trkpt lat="45.03491" lon="5.59982">
        <ele>1487.4</ele>
        <time>2017-07-16T07:43:40Z</time>
      </trkpt>
      <trkpt lat="45.03492" lon="5.59982">
        <ele>1488.2</ele>
        <time>2017-07-16T07:43:41Z</time>
      </trkpt>
      <trkpt lat="45.03493" lon="5.59982">
        <ele>1488.4</ele>
        <time>2017-07-16T07:43:42Z</time>
      </trkpt>
      <trkpt lat="45.03495" lon="5.59982">
        <ele>1488</ele>
        <time>2017-07-16T07:43:44Z</time>
      </trkpt>
      <trkpt lat="45.03497" lon="5.59982">
        <ele>1488.2</ele>
        <time>2017-07-16T07:43:47Z</time>
      </trkpt>
      <trkpt lat="45.03501" lon="5.59981">
        <ele>1489.2</ele>
        <time>2017-07-16T07:43:57Z</time>
      </trkpt>
      <trkpt lat="45.03506" lon="5.59979">
        <ele>1490.4</ele>
        <time>2017-07-16T07:44:04Z</time>
      </trkpt>
      <trkpt lat="45.03508" lon="5.59976">
        <ele>1491.4</ele>
        <time>2017-07-16T07:44:08Z</time>
      </trkpt>
      <trkpt lat="45.03512" lon="5.59974">
        <ele>1492.4</ele>
        <time>2017-07-16T07:44:14Z</time>
      </trkpt>
      <trkpt lat="45.03515" lon="5.59972">
        <ele>1493.6</ele>
        <time>2017-07-16T07:44:20Z</time>
      </trkpt>
      <trkpt lat="45.03521" lon="5.5997">
        <ele>1494.8</ele>
        <time>2017-07-16T07:44:28Z</time>
      </trkpt>
      <trkpt lat="45.03526" lon="5.59967">
        <ele>1495.8</ele>
        <time>2017-07-16T07:44:34Z</time>
      </trkpt>
      <trkpt lat="45.03529" lon="5.59965">
        <ele>1496.8</ele>
        <time>2017-07-16T07:44:39Z</time>
      </trkpt>
      <trkpt lat="45.03534" lon="5.59963">
        <ele>1498</ele>
        <time>2017-07-16T07:44:46Z</time>
      </trkpt>
      <trkpt lat="45.03537" lon="5.59959">
        <ele>1499</ele>
        <time>2017-07-16T07:44:52Z</time>
      </trkpt>
      <trkpt lat="45.03538" lon="5.59957">
        <ele>1500.2</ele>
        <time>2017-07-16T07:44:56Z</time>
      </trkpt>
      <trkpt lat="45.0354" lon="5.59955">
        <ele>1501.2</ele>
        <time>2017-07-16T07:45:00Z</time>
      </trkpt>
      <trkpt lat="45.03545" lon="5.59953">
        <ele>1502.2</ele>
        <time>2017-07-16T07:45:07Z</time>
      </trkpt>
      <trkpt lat="45.03556" lon="5.59954">
        <ele>1503.2</ele>
        <time>2017-07-16T07:46:08Z</time>
      </trkpt>
      <trkpt lat="45.03559" lon="5.59953">
        <ele>1504.4</ele>
        <time>2017-07-16T07:46:12Z</time>
      </trkpt>
      <trkpt lat="45.03563" lon="5.59951">
        <ele>1505.6</ele>
        <time>2017-07-16T07:46:17Z</time>
      </trkpt>
      <trkpt lat="45.03568" lon="5.5995">
        <ele>1506.6</ele>
        <time>2017-07-16T07:46:22Z</time>
      </trkpt>
      <trkpt lat="45.03573" lon="5.59949">
        <ele>1507.8</ele>
        <time>2017-07-16T07:46:27Z</time>
      </trkpt>
      <trkpt lat="45.0358" lon="5.59948">
        <ele>1509</ele>
        <time>2017-07-16T07:46:33Z</time>
      </trkpt>
      <trkpt lat="45.03585" lon="5.59948">
        <ele>1510</ele>
        <time>2017-07-16T07:46:38Z</time>
      </trkpt>
      <trkpt lat="45.03589" lon="5.59948">
        <ele>1511.2</ele>
        <time>2017-07-16T07:46:42Z</time>
      </trkpt>
      <trkpt lat="45.03593" lon="5.59948">
        <ele>1512.2</ele>
        <time>2017-07-16T07:46:47Z</time>
      </trkpt>
      <trkpt lat="45.03599" lon="5.59948">
        <ele>1513.2</ele>
        <time>2017-07-16T07:46:53Z</time>
      </trkpt>
      <trkpt lat="45.03608" lon="5.5995">
        <ele>1514.2</ele>
        <time>2017-07-16T07:47:03Z</time>
      </trkpt>
      <trkpt lat="45.03611" lon="5.59951">
        <ele>1515</ele>
        <time>2017-07-16T07:47:08Z</time>
      </trkpt>
      <trkpt lat="45.03617" lon="5.59953">
        <ele>1515.4</ele>
        <time>2017-07-16T07:47:13Z</time>
      </trkpt>
      <trkpt lat="45.03624" lon="5.59953">
        <ele>1516.4</ele>
        <time>2017-07-16T07:47:20Z</time>
      </trkpt>
      <trkpt lat="45.03629" lon="5.59954">
        <ele>1517.4</ele>
        <time>2017-07-16T07:47:27Z</time>
      </trkpt>
      <trkpt lat="45.03632" lon="5.59952">
        <ele>1518.6</ele>
        <time>2017-07-16T07:47:32Z</time>
      </trkpt>
      <trkpt lat="45.0364" lon="5.59955">
        <ele>1518.6</ele>
        <time>2017-07-16T07:47:40Z</time>
      </trkpt>
      <trkpt lat="45.03647" lon="5.59957">
        <ele>1519.6</ele>
        <time>2017-07-16T07:47:48Z</time>
      </trkpt>
      <trkpt lat="45.03653" lon="5.59955">
        <ele>1520.6</ele>
        <time>2017-07-16T07:47:55Z</time>
      </trkpt>
      <trkpt lat="45.03656" lon="5.59954">
        <ele>1521</ele>
        <time>2017-07-16T07:47:58Z</time>
      </trkpt>
      <trkpt lat="45.03659" lon="5.59953">
        <ele>1521.4</ele>
        <time>2017-07-16T07:48:02Z</time>
      </trkpt>
      <trkpt lat="45.03662" lon="5.59953">
        <ele>1521.8</ele>
        <time>2017-07-16T07:48:05Z</time>
      </trkpt>
      <trkpt lat="45.03671" lon="5.59954">
        <ele>1522.8</ele>
        <time>2017-07-16T07:48:17Z</time>
      </trkpt>
      <trkpt lat="45.03675" lon="5.59953">
        <ele>1524</ele>
        <time>2017-07-16T07:48:25Z</time>
      </trkpt>
      <trkpt lat="45.03679" lon="5.5995">
        <ele>1525</ele>
        <time>2017-07-16T07:48:31Z</time>
      </trkpt>
      <trkpt lat="45.03684" lon="5.59953">
        <ele>1526</ele>
        <time>2017-07-16T07:48:43Z</time>
      </trkpt>
      <trkpt lat="45.03685" lon="5.59953">
        <ele>1527.2</ele>
        <time>2017-07-16T07:48:46Z</time>
      </trkpt>
      <trkpt lat="45.03685" lon="5.59953">
        <ele>1526.2</ele>
        <time>2017-07-16T07:48:52Z</time>
      </trkpt>
      <trkpt lat="45.03696" lon="5.5995">
        <ele>1527.2</ele>
        <time>2017-07-16T07:49:45Z</time>
      </trkpt>
      <trkpt lat="45.03697" lon="5.5995">
        <ele>1527.4</ele>
        <time>2017-07-16T07:49:46Z</time>
      </trkpt>
      <trkpt lat="45.03698" lon="5.59948">
        <ele>1528.2</ele>
        <time>2017-07-16T07:49:49Z</time>
      </trkpt>
      <trkpt lat="45.03699" lon="5.59947">
        <ele>1528.6</ele>
        <time>2017-07-16T07:49:50Z</time>
      </trkpt>
      <trkpt lat="45.03701" lon="5.59947">
        <ele>1529</ele>
        <time>2017-07-16T07:49:52Z</time>
      </trkpt>
      <trkpt lat="45.03702" lon="5.59946">
        <ele>1529.6</ele>
        <time>2017-07-16T07:49:55Z</time>
      </trkpt>
      <trkpt lat="45.03708" lon="5.59947">
        <ele>1530.8</ele>
        <time>2017-07-16T07:50:03Z</time>
      </trkpt>
      <trkpt lat="45.03725" lon="5.59948">
        <ele>1531.6</ele>
        <time>2017-07-16T07:50:22Z</time>
      </trkpt>
      <trkpt lat="45.03732" lon="5.59949">
        <ele>1532.8</ele>
        <time>2017-07-16T07:50:31Z</time>
      </trkpt>
      <trkpt lat="45.03737" lon="5.5995">
        <ele>1533.8</ele>
        <time>2017-07-16T07:50:37Z</time>
      </trkpt>
      <trkpt lat="45.03747" lon="5.59953">
        <ele>1535.2</ele>
        <time>2017-07-16T07:50:48Z</time>
      </trkpt>
      <trkpt lat="45.03756" lon="5.5995">
        <ele>1536.2</ele>
        <time>2017-07-16T07:50:59Z</time>
      </trkpt>
      <trkpt lat="45.0376" lon="5.5995">
        <ele>1537.4</ele>
        <time>2017-07-16T07:51:04Z</time>
      </trkpt>
      <trkpt lat="45.03763" lon="5.59952">
        <ele>1538.4</ele>
        <time>2017-07-16T07:51:09Z</time>
      </trkpt>
      <trkpt lat="45.03764" lon="5.59952">
        <ele>1538.6</ele>
        <time>2017-07-16T07:51:10Z</time>
      </trkpt>
      <trkpt lat="45.03766" lon="5.59952">
        <ele>1539.6</ele>
        <time>2017-07-16T07:51:13Z</time>
      </trkpt>
      <trkpt lat="45.03772" lon="5.59955">
        <ele>1540.6</ele>
        <time>2017-07-16T07:51:21Z</time>
      </trkpt>
      <trkpt lat="45.03778" lon="5.59957">
        <ele>1542</ele>
        <time>2017-07-16T07:51:28Z</time>
      </trkpt>
      <trkpt lat="45.03782" lon="5.59961">
        <ele>1543</ele>
        <time>2017-07-16T07:51:34Z</time>
      </trkpt>
      <trkpt lat="45.03791" lon="5.59974">
        <ele>1544.2</ele>
        <time>2017-07-16T07:51:47Z</time>
      </trkpt>
      <trkpt lat="45.03799" lon="5.59983">
        <ele>1545.6</ele>
        <time>2017-07-16T07:51:58Z</time>
      </trkpt>
      <trkpt lat="45.03832" lon="5.59991">
        <ele>1546.6</ele>
        <time>2017-07-16T07:52:29Z</time>
      </trkpt>
      <trkpt lat="45.03859" lon="5.59974">
        <ele>1547.8</ele>
        <time>2017-07-16T07:52:56Z</time>
      </trkpt>
      <trkpt lat="45.03882" lon="5.59977">
        <ele>1548.8</ele>
        <time>2017-07-16T07:53:17Z</time>
      </trkpt>
      <trkpt lat="45.03894" lon="5.59976">
        <ele>1549.4</ele>
        <time>2017-07-16T07:54:19Z</time>
      </trkpt>
      <trkpt lat="45.03891" lon="5.59975">
        <ele>1550</ele>
        <time>2017-07-16T07:54:23Z</time>
      </trkpt>
      <trkpt lat="45.0388" lon="5.59971">
        <ele>1551</ele>
        <time>2017-07-16T07:54:34Z</time>
      </trkpt>
      <trkpt lat="45.03874" lon="5.59966">
        <ele>1552</ele>
        <time>2017-07-16T07:54:42Z</time>
      </trkpt>
      <trkpt lat="45.03856" lon="5.59963">
        <ele>1553.2</ele>
        <time>2017-07-16T07:54:59Z</time>
      </trkpt>
      <trkpt lat="45.03842" lon="5.59972">
        <ele>1554.4</ele>
        <time>2017-07-16T07:55:12Z</time>
      </trkpt>
      <trkpt lat="45.03836" lon="5.59975">
        <ele>1555.4</ele>
        <time>2017-07-16T07:55:18Z</time>
      </trkpt>
      <trkpt lat="45.03831" lon="5.59975">
        <ele>1556.2</ele>
        <time>2017-07-16T07:55:22Z</time>
      </trkpt>
      <trkpt lat="45.03828" lon="5.59974">
        <ele>1556.6</ele>
        <time>2017-07-16T07:55:26Z</time>
      </trkpt>
      <trkpt lat="45.0381" lon="5.59965">
        <ele>1556.4</ele>
        <time>2017-07-16T07:55:46Z</time>
      </trkpt>
      <trkpt lat="45.03804" lon="5.59958">
        <ele>1557.4</ele>
        <time>2017-07-16T07:56:20Z</time>
      </trkpt>
      <trkpt lat="45.03802" lon="5.59956">
        <ele>1557.8</ele>
        <time>2017-07-16T07:56:22Z</time>
      </trkpt>
      <trkpt lat="45.03802" lon="5.59957">
        <ele>1558.2</ele>
        <time>2017-07-16T07:56:24Z</time>
      </trkpt>
      <trkpt lat="45.0379" lon="5.59939">
        <ele>1557.8</ele>
        <time>2017-07-16T07:56:51Z</time>
      </trkpt>
      <trkpt lat="45.03788" lon="5.59937">
        <ele>1557.4</ele>
        <time>2017-07-16T07:56:54Z</time>
      </trkpt>
      <trkpt lat="45.03764" lon="5.59919">
        <ele>1558.8</ele>
        <time>2017-07-16T07:57:20Z</time>
      </trkpt>
      <trkpt lat="45.03761" lon="5.59916">
        <ele>1558.6</ele>
        <time>2017-07-16T07:57:23Z</time>
      </trkpt>
      <trkpt lat="45.03749" lon="5.59907">
        <ele>1559</ele>
        <time>2017-07-16T07:57:36Z</time>
      </trkpt>
      <trkpt lat="45.03743" lon="5.59904">
        <ele>1559.8</ele>
        <time>2017-07-16T07:57:43Z</time>
      </trkpt>
      <trkpt lat="45.03738" lon="5.59898">
        <ele>1561</ele>
        <time>2017-07-16T07:57:51Z</time>
      </trkpt>
      <trkpt lat="45.03727" lon="5.5989">
        <ele>1562</ele>
        <time>2017-07-16T07:58:02Z</time>
      </trkpt>
      <trkpt lat="45.03702" lon="5.59886">
        <ele>1563.2</ele>
        <time>2017-07-16T07:58:23Z</time>
      </trkpt>
      <trkpt lat="45.03695" lon="5.59886">
        <ele>1562.6</ele>
        <time>2017-07-16T07:58:30Z</time>
      </trkpt>
      <trkpt lat="45.03693" lon="5.59886">
        <ele>1563</ele>
        <time>2017-07-16T07:58:32Z</time>
      </trkpt>
      <trkpt lat="45.03671" lon="5.5989">
        <ele>1564.2</ele>
        <time>2017-07-16T07:58:53Z</time>
      </trkpt>
      <trkpt lat="45.03663" lon="5.5989">
        <ele>1564.6</ele>
        <time>2017-07-16T07:59:01Z</time>
      </trkpt>
      <trkpt lat="45.03647" lon="5.59886">
        <ele>1564.8</ele>
        <time>2017-07-16T07:59:19Z</time>
      </trkpt>
      <trkpt lat="45.0364" lon="5.59884">
        <ele>1565.4</ele>
        <time>2017-07-16T07:59:27Z</time>
      </trkpt>
      <trkpt lat="45.03627" lon="5.59878">
        <ele>1566</ele>
        <time>2017-07-16T07:59:41Z</time>
      </trkpt>
      <trkpt lat="45.03624" lon="5.59876">
        <ele>1566.4</ele>
        <time>2017-07-16T07:59:45Z</time>
      </trkpt>
      <trkpt lat="45.03623" lon="5.59875">
        <ele>1566.6</ele>
        <time>2017-07-16T07:59:46Z</time>
      </trkpt>
      <trkpt lat="45.03614" lon="5.59857">
        <ele>1566.8</ele>
        <time>2017-07-16T08:00:02Z</time>
      </trkpt>
      <trkpt lat="45.03612" lon="5.59854">
        <ele>1566.4</ele>
        <time>2017-07-16T08:00:05Z</time>
      </trkpt>
      <trkpt lat="45.03604" lon="5.59846">
        <ele>1567.6</ele>
        <time>2017-07-16T08:00:15Z</time>
      </trkpt>
      <trkpt lat="45.03588" lon="5.59841">
        <ele>1567.6</ele>
        <time>2017-07-16T08:00:32Z</time>
      </trkpt>
      <trkpt lat="45.03587" lon="5.5984">
        <ele>1567.6</ele>
        <time>2017-07-16T08:00:34Z</time>
      </trkpt>
      <trkpt lat="45.03584" lon="5.5984">
        <ele>1567.8</ele>
        <time>2017-07-16T08:00:36Z</time>
      </trkpt>
      <trkpt lat="45.03574" lon="5.59838">
        <ele>1568.4</ele>
        <time>2017-07-16T08:00:55Z</time>
      </trkpt>
      <trkpt lat="45.03571" lon="5.59838">
        <ele>1568.6</ele>
        <time>2017-07-16T08:00:58Z</time>
      </trkpt>
      <trkpt lat="45.03542" lon="5.59841">
        <ele>1569.6</ele>
        <time>2017-07-16T08:01:24Z</time>
      </trkpt>
      <trkpt lat="45.03523" lon="5.5985">
        <ele>1570.6</ele>
        <time>2017-07-16T08:01:44Z</time>
      </trkpt>
      <trkpt lat="45.03517" lon="5.5985">
        <ele>1570.4</ele>
        <time>2017-07-16T08:01:51Z</time>
      </trkpt>
      <trkpt lat="45.0351" lon="5.59855">
        <ele>1570.4</ele>
        <time>2017-07-16T08:02:01Z</time>
      </trkpt>
      <trkpt lat="45.03507" lon="5.59859">
        <ele>1570.6</ele>
        <time>2017-07-16T08:02:05Z</time>
      </trkpt>
      <trkpt lat="45.03496" lon="5.59866">
        <ele>1572</ele>
        <time>2017-07-16T08:02:20Z</time>
      </trkpt>
      <trkpt lat="45.03487" lon="5.59869">
        <ele>1572.8</ele>
        <time>2017-07-16T08:02:30Z</time>
      </trkpt>
      <trkpt lat="45.03482" lon="5.59873">
        <ele>1573.8</ele>
        <time>2017-07-16T08:03:35Z</time>
      </trkpt>
      <trkpt lat="45.03481" lon="5.59873">
        <ele>1572.8</ele>
        <time>2017-07-16T08:03:59Z</time>
      </trkpt>
      <trkpt lat="45.03471" lon="5.59837">
        <ele>1573.8</ele>
        <time>2017-07-16T08:05:20Z</time>
      </trkpt>
      <trkpt lat="45.03468" lon="5.59827">
        <ele>1574</ele>
        <time>2017-07-16T08:05:28Z</time>
      </trkpt>
      <trkpt lat="45.03465" lon="5.59813">
        <ele>1575</ele>
        <time>2017-07-16T08:05:39Z</time>
      </trkpt>
      <trkpt lat="45.03457" lon="5.59807">
        <ele>1575.2</ele>
        <time>2017-07-16T08:05:51Z</time>
      </trkpt>
      <trkpt lat="45.0344" lon="5.598">
        <ele>1576.2</ele>
        <time>2017-07-16T08:06:10Z</time>
      </trkpt>
      <trkpt lat="45.03426" lon="5.59797">
        <ele>1577.2</ele>
        <time>2017-07-16T08:06:24Z</time>
      </trkpt>
      <trkpt lat="45.0342" lon="5.59795">
        <ele>1577.2</ele>
        <time>2017-07-16T08:06:29Z</time>
      </trkpt>
      <trkpt lat="45.03414" lon="5.59791">
        <ele>1578</ele>
        <time>2017-07-16T08:06:37Z</time>
      </trkpt>
      <trkpt lat="45.03412" lon="5.59789">
        <ele>1578.2</ele>
        <time>2017-07-16T08:06:39Z</time>
      </trkpt>
      <trkpt lat="45.03411" lon="5.59787">
        <ele>1578.6</ele>
        <time>2017-07-16T08:06:41Z</time>
      </trkpt>
      <trkpt lat="45.03393" lon="5.59756">
        <ele>1579.2</ele>
        <time>2017-07-16T08:07:14Z</time>
      </trkpt>
      <trkpt lat="45.03394" lon="5.59757">
        <ele>1580.2</ele>
        <time>2017-07-16T08:07:26Z</time>
      </trkpt>
      <trkpt lat="45.03395" lon="5.59757">
        <ele>1581.4</ele>
        <time>2017-07-16T08:07:29Z</time>
      </trkpt>
      <trkpt lat="45.03396" lon="5.59757">
        <ele>1582.6</ele>
        <time>2017-07-16T08:07:33Z</time>
      </trkpt>
      <trkpt lat="45.034" lon="5.59758">
        <ele>1583.6</ele>
        <time>2017-07-16T08:07:40Z</time>
      </trkpt>
      <trkpt lat="45.03402" lon="5.59758">
        <ele>1584.8</ele>
        <time>2017-07-16T08:07:45Z</time>
      </trkpt>
      <trkpt lat="45.03404" lon="5.59759">
        <ele>1585.8</ele>
        <time>2017-07-16T08:07:50Z</time>
      </trkpt>
      <trkpt lat="45.03405" lon="5.59759">
        <ele>1586.8</ele>
        <time>2017-07-16T08:07:54Z</time>
      </trkpt>
      <trkpt lat="45.03408" lon="5.5976">
        <ele>1588</ele>
        <time>2017-07-16T08:08:00Z</time>
      </trkpt>
      <trkpt lat="45.03411" lon="5.59762">
        <ele>1589.2</ele>
        <time>2017-07-16T08:08:10Z</time>
      </trkpt>
      <trkpt lat="45.03412" lon="5.59761">
        <ele>1590.2</ele>
        <time>2017-07-16T08:08:15Z</time>
      </trkpt>
      <trkpt lat="45.03413" lon="5.59759">
        <ele>1591.4</ele>
        <time>2017-07-16T08:08:20Z</time>
      </trkpt>
      <trkpt lat="45.03416" lon="5.59759">
        <ele>1592.4</ele>
        <time>2017-07-16T08:08:25Z</time>
      </trkpt>
      <trkpt lat="45.03419" lon="5.59759">
        <ele>1593.6</ele>
        <time>2017-07-16T08:08:31Z</time>
      </trkpt>
      <trkpt lat="45.0342" lon="5.5976">
        <ele>1594.6</ele>
        <time>2017-07-16T08:08:36Z</time>
      </trkpt>
      <trkpt lat="45.03425" lon="5.59762">
        <ele>1595.8</ele>
        <time>2017-07-16T08:08:45Z</time>
      </trkpt>
      <trkpt lat="45.03434" lon="5.5976">
        <ele>1596.8</ele>
        <time>2017-07-16T08:08:59Z</time>
      </trkpt>
      <trkpt lat="45.0344" lon="5.59759">
        <ele>1597.8</ele>
        <time>2017-07-16T08:09:10Z</time>
      </trkpt>
      <trkpt lat="45.03451" lon="5.59758">
        <ele>1598.8</ele>
        <time>2017-07-16T08:09:30Z</time>
      </trkpt>
      <trkpt lat="45.03458" lon="5.59757">
        <ele>1599.8</ele>
        <time>2017-07-16T08:09:41Z</time>
      </trkpt>
      <trkpt lat="45.03466" lon="5.59758">
        <ele>1601</ele>
        <time>2017-07-16T08:09:52Z</time>
      </trkpt>
      <trkpt lat="45.03471" lon="5.59761">
        <ele>1602</ele>
        <time>2017-07-16T08:10:00Z</time>
      </trkpt>
      <trkpt lat="45.03478" lon="5.59765">
        <ele>1603.2</ele>
        <time>2017-07-16T08:10:11Z</time>
      </trkpt>
      <trkpt lat="45.03481" lon="5.59766">
        <ele>1604.2</ele>
        <time>2017-07-16T08:10:19Z</time>
      </trkpt>
      <trkpt lat="45.03484" lon="5.59765">
        <ele>1605.4</ele>
        <time>2017-07-16T08:10:25Z</time>
      </trkpt>
      <trkpt lat="45.03486" lon="5.59764">
        <ele>1606.6</ele>
        <time>2017-07-16T08:10:49Z</time>
      </trkpt>
      <trkpt lat="45.03487" lon="5.59763">
        <ele>1607.8</ele>
        <time>2017-07-16T08:10:53Z</time>
      </trkpt>
      <trkpt lat="45.03489" lon="5.59765">
        <ele>1609.2</ele>
        <time>2017-07-16T08:10:58Z</time>
      </trkpt>
      <trkpt lat="45.03491" lon="5.59765">
        <ele>1610.4</ele>
        <time>2017-07-16T08:11:02Z</time>
      </trkpt>
      <trkpt lat="45.03497" lon="5.59769">
        <ele>1611.4</ele>
        <time>2017-07-16T08:11:11Z</time>
      </trkpt>
      <trkpt lat="45.03502" lon="5.59767">
        <ele>1612.6</ele>
        <time>2017-07-16T08:11:20Z</time>
      </trkpt>
      <trkpt lat="45.03504" lon="5.59763">
        <ele>1613.8</ele>
        <time>2017-07-16T08:11:26Z</time>
      </trkpt>
      <trkpt lat="45.03505" lon="5.59764">
        <ele>1612.6</ele>
        <time>2017-07-16T08:11:34Z</time>
      </trkpt>
      <trkpt lat="45.03506" lon="5.59763">
        <ele>1614</ele>
        <time>2017-07-16T08:11:36Z</time>
      </trkpt>
      <trkpt lat="45.03504" lon="5.5976">
        <ele>1615.2</ele>
        <time>2017-07-16T08:11:46Z</time>
      </trkpt>
      <trkpt lat="45.03504" lon="5.59759">
        <ele>1616.2</ele>
        <time>2017-07-16T08:11:51Z</time>
      </trkpt>
      <trkpt lat="45.03502" lon="5.59755">
        <ele>1617.4</ele>
        <time>2017-07-16T08:12:02Z</time>
      </trkpt>
      <trkpt lat="45.03498" lon="5.59751">
        <ele>1618.4</ele>
        <time>2017-07-16T08:12:11Z</time>
      </trkpt>
      <trkpt lat="45.03494" lon="5.59746">
        <ele>1619.8</ele>
        <time>2017-07-16T08:12:19Z</time>
      </trkpt>
      <trkpt lat="45.03493" lon="5.59743">
        <ele>1620.8</ele>
        <time>2017-07-16T08:12:24Z</time>
      </trkpt>
      <trkpt lat="45.03491" lon="5.59739">
        <ele>1622</ele>
        <time>2017-07-16T08:12:30Z</time>
      </trkpt>
      <trkpt lat="45.03487" lon="5.59736">
        <ele>1623</ele>
        <time>2017-07-16T08:12:37Z</time>
      </trkpt>
      <trkpt lat="45.03485" lon="5.59734">
        <ele>1624</ele>
        <time>2017-07-16T08:12:42Z</time>
      </trkpt>
      <trkpt lat="45.03482" lon="5.59731">
        <ele>1625.2</ele>
        <time>2017-07-16T08:12:49Z</time>
      </trkpt>
      <trkpt lat="45.03481" lon="5.59729">
        <ele>1626.2</ele>
        <time>2017-07-16T08:12:58Z</time>
      </trkpt>
      <trkpt lat="45.03483" lon="5.59728">
        <ele>1627.4</ele>
        <time>2017-07-16T08:13:03Z</time>
      </trkpt>
      <trkpt lat="45.03486" lon="5.59728">
        <ele>1628.6</ele>
        <time>2017-07-16T08:13:08Z</time>
      </trkpt>
      <trkpt lat="45.0349" lon="5.59728">
        <ele>1629.6</ele>
        <time>2017-07-16T08:13:15Z</time>
      </trkpt>
      <trkpt lat="45.03493" lon="5.59728">
        <ele>1630.8</ele>
        <time>2017-07-16T08:13:20Z</time>
      </trkpt>
      <trkpt lat="45.03498" lon="5.59725">
        <ele>1632</ele>
        <time>2017-07-16T08:13:28Z</time>
      </trkpt>
      <trkpt lat="45.035" lon="5.59725">
        <ele>1633</ele>
        <time>2017-07-16T08:13:33Z</time>
      </trkpt>
      <trkpt lat="45.03504" lon="5.59723">
        <ele>1634.2</ele>
        <time>2017-07-16T08:13:38Z</time>
      </trkpt>
      <trkpt lat="45.03511" lon="5.59721">
        <ele>1635.2</ele>
        <time>2017-07-16T08:13:47Z</time>
      </trkpt>
      <trkpt lat="45.03513" lon="5.5972">
        <ele>1636.4</ele>
        <time>2017-07-16T08:13:51Z</time>
      </trkpt>
      <trkpt lat="45.03511" lon="5.59717">
        <ele>1637.4</ele>
        <time>2017-07-16T08:13:58Z</time>
      </trkpt>
      <trkpt lat="45.03507" lon="5.59715">
        <ele>1638.6</ele>
        <time>2017-07-16T08:14:04Z</time>
      </trkpt>
      <trkpt lat="45.03505" lon="5.59714">
        <ele>1639.6</ele>
        <time>2017-07-16T08:14:09Z</time>
      </trkpt>
      <trkpt lat="45.03507" lon="5.59713">
        <ele>1640.8</ele>
        <time>2017-07-16T08:14:13Z</time>
      </trkpt>
      <trkpt lat="45.03509" lon="5.5971">
        <ele>1642</ele>
        <time>2017-07-16T08:14:21Z</time>
      </trkpt>
      <trkpt lat="45.03511" lon="5.59711">
        <ele>1643.4</ele>
        <time>2017-07-16T08:14:27Z</time>
      </trkpt>
      <trkpt lat="45.03516" lon="5.59711">
        <ele>1644.4</ele>
        <time>2017-07-16T08:14:42Z</time>
      </trkpt>
      <trkpt lat="45.03521" lon="5.59708">
        <ele>1645.8</ele>
        <time>2017-07-16T08:14:51Z</time>
      </trkpt>
      <trkpt lat="45.03524" lon="5.59707">
        <ele>1647</ele>
        <time>2017-07-16T08:14:57Z</time>
      </trkpt>
      <trkpt lat="45.03526" lon="5.59705">
        <ele>1648</ele>
        <time>2017-07-16T08:15:02Z</time>
      </trkpt>
      <trkpt lat="45.03529" lon="5.59704">
        <ele>1649</ele>
        <time>2017-07-16T08:15:08Z</time>
      </trkpt>
      <trkpt lat="45.03529" lon="5.59704">
        <ele>1650.2</ele>
        <time>2017-07-16T08:15:10Z</time>
      </trkpt>
      <trkpt lat="45.03531" lon="5.59703">
        <ele>1651.6</ele>
        <time>2017-07-16T08:15:12Z</time>
      </trkpt>
      <trkpt lat="45.03532" lon="5.59703">
        <ele>1650.6</ele>
        <time>2017-07-16T08:15:15Z</time>
      </trkpt>
      <trkpt lat="45.03535" lon="5.59701">
        <ele>1651.8</ele>
        <time>2017-07-16T08:15:26Z</time>
      </trkpt>
      <trkpt lat="45.03538" lon="5.59698">
        <ele>1652.8</ele>
        <time>2017-07-16T08:15:32Z</time>
      </trkpt>
      <trkpt lat="45.03543" lon="5.59694">
        <ele>1653.4</ele>
        <time>2017-07-16T08:15:38Z</time>
      </trkpt>
      <trkpt lat="45.03545" lon="5.59693">
        <ele>1653.8</ele>
        <time>2017-07-16T08:15:41Z</time>
      </trkpt>
      <trkpt lat="45.03546" lon="5.59693">
        <ele>1654.2</ele>
        <time>2017-07-16T08:15:43Z</time>
      </trkpt>
      <trkpt lat="45.03549" lon="5.59692">
        <ele>1655</ele>
        <time>2017-07-16T08:15:47Z</time>
      </trkpt>
      <trkpt lat="45.03553" lon="5.59691">
        <ele>1656</ele>
        <time>2017-07-16T08:15:56Z</time>
      </trkpt>
      <trkpt lat="45.03556" lon="5.59691">
        <ele>1657.2</ele>
        <time>2017-07-16T08:16:03Z</time>
      </trkpt>
      <trkpt lat="45.03559" lon="5.59692">
        <ele>1658.4</ele>
        <time>2017-07-16T08:16:07Z</time>
      </trkpt>
      <trkpt lat="45.03563" lon="5.59692">
        <ele>1659.4</ele>
        <time>2017-07-16T08:16:14Z</time>
      </trkpt>
      <trkpt lat="45.0356" lon="5.59696">
        <ele>1658.4</ele>
        <time>2017-07-16T08:16:39Z</time>
      </trkpt>
      <trkpt lat="45.03554" lon="5.59692">
        <ele>1659.6</ele>
        <time>2017-07-16T08:16:52Z</time>
      </trkpt>
      <trkpt lat="45.03553" lon="5.5969">
        <ele>1660.8</ele>
        <time>2017-07-16T08:16:57Z</time>
      </trkpt>
      <trkpt lat="45.03551" lon="5.59689">
        <ele>1661.8</ele>
        <time>2017-07-16T08:17:01Z</time>
      </trkpt>
      <trkpt lat="45.03546" lon="5.59684">
        <ele>1662.8</ele>
        <time>2017-07-16T08:17:11Z</time>
      </trkpt>
      <trkpt lat="45.03543" lon="5.59682">
        <ele>1664</ele>
        <time>2017-07-16T08:17:16Z</time>
      </trkpt>
      <trkpt lat="45.03539" lon="5.59683">
        <ele>1665</ele>
        <time>2017-07-16T08:17:21Z</time>
      </trkpt>
      <trkpt lat="45.03537" lon="5.59684">
        <ele>1666</ele>
        <time>2017-07-16T08:17:24Z</time>
      </trkpt>
      <trkpt lat="45.03533" lon="5.59684">
        <ele>1667</ele>
        <time>2017-07-16T08:17:29Z</time>
      </trkpt>
      <trkpt lat="45.03523" lon="5.59678">
        <ele>1668.4</ele>
        <time>2017-07-16T08:17:42Z</time>
      </trkpt>
      <trkpt lat="45.03514" lon="5.59673">
        <ele>1669.6</ele>
        <time>2017-07-16T08:17:53Z</time>
      </trkpt>
      <trkpt lat="45.03513" lon="5.59672">
        <ele>1670.8</ele>
        <time>2017-07-16T08:17:57Z</time>
      </trkpt>
      <trkpt lat="45.03516" lon="5.59671">
        <ele>1672</ele>
        <time>2017-07-16T08:18:05Z</time>
      </trkpt>
      <trkpt lat="45.03523" lon="5.59668">
        <ele>1673</ele>
        <time>2017-07-16T08:18:14Z</time>
      </trkpt>
      <trkpt lat="45.03525" lon="5.59664">
        <ele>1674</ele>
        <time>2017-07-16T08:18:20Z</time>
      </trkpt>
      <trkpt lat="45.03525" lon="5.59663">
        <ele>1674</ele>
        <time>2017-07-16T08:18:21Z</time>
      </trkpt>
      <trkpt lat="45.03525" lon="5.5966">
        <ele>1675.2</ele>
        <time>2017-07-16T08:18:30Z</time>
      </trkpt>
      <trkpt lat="45.03526" lon="5.59659">
        <ele>1676.4</ele>
        <time>2017-07-16T08:18:35Z</time>
      </trkpt>
      <trkpt lat="45.03528" lon="5.5966">
        <ele>1677.6</ele>
        <time>2017-07-16T08:18:40Z</time>
      </trkpt>
      <trkpt lat="45.03529" lon="5.59659">
        <ele>1678.8</ele>
        <time>2017-07-16T08:18:43Z</time>
      </trkpt>
      <trkpt lat="45.03529" lon="5.59656">
        <ele>1679.8</ele>
        <time>2017-07-16T08:18:48Z</time>
      </trkpt>
      <trkpt lat="45.03527" lon="5.59654">
        <ele>1680.8</ele>
        <time>2017-07-16T08:18:53Z</time>
      </trkpt>
      <trkpt lat="45.03524" lon="5.59652">
        <ele>1682</ele>
        <time>2017-07-16T08:18:59Z</time>
      </trkpt>
      <trkpt lat="45.03522" lon="5.59654">
        <ele>1683.2</ele>
        <time>2017-07-16T08:19:03Z</time>
      </trkpt>
      <trkpt lat="45.0352" lon="5.59655">
        <ele>1684.4</ele>
        <time>2017-07-16T08:19:09Z</time>
      </trkpt>
      <trkpt lat="45.03518" lon="5.59656">
        <ele>1685.4</ele>
        <time>2017-07-16T08:19:14Z</time>
      </trkpt>
      <trkpt lat="45.03514" lon="5.59653">
        <ele>1686.4</ele>
        <time>2017-07-16T08:19:22Z</time>
      </trkpt>
      <trkpt lat="45.03509" lon="5.59652">
        <ele>1687.6</ele>
        <time>2017-07-16T08:19:30Z</time>
      </trkpt>
      <trkpt lat="45.03508" lon="5.59655">
        <ele>1688.6</ele>
        <time>2017-07-16T08:19:33Z</time>
      </trkpt>
      <trkpt lat="45.03505" lon="5.59656">
        <ele>1689.8</ele>
        <time>2017-07-16T08:19:37Z</time>
      </trkpt>
      <trkpt lat="45.03499" lon="5.59653">
        <ele>1690.6</ele>
        <time>2017-07-16T08:19:44Z</time>
      </trkpt>
      <trkpt lat="45.03497" lon="5.59649">
        <ele>1691.6</ele>
        <time>2017-07-16T08:19:51Z</time>
      </trkpt>
      <trkpt lat="45.03494" lon="5.59649">
        <ele>1692.8</ele>
        <time>2017-07-16T08:19:57Z</time>
      </trkpt>
      <trkpt lat="45.03492" lon="5.59651">
        <ele>1694</ele>
        <time>2017-07-16T08:20:01Z</time>
      </trkpt>
      <trkpt lat="45.0349" lon="5.59655">
        <ele>1695</ele>
        <time>2017-07-16T08:20:06Z</time>
      </trkpt>
      <trkpt lat="45.03487" lon="5.59656">
        <ele>1696.4</ele>
        <time>2017-07-16T08:20:12Z</time>
      </trkpt>
      <trkpt lat="45.03485" lon="5.59657">
        <ele>1697.4</ele>
        <time>2017-07-16T08:20:16Z</time>
      </trkpt>
      <trkpt lat="45.03479" lon="5.59654">
        <ele>1698.4</ele>
        <time>2017-07-16T08:20:27Z</time>
      </trkpt>
      <trkpt lat="45.03476" lon="5.59653">
        <ele>1699.8</ele>
        <time>2017-07-16T08:20:34Z</time>
      </trkpt>
      <trkpt lat="45.03473" lon="5.59655">
        <ele>1700.8</ele>
        <time>2017-07-16T08:20:38Z</time>
      </trkpt>
      <trkpt lat="45.03471" lon="5.59655">
        <ele>1702</ele>
        <time>2017-07-16T08:20:42Z</time>
      </trkpt>
      <trkpt lat="45.0347" lon="5.59656">
        <ele>1703</ele>
        <time>2017-07-16T08:20:45Z</time>
      </trkpt>
      <trkpt lat="45.03464" lon="5.59652">
        <ele>1704.2</ele>
        <time>2017-07-16T08:20:54Z</time>
      </trkpt>
      <trkpt lat="45.03464" lon="5.59648">
        <ele>1704.4</ele>
        <time>2017-07-16T08:20:57Z</time>
      </trkpt>
      <trkpt lat="45.03465" lon="5.59647">
        <ele>1704.8</ele>
        <time>2017-07-16T08:20:59Z</time>
      </trkpt>
      <trkpt lat="45.03466" lon="5.59644">
        <ele>1705.4</ele>
        <time>2017-07-16T08:21:03Z</time>
      </trkpt>
      <trkpt lat="45.03467" lon="5.5964">
        <ele>1706.6</ele>
        <time>2017-07-16T08:21:10Z</time>
      </trkpt>
      <trkpt lat="45.0347" lon="5.59636">
        <ele>1707.6</ele>
        <time>2017-07-16T08:21:18Z</time>
      </trkpt>
      <trkpt lat="45.03472" lon="5.59632">
        <ele>1709</ele>
        <time>2017-07-16T08:21:23Z</time>
      </trkpt>
      <trkpt lat="45.03474" lon="5.59629">
        <ele>1710</ele>
        <time>2017-07-16T08:21:29Z</time>
      </trkpt>
      <trkpt lat="45.03477" lon="5.59629">
        <ele>1711.4</ele>
        <time>2017-07-16T08:21:36Z</time>
      </trkpt>
      <trkpt lat="45.03479" lon="5.59628">
        <ele>1713.2</ele>
        <time>2017-07-16T08:21:38Z</time>
      </trkpt>
      <trkpt lat="45.03491" lon="5.59617">
        <ele>1714.4</ele>
        <time>2017-07-16T08:22:06Z</time>
      </trkpt>
      <trkpt lat="45.03488" lon="5.59617">
        <ele>1715.4</ele>
        <time>2017-07-16T08:22:11Z</time>
      </trkpt>
      <trkpt lat="45.03482" lon="5.59617">
        <ele>1716.8</ele>
        <time>2017-07-16T08:22:18Z</time>
      </trkpt>
      <trkpt lat="45.03478" lon="5.59617">
        <ele>1717.6</ele>
        <time>2017-07-16T08:22:24Z</time>
      </trkpt>
      <trkpt lat="45.0347" lon="5.59615">
        <ele>1718.6</ele>
        <time>2017-07-16T08:22:34Z</time>
      </trkpt>
      <trkpt lat="45.03472" lon="5.59612">
        <ele>1719.8</ele>
        <time>2017-07-16T08:23:01Z</time>
      </trkpt>
      <trkpt lat="45.03477" lon="5.5961">
        <ele>1720.8</ele>
        <time>2017-07-16T08:24:27Z</time>
      </trkpt>
      <trkpt lat="45.03482" lon="5.59606">
        <ele>1722</ele>
        <time>2017-07-16T08:24:34Z</time>
      </trkpt>
      <trkpt lat="45.03485" lon="5.59603">
        <ele>1723</ele>
        <time>2017-07-16T08:24:40Z</time>
      </trkpt>
      <trkpt lat="45.03488" lon="5.59602">
        <ele>1724.2</ele>
        <time>2017-07-16T08:24:46Z</time>
      </trkpt>
      <trkpt lat="45.03493" lon="5.59599">
        <ele>1725.4</ele>
        <time>2017-07-16T08:24:56Z</time>
      </trkpt>
      <trkpt lat="45.03499" lon="5.59593">
        <ele>1726.6</ele>
        <time>2017-07-16T08:25:06Z</time>
      </trkpt>
      <trkpt lat="45.03496" lon="5.59594">
        <ele>1727.8</ele>
        <time>2017-07-16T08:25:13Z</time>
      </trkpt>
      <trkpt lat="45.0349" lon="5.59592">
        <ele>1728.8</ele>
        <time>2017-07-16T08:25:23Z</time>
      </trkpt>
      <trkpt lat="45.03485" lon="5.59597">
        <ele>1730</ele>
        <time>2017-07-16T08:25:29Z</time>
      </trkpt>
      <trkpt lat="45.03484" lon="5.59599">
        <ele>1730.4</ele>
        <time>2017-07-16T08:25:31Z</time>
      </trkpt>
      <trkpt lat="45.03482" lon="5.59599">
        <ele>1730.4</ele>
        <time>2017-07-16T08:25:33Z</time>
      </trkpt>
      <trkpt lat="45.03481" lon="5.59598">
        <ele>1730.6</ele>
        <time>2017-07-16T08:25:35Z</time>
      </trkpt>
      <trkpt lat="45.03479" lon="5.59597">
        <ele>1731</ele>
        <time>2017-07-16T08:25:38Z</time>
      </trkpt>
      <trkpt lat="45.03473" lon="5.59591">
        <ele>1732.2</ele>
        <time>2017-07-16T08:25:48Z</time>
      </trkpt>
      <trkpt lat="45.03467" lon="5.5959">
        <ele>1733.4</ele>
        <time>2017-07-16T08:25:56Z</time>
      </trkpt>
      <trkpt lat="45.0346" lon="5.59582">
        <ele>1734.4</ele>
        <time>2017-07-16T08:26:07Z</time>
      </trkpt>
      <trkpt lat="45.03456" lon="5.5958">
        <ele>1735.6</ele>
        <time>2017-07-16T08:26:12Z</time>
      </trkpt>
      <trkpt lat="45.03442" lon="5.59574">
        <ele>1736.6</ele>
        <time>2017-07-16T08:26:28Z</time>
      </trkpt>
      <trkpt lat="45.0344" lon="5.59573">
        <ele>1737.2</ele>
        <time>2017-07-16T08:26:32Z</time>
      </trkpt>
      <trkpt lat="45.03438" lon="5.5957">
        <ele>1737.8</ele>
        <time>2017-07-16T08:26:35Z</time>
      </trkpt>
      <trkpt lat="45.03436" lon="5.59569">
        <ele>1738.2</ele>
        <time>2017-07-16T08:26:38Z</time>
      </trkpt>
      <trkpt lat="45.03433" lon="5.59568">
        <ele>1738.6</ele>
        <time>2017-07-16T08:26:42Z</time>
      </trkpt>
      <trkpt lat="45.03431" lon="5.59567">
        <ele>1739</ele>
        <time>2017-07-16T08:26:44Z</time>
      </trkpt>
      <trkpt lat="45.03426" lon="5.59562">
        <ele>1740</ele>
        <time>2017-07-16T08:26:52Z</time>
      </trkpt>
      <trkpt lat="45.03422" lon="5.59555">
        <ele>1741.2</ele>
        <time>2017-07-16T08:27:01Z</time>
      </trkpt>
      <trkpt lat="45.0342" lon="5.59551">
        <ele>1742.2</ele>
        <time>2017-07-16T08:27:08Z</time>
      </trkpt>
      <trkpt lat="45.03415" lon="5.59547">
        <ele>1743.4</ele>
        <time>2017-07-16T08:27:16Z</time>
      </trkpt>
      <trkpt lat="45.03415" lon="5.59545">
        <ele>1744.6</ele>
        <time>2017-07-16T08:27:22Z</time>
      </trkpt>
      <trkpt lat="45.03416" lon="5.59547">
        <ele>1746</ele>
        <time>2017-07-16T08:27:28Z</time>
      </trkpt>
      <trkpt lat="45.03422" lon="5.5955">
        <ele>1746.4</ele>
        <time>2017-07-16T08:27:36Z</time>
      </trkpt>
      <trkpt lat="45.03428" lon="5.59554">
        <ele>1747</ele>
        <time>2017-07-16T08:27:43Z</time>
      </trkpt>
      <trkpt lat="45.03436" lon="5.59555">
        <ele>1748.2</ele>
        <time>2017-07-16T08:27:54Z</time>
      </trkpt>
      <trkpt lat="45.03446" lon="5.59558">
        <ele>1749.2</ele>
        <time>2017-07-16T08:28:07Z</time>
      </trkpt>
      <trkpt lat="45.03455" lon="5.59557">
        <ele>1750.2</ele>
        <time>2017-07-16T08:28:17Z</time>
      </trkpt>
      <trkpt lat="45.0346" lon="5.59552">
        <ele>1751.4</ele>
        <time>2017-07-16T08:28:53Z</time>
      </trkpt>
      <trkpt lat="45.0346" lon="5.59547">
        <ele>1752.6</ele>
        <time>2017-07-16T08:29:10Z</time>
      </trkpt>
      <trkpt lat="45.03458" lon="5.59546">
        <ele>1753.8</ele>
        <time>2017-07-16T08:29:16Z</time>
      </trkpt>
      <trkpt lat="45.03457" lon="5.59543">
        <ele>1754.8</ele>
        <time>2017-07-16T08:29:20Z</time>
      </trkpt>
      <trkpt lat="45.03457" lon="5.59541">
        <ele>1756</ele>
        <time>2017-07-16T08:29:24Z</time>
      </trkpt>
      <trkpt lat="45.03455" lon="5.59539">
        <ele>1757</ele>
        <time>2017-07-16T08:29:28Z</time>
      </trkpt>
      <trkpt lat="45.03457" lon="5.59537">
        <ele>1758.2</ele>
        <time>2017-07-16T08:29:34Z</time>
      </trkpt>
      <trkpt lat="45.03457" lon="5.59535">
        <ele>1759.4</ele>
        <time>2017-07-16T08:29:38Z</time>
      </trkpt>
      <trkpt lat="45.03458" lon="5.59532">
        <ele>1760.6</ele>
        <time>2017-07-16T08:29:43Z</time>
      </trkpt>
      <trkpt lat="45.03458" lon="5.5953">
        <ele>1761.6</ele>
        <time>2017-07-16T08:29:47Z</time>
      </trkpt>
      <trkpt lat="45.03459" lon="5.59528">
        <ele>1762.8</ele>
        <time>2017-07-16T08:29:50Z</time>
      </trkpt>
      <trkpt lat="45.03463" lon="5.59524">
        <ele>1764.2</ele>
        <time>2017-07-16T08:29:57Z</time>
      </trkpt>
      <trkpt lat="45.03467" lon="5.59523">
        <ele>1765.4</ele>
        <time>2017-07-16T08:30:03Z</time>
      </trkpt>
      <trkpt lat="45.03469" lon="5.5952">
        <ele>1766.4</ele>
        <time>2017-07-16T08:30:07Z</time>
      </trkpt>
      <trkpt lat="45.03471" lon="5.59518">
        <ele>1767.6</ele>
        <time>2017-07-16T08:30:16Z</time>
      </trkpt>
      <trkpt lat="45.03471" lon="5.59516">
        <ele>1768.6</ele>
        <time>2017-07-16T08:30:19Z</time>
      </trkpt>
      <trkpt lat="45.03469" lon="5.59513">
        <ele>1769.6</ele>
        <time>2017-07-16T08:30:30Z</time>
      </trkpt>
      <trkpt lat="45.03468" lon="5.59511">
        <ele>1770.8</ele>
        <time>2017-07-16T08:30:34Z</time>
      </trkpt>
      <trkpt lat="45.03467" lon="5.5951">
        <ele>1771.8</ele>
        <time>2017-07-16T08:30:38Z</time>
      </trkpt>
      <trkpt lat="45.03465" lon="5.59507">
        <ele>1773</ele>
        <time>2017-07-16T08:30:45Z</time>
      </trkpt>
      <trkpt lat="45.03463" lon="5.59504">
        <ele>1774.2</ele>
        <time>2017-07-16T08:30:52Z</time>
      </trkpt>
      <trkpt lat="45.03461" lon="5.59502">
        <ele>1775.4</ele>
        <time>2017-07-16T08:30:56Z</time>
      </trkpt>
      <trkpt lat="45.03459" lon="5.59501">
        <ele>1776.4</ele>
        <time>2017-07-16T08:31:03Z</time>
      </trkpt>
      <trkpt lat="45.03457" lon="5.59499">
        <ele>1777.6</ele>
        <time>2017-07-16T08:31:09Z</time>
      </trkpt>
      <trkpt lat="45.03455" lon="5.59498">
        <ele>1778.8</ele>
        <time>2017-07-16T08:31:13Z</time>
      </trkpt>
      <trkpt lat="45.03452" lon="5.59497">
        <ele>1780</ele>
        <time>2017-07-16T08:31:19Z</time>
      </trkpt>
      <trkpt lat="45.03452" lon="5.59495">
        <ele>1781</ele>
        <time>2017-07-16T08:31:25Z</time>
      </trkpt>
      <trkpt lat="45.03451" lon="5.59493">
        <ele>1782</ele>
        <time>2017-07-16T08:31:31Z</time>
      </trkpt>
      <trkpt lat="45.03448" lon="5.59491">
        <ele>1783.2</ele>
        <time>2017-07-16T08:31:36Z</time>
      </trkpt>
      <trkpt lat="45.03445" lon="5.59487">
        <ele>1784.4</ele>
        <time>2017-07-16T08:31:43Z</time>
      </trkpt>
      <trkpt lat="45.03444" lon="5.59485">
        <ele>1785.6</ele>
        <time>2017-07-16T08:31:49Z</time>
      </trkpt>
      <trkpt lat="45.03443" lon="5.59486">
        <ele>1786.6</ele>
        <time>2017-07-16T08:31:54Z</time>
      </trkpt>
      <trkpt lat="45.03442" lon="5.59486">
        <ele>1787.8</ele>
        <time>2017-07-16T08:32:05Z</time>
      </trkpt>
      <trkpt lat="45.03441" lon="5.59482">
        <ele>1788.6</ele>
        <time>2017-07-16T08:32:10Z</time>
      </trkpt>
      <trkpt lat="45.03442" lon="5.5948">
        <ele>1789.6</ele>
        <time>2017-07-16T08:32:15Z</time>
      </trkpt>
      <trkpt lat="45.03444" lon="5.59478">
        <ele>1791</ele>
        <time>2017-07-16T08:32:20Z</time>
      </trkpt>
      <trkpt lat="45.03442" lon="5.59476">
        <ele>1792</ele>
        <time>2017-07-16T08:32:26Z</time>
      </trkpt>
      <trkpt lat="45.03441" lon="5.59474">
        <ele>1793</ele>
        <time>2017-07-16T08:32:31Z</time>
      </trkpt>
      <trkpt lat="45.03439" lon="5.59472">
        <ele>1794.2</ele>
        <time>2017-07-16T08:32:36Z</time>
      </trkpt>
      <trkpt lat="45.03439" lon="5.59468">
        <ele>1795.4</ele>
        <time>2017-07-16T08:32:47Z</time>
      </trkpt>
      <trkpt lat="45.03437" lon="5.59467">
        <ele>1796.4</ele>
        <time>2017-07-16T08:32:52Z</time>
      </trkpt>
      <trkpt lat="45.03436" lon="5.59465">
        <ele>1797.4</ele>
        <time>2017-07-16T08:32:58Z</time>
      </trkpt>
      <trkpt lat="45.03435" lon="5.59463">
        <ele>1798.6</ele>
        <time>2017-07-16T08:33:03Z</time>
      </trkpt>
      <trkpt lat="45.03435" lon="5.59461">
        <ele>1799.6</ele>
        <time>2017-07-16T08:33:13Z</time>
      </trkpt>
      <trkpt lat="45.03435" lon="5.59458">
        <ele>1801</ele>
        <time>2017-07-16T08:33:26Z</time>
      </trkpt>
      <trkpt lat="45.03436" lon="5.59456">
        <ele>1802.2</ele>
        <time>2017-07-16T08:33:34Z</time>
      </trkpt>
      <trkpt lat="45.0344" lon="5.59454">
        <ele>1803.4</ele>
        <time>2017-07-16T08:33:45Z</time>
      </trkpt>
      <trkpt lat="45.03441" lon="5.59457">
        <ele>1804.4</ele>
        <time>2017-07-16T08:34:39Z</time>
      </trkpt>
      <trkpt lat="45.03441" lon="5.59454">
        <ele>1803.2</ele>
        <time>2017-07-16T08:36:10Z</time>
      </trkpt>
      <trkpt lat="45.0344" lon="5.59452">
        <ele>1804.4</ele>
        <time>2017-07-16T08:36:52Z</time>
      </trkpt>
      <trkpt lat="45.03439" lon="5.5945">
        <ele>1805.8</ele>
        <time>2017-07-16T08:36:55Z</time>
      </trkpt>
      <trkpt lat="45.03437" lon="5.59447">
        <ele>1806.8</ele>
        <time>2017-07-16T08:37:02Z</time>
      </trkpt>
      <trkpt lat="45.03436" lon="5.59446">
        <ele>1808</ele>
        <time>2017-07-16T08:37:07Z</time>
      </trkpt>
      <trkpt lat="45.03433" lon="5.59444">
        <ele>1809.2</ele>
        <time>2017-07-16T08:37:12Z</time>
      </trkpt>
      <trkpt lat="45.03431" lon="5.59441">
        <ele>1810.4</ele>
        <time>2017-07-16T08:37:17Z</time>
      </trkpt>
      <trkpt lat="45.03429" lon="5.5944">
        <ele>1811.6</ele>
        <time>2017-07-16T08:37:22Z</time>
      </trkpt>
      <trkpt lat="45.03427" lon="5.59437">
        <ele>1812.6</ele>
        <time>2017-07-16T08:37:27Z</time>
      </trkpt>
      <trkpt lat="45.03425" lon="5.59435">
        <ele>1813.8</ele>
        <time>2017-07-16T08:37:32Z</time>
      </trkpt>
      <trkpt lat="45.03423" lon="5.59435">
        <ele>1815</ele>
        <time>2017-07-16T08:37:37Z</time>
      </trkpt>
      <trkpt lat="45.0342" lon="5.59434">
        <ele>1816</ele>
        <time>2017-07-16T08:37:42Z</time>
      </trkpt>
      <trkpt lat="45.03419" lon="5.59433">
        <ele>1817.2</ele>
        <time>2017-07-16T08:37:46Z</time>
      </trkpt>
      <trkpt lat="45.03419" lon="5.59431">
        <ele>1818.4</ele>
        <time>2017-07-16T08:37:51Z</time>
      </trkpt>
      <trkpt lat="45.0342" lon="5.5943">
        <ele>1819.4</ele>
        <time>2017-07-16T08:37:55Z</time>
      </trkpt>
      <trkpt lat="45.03421" lon="5.59428">
        <ele>1820.6</ele>
        <time>2017-07-16T08:38:02Z</time>
      </trkpt>
      <trkpt lat="45.03422" lon="5.59425">
        <ele>1821.8</ele>
        <time>2017-07-16T08:38:07Z</time>
      </trkpt>
      <trkpt lat="45.03423" lon="5.59423">
        <ele>1822.8</ele>
        <time>2017-07-16T08:38:10Z</time>
      </trkpt>
      <trkpt lat="45.03425" lon="5.59421">
        <ele>1824</ele>
        <time>2017-07-16T08:38:16Z</time>
      </trkpt>
      <trkpt lat="45.03425" lon="5.5942">
        <ele>1825.2</ele>
        <time>2017-07-16T08:38:21Z</time>
      </trkpt>
      <trkpt lat="45.03425" lon="5.59419">
        <ele>1826.4</ele>
        <time>2017-07-16T08:38:26Z</time>
      </trkpt>
      <trkpt lat="45.03426" lon="5.5942">
        <ele>1827.6</ele>
        <time>2017-07-16T08:38:32Z</time>
      </trkpt>
      <trkpt lat="45.03426" lon="5.5942">
        <ele>1828.8</ele>
        <time>2017-07-16T08:38:37Z</time>
      </trkpt>
      <trkpt lat="45.03427" lon="5.59418">
        <ele>1830</ele>
        <time>2017-07-16T08:38:40Z</time>
      </trkpt>
      <trkpt lat="45.03429" lon="5.59414">
        <ele>1831.4</ele>
        <time>2017-07-16T08:38:48Z</time>
      </trkpt>
      <trkpt lat="45.03428" lon="5.5941">
        <ele>1832.4</ele>
        <time>2017-07-16T08:38:54Z</time>
      </trkpt>
      <trkpt lat="45.03426" lon="5.59415">
        <ele>1833.4</ele>
        <time>2017-07-16T08:39:40Z</time>
      </trkpt>
      <trkpt lat="45.03423" lon="5.59416">
        <ele>1835.2</ele>
        <time>2017-07-16T08:39:45Z</time>
      </trkpt>
      <trkpt lat="45.0342" lon="5.59411">
        <ele>1836.4</ele>
        <time>2017-07-16T08:39:52Z</time>
      </trkpt>
      <trkpt lat="45.03417" lon="5.5941">
        <ele>1837.6</ele>
        <time>2017-07-16T08:39:57Z</time>
      </trkpt>
      <trkpt lat="45.03416" lon="5.59407">
        <ele>1838.8</ele>
        <time>2017-07-16T08:40:02Z</time>
      </trkpt>
      <trkpt lat="45.03415" lon="5.59405">
        <ele>1840</ele>
        <time>2017-07-16T08:40:05Z</time>
      </trkpt>
      <trkpt lat="45.03412" lon="5.59403">
        <ele>1841.2</ele>
        <time>2017-07-16T08:40:11Z</time>
      </trkpt>
      <trkpt lat="45.03411" lon="5.59402">
        <ele>1842.6</ele>
        <time>2017-07-16T08:40:15Z</time>
      </trkpt>
      <trkpt lat="45.0341" lon="5.59399">
        <ele>1843.8</ele>
        <time>2017-07-16T08:40:20Z</time>
      </trkpt>
      <trkpt lat="45.03408" lon="5.59398">
        <ele>1845.2</ele>
        <time>2017-07-16T08:40:25Z</time>
      </trkpt>
      <trkpt lat="45.03406" lon="5.59395">
        <ele>1846.2</ele>
        <time>2017-07-16T08:40:29Z</time>
      </trkpt>
      <trkpt lat="45.03405" lon="5.59395">
        <ele>1847.4</ele>
        <time>2017-07-16T08:40:33Z</time>
      </trkpt>
      <trkpt lat="45.03402" lon="5.59391">
        <ele>1848.6</ele>
        <time>2017-07-16T08:40:40Z</time>
      </trkpt>
      <trkpt lat="45.03398" lon="5.5939">
        <ele>1849.6</ele>
        <time>2017-07-16T08:40:47Z</time>
      </trkpt>
      <trkpt lat="45.03396" lon="5.59387">
        <ele>1850.8</ele>
        <time>2017-07-16T08:40:53Z</time>
      </trkpt>
      <trkpt lat="45.03395" lon="5.59386">
        <ele>1852</ele>
        <time>2017-07-16T08:40:57Z</time>
      </trkpt>
      <trkpt lat="45.03391" lon="5.59387">
        <ele>1853</ele>
        <time>2017-07-16T08:41:10Z</time>
      </trkpt>
      <trkpt lat="45.03388" lon="5.59386">
        <ele>1854.4</ele>
        <time>2017-07-16T08:41:34Z</time>
      </trkpt>
      <trkpt lat="45.03386" lon="5.59384">
        <ele>1855.6</ele>
        <time>2017-07-16T08:41:39Z</time>
      </trkpt>
      <trkpt lat="45.03383" lon="5.59381">
        <ele>1856.8</ele>
        <time>2017-07-16T08:41:46Z</time>
      </trkpt>
      <trkpt lat="45.03381" lon="5.5938">
        <ele>1857.8</ele>
        <time>2017-07-16T08:41:51Z</time>
      </trkpt>
      <trkpt lat="45.03378" lon="5.59378">
        <ele>1859.2</ele>
        <time>2017-07-16T08:41:58Z</time>
      </trkpt>
      <trkpt lat="45.03377" lon="5.59377">
        <ele>1860.4</ele>
        <time>2017-07-16T08:42:03Z</time>
      </trkpt>
      <trkpt lat="45.03378" lon="5.59374">
        <ele>1861.8</ele>
        <time>2017-07-16T08:42:08Z</time>
      </trkpt>
      <trkpt lat="45.03379" lon="5.59371">
        <ele>1863</ele>
        <time>2017-07-16T08:42:14Z</time>
      </trkpt>
      <trkpt lat="45.03378" lon="5.59369">
        <ele>1864.2</ele>
        <time>2017-07-16T08:42:19Z</time>
      </trkpt>
      <trkpt lat="45.03377" lon="5.59366">
        <ele>1865.2</ele>
        <time>2017-07-16T08:42:28Z</time>
      </trkpt>
      <trkpt lat="45.03377" lon="5.59364">
        <ele>1866.4</ele>
        <time>2017-07-16T08:42:36Z</time>
      </trkpt>
      <trkpt lat="45.03377" lon="5.59361">
        <ele>1867.4</ele>
        <time>2017-07-16T08:42:41Z</time>
      </trkpt>
      <trkpt lat="45.03376" lon="5.59358">
        <ele>1868.6</ele>
        <time>2017-07-16T08:42:49Z</time>
      </trkpt>
      <trkpt lat="45.03375" lon="5.59356">
        <ele>1869.8</ele>
        <time>2017-07-16T08:42:53Z</time>
      </trkpt>
      <trkpt lat="45.03373" lon="5.59354">
        <ele>1870.8</ele>
        <time>2017-07-16T08:42:59Z</time>
      </trkpt>
      <trkpt lat="45.03368" lon="5.59353">
        <ele>1872.2</ele>
        <time>2017-07-16T08:43:08Z</time>
      </trkpt>
      <trkpt lat="45.03366" lon="5.59354">
        <ele>1873.6</ele>
        <time>2017-07-16T08:43:14Z</time>
      </trkpt>
      <trkpt lat="45.03362" lon="5.59352">
        <ele>1875</ele>
        <time>2017-07-16T08:43:22Z</time>
      </trkpt>
      <trkpt lat="45.0336" lon="5.59351">
        <ele>1876</ele>
        <time>2017-07-16T08:43:28Z</time>
      </trkpt>
      <trkpt lat="45.03357" lon="5.59349">
        <ele>1877.2</ele>
        <time>2017-07-16T08:43:34Z</time>
      </trkpt>
      <trkpt lat="45.03351" lon="5.59351">
        <ele>1878.2</ele>
        <time>2017-07-16T08:43:42Z</time>
      </trkpt>
      <trkpt lat="45.03347" lon="5.59349">
        <ele>1879.2</ele>
        <time>2017-07-16T08:43:51Z</time>
      </trkpt>
      <trkpt lat="45.0334" lon="5.59352">
        <ele>1880.4</ele>
        <time>2017-07-16T08:44:55Z</time>
      </trkpt>
      <trkpt lat="45.03339" lon="5.59349">
        <ele>1881.4</ele>
        <time>2017-07-16T08:45:01Z</time>
      </trkpt>
      <trkpt lat="45.03336" lon="5.59351">
        <ele>1882.2</ele>
        <time>2017-07-16T08:45:05Z</time>
      </trkpt>
      <trkpt lat="45.03335" lon="5.59351">
        <ele>1882.6</ele>
        <time>2017-07-16T08:45:07Z</time>
      </trkpt>
      <trkpt lat="45.03333" lon="5.59349">
        <ele>1883.8</ele>
        <time>2017-07-16T08:45:11Z</time>
      </trkpt>
      <trkpt lat="45.03331" lon="5.59348">
        <ele>1885</ele>
        <time>2017-07-16T08:45:16Z</time>
      </trkpt>
      <trkpt lat="45.03323" lon="5.59344">
        <ele>1886.4</ele>
        <time>2017-07-16T08:45:31Z</time>
      </trkpt>
      <trkpt lat="45.03321" lon="5.59342">
        <ele>1887.6</ele>
        <time>2017-07-16T08:45:38Z</time>
      </trkpt>
      <trkpt lat="45.03318" lon="5.59341">
        <ele>1888.6</ele>
        <time>2017-07-16T08:45:47Z</time>
      </trkpt>
      <trkpt lat="45.03317" lon="5.5934">
        <ele>1889.8</ele>
        <time>2017-07-16T08:45:50Z</time>
      </trkpt>
      <trkpt lat="45.03315" lon="5.59338">
        <ele>1891</ele>
        <time>2017-07-16T08:45:56Z</time>
      </trkpt>
      <trkpt lat="45.03312" lon="5.59339">
        <ele>1892</ele>
        <time>2017-07-16T08:46:03Z</time>
      </trkpt>
      <trkpt lat="45.0331" lon="5.59339">
        <ele>1893.2</ele>
        <time>2017-07-16T08:46:07Z</time>
      </trkpt>
      <trkpt lat="45.03308" lon="5.59339">
        <ele>1894.6</ele>
        <time>2017-07-16T08:46:12Z</time>
      </trkpt>
      <trkpt lat="45.03306" lon="5.59337">
        <ele>1895.6</ele>
        <time>2017-07-16T08:46:17Z</time>
      </trkpt>
      <trkpt lat="45.03305" lon="5.59336">
        <ele>1896.6</ele>
        <time>2017-07-16T08:46:22Z</time>
      </trkpt>
      <trkpt lat="45.03304" lon="5.59335">
        <ele>1898</ele>
        <time>2017-07-16T08:46:26Z</time>
      </trkpt>
      <trkpt lat="45.03301" lon="5.59335">
        <ele>1899.4</ele>
        <time>2017-07-16T08:46:32Z</time>
      </trkpt>
      <trkpt lat="45.03299" lon="5.59334">
        <ele>1900.4</ele>
        <time>2017-07-16T08:46:36Z</time>
      </trkpt>
      <trkpt lat="45.03298" lon="5.59333">
        <ele>1901.6</ele>
        <time>2017-07-16T08:46:41Z</time>
      </trkpt>
      <trkpt lat="45.03296" lon="5.59333">
        <ele>1903</ele>
        <time>2017-07-16T08:46:48Z</time>
      </trkpt>
      <trkpt lat="45.03297" lon="5.59334">
        <ele>1904</ele>
        <time>2017-07-16T08:46:56Z</time>
      </trkpt>
      <trkpt lat="45.03297" lon="5.59334">
        <ele>1902.6</ele>
        <time>2017-07-16T08:47:09Z</time>
      </trkpt>
      <trkpt lat="45.03296" lon="5.59333">
        <ele>1903.8</ele>
        <time>2017-07-16T08:47:23Z</time>
      </trkpt>
      <trkpt lat="45.03296" lon="5.5933">
        <ele>1905</ele>
        <time>2017-07-16T08:47:29Z</time>
      </trkpt>
      <trkpt lat="45.03298" lon="5.59322">
        <ele>1906.4</ele>
        <time>2017-07-16T08:47:42Z</time>
      </trkpt>
      <trkpt lat="45.03295" lon="5.59321">
        <ele>1907.8</ele>
        <time>2017-07-16T08:47:50Z</time>
      </trkpt>
      <trkpt lat="45.03292" lon="5.59321">
        <ele>1908.8</ele>
        <time>2017-07-16T08:47:56Z</time>
      </trkpt>
      <trkpt lat="45.03291" lon="5.59317">
        <ele>1910</ele>
        <time>2017-07-16T08:48:05Z</time>
      </trkpt>
      <trkpt lat="45.03291" lon="5.59315">
        <ele>1911.2</ele>
        <time>2017-07-16T08:48:10Z</time>
      </trkpt>
      <trkpt lat="45.03289" lon="5.59314">
        <ele>1912.2</ele>
        <time>2017-07-16T08:48:16Z</time>
      </trkpt>
      <trkpt lat="45.03287" lon="5.59314">
        <ele>1913.6</ele>
        <time>2017-07-16T08:48:21Z</time>
      </trkpt>
      <trkpt lat="45.03285" lon="5.59315">
        <ele>1914.6</ele>
        <time>2017-07-16T08:48:25Z</time>
      </trkpt>
      <trkpt lat="45.03284" lon="5.59317">
        <ele>1915.8</ele>
        <time>2017-07-16T08:48:30Z</time>
      </trkpt>
      <trkpt lat="45.03278" lon="5.59318">
        <ele>1917</ele>
        <time>2017-07-16T08:48:41Z</time>
      </trkpt>
      <trkpt lat="45.03275" lon="5.59319">
        <ele>1918.2</ele>
        <time>2017-07-16T08:48:46Z</time>
      </trkpt>
      <trkpt lat="45.03272" lon="5.59318">
        <ele>1919.6</ele>
        <time>2017-07-16T08:48:50Z</time>
      </trkpt>
      <trkpt lat="45.03267" lon="5.59316">
        <ele>1920.6</ele>
        <time>2017-07-16T08:48:58Z</time>
      </trkpt>
      <trkpt lat="45.03267" lon="5.59311">
        <ele>1921.8</ele>
        <time>2017-07-16T08:49:12Z</time>
      </trkpt>
      <trkpt lat="45.03271" lon="5.59306">
        <ele>1922.8</ele>
        <time>2017-07-16T08:49:21Z</time>
      </trkpt>
      <trkpt lat="45.03272" lon="5.59304">
        <ele>1924</ele>
        <time>2017-07-16T08:49:24Z</time>
      </trkpt>
      <trkpt lat="45.03272" lon="5.59301">
        <ele>1925.2</ele>
        <time>2017-07-16T08:49:31Z</time>
      </trkpt>
      <trkpt lat="45.0327" lon="5.593">
        <ele>1926.2</ele>
        <time>2017-07-16T08:49:36Z</time>
      </trkpt>
      <trkpt lat="45.03268" lon="5.59299">
        <ele>1927.2</ele>
        <time>2017-07-16T08:49:42Z</time>
      </trkpt>
      <trkpt lat="45.03263" lon="5.59298">
        <ele>1928.2</ele>
        <time>2017-07-16T08:49:50Z</time>
      </trkpt>
      <trkpt lat="45.03258" lon="5.59296">
        <ele>1929.4</ele>
        <time>2017-07-16T08:50:01Z</time>
      </trkpt>
      <trkpt lat="45.03255" lon="5.59292">
        <ele>1930.8</ele>
        <time>2017-07-16T08:50:08Z</time>
      </trkpt>
      <trkpt lat="45.03255" lon="5.59291">
        <ele>1931.8</ele>
        <time>2017-07-16T08:50:11Z</time>
      </trkpt>
      <trkpt lat="45.03254" lon="5.59286">
        <ele>1933</ele>
        <time>2017-07-16T08:50:22Z</time>
      </trkpt>
      <trkpt lat="45.03254" lon="5.59284">
        <ele>1934.2</ele>
        <time>2017-07-16T08:50:29Z</time>
      </trkpt>
      <trkpt lat="45.03251" lon="5.59282">
        <ele>1935.2</ele>
        <time>2017-07-16T08:50:36Z</time>
      </trkpt>
      <trkpt lat="45.03249" lon="5.59278">
        <ele>1936.2</ele>
        <time>2017-07-16T08:50:43Z</time>
      </trkpt>
      <trkpt lat="45.03247" lon="5.59274">
        <ele>1937.4</ele>
        <time>2017-07-16T08:50:52Z</time>
      </trkpt>
      <trkpt lat="45.03247" lon="5.59272">
        <ele>1938.4</ele>
        <time>2017-07-16T08:50:57Z</time>
      </trkpt>
      <trkpt lat="45.03245" lon="5.5927">
        <ele>1939.4</ele>
        <time>2017-07-16T08:51:02Z</time>
      </trkpt>
      <trkpt lat="45.0325" lon="5.59267">
        <ele>1940.6</ele>
        <time>2017-07-16T08:51:35Z</time>
      </trkpt>
      <trkpt lat="45.03252" lon="5.59266">
        <ele>1941.6</ele>
        <time>2017-07-16T08:51:43Z</time>
      </trkpt>
      <trkpt lat="45.03253" lon="5.59266">
        <ele>1942.6</ele>
        <time>2017-07-16T08:51:47Z</time>
      </trkpt>
      <trkpt lat="45.03254" lon="5.59266">
        <ele>1943.8</ele>
        <time>2017-07-16T08:51:50Z</time>
      </trkpt>
      <trkpt lat="45.03255" lon="5.59265">
        <ele>1944.8</ele>
        <time>2017-07-16T08:51:53Z</time>
      </trkpt>
      <trkpt lat="45.03256" lon="5.59262">
        <ele>1946</ele>
        <time>2017-07-16T08:52:00Z</time>
      </trkpt>
      <trkpt lat="45.03256" lon="5.59258">
        <ele>1947</ele>
        <time>2017-07-16T08:52:07Z</time>
      </trkpt>
      <trkpt lat="45.03256" lon="5.59257">
        <ele>1948.2</ele>
        <time>2017-07-16T08:52:14Z</time>
      </trkpt>
      <trkpt lat="45.03261" lon="5.59252">
        <ele>1949.6</ele>
        <time>2017-07-16T08:52:32Z</time>
      </trkpt>
      <trkpt lat="45.03265" lon="5.59251">
        <ele>1950.6</ele>
        <time>2017-07-16T08:52:40Z</time>
      </trkpt>
      <trkpt lat="45.03266" lon="5.59249">
        <ele>1951.8</ele>
        <time>2017-07-16T08:52:44Z</time>
      </trkpt>
      <trkpt lat="45.0327" lon="5.59248">
        <ele>1953</ele>
        <time>2017-07-16T08:52:52Z</time>
      </trkpt>
      <trkpt lat="45.03272" lon="5.59245">
        <ele>1954</ele>
        <time>2017-07-16T08:53:02Z</time>
      </trkpt>
      <trkpt lat="45.03273" lon="5.59246">
        <ele>1955</ele>
        <time>2017-07-16T08:53:07Z</time>
      </trkpt>
      <trkpt lat="45.03276" lon="5.59247">
        <ele>1956.4</ele>
        <time>2017-07-16T08:53:14Z</time>
      </trkpt>
      <trkpt lat="45.03277" lon="5.59247">
        <ele>1957.6</ele>
        <time>2017-07-16T08:53:15Z</time>
      </trkpt>
      <trkpt lat="45.03281" lon="5.59243">
        <ele>1958.6</ele>
        <time>2017-07-16T08:53:24Z</time>
      </trkpt>
      <trkpt lat="45.03283" lon="5.59242">
        <ele>1959.8</ele>
        <time>2017-07-16T08:53:28Z</time>
      </trkpt>
      <trkpt lat="45.03285" lon="5.5924">
        <ele>1961.4</ele>
        <time>2017-07-16T08:53:33Z</time>
      </trkpt>
      <trkpt lat="45.03297" lon="5.59233">
        <ele>1962.8</ele>
        <time>2017-07-16T08:54:14Z</time>
      </trkpt>
      <trkpt lat="45.03299" lon="5.59229">
        <ele>1964.2</ele>
        <time>2017-07-16T08:54:19Z</time>
      </trkpt>
      <trkpt lat="45.03301" lon="5.59228">
        <ele>1965.2</ele>
        <time>2017-07-16T08:54:23Z</time>
      </trkpt>
      <trkpt lat="45.033" lon="5.59228">
        <ele>1966.4</ele>
        <time>2017-07-16T08:54:42Z</time>
      </trkpt>
      <trkpt lat="45.033" lon="5.59229">
        <ele>1965.4</ele>
        <time>2017-07-16T08:54:54Z</time>
      </trkpt>
      <trkpt lat="45.03301" lon="5.59227">
        <ele>1964</ele>
        <time>2017-07-16T08:57:11Z</time>
      </trkpt>
      <trkpt lat="45.033" lon="5.59227">
        <ele>1965.2</ele>
        <time>2017-07-16T08:58:38Z</time>
      </trkpt>
      <trkpt lat="45.033" lon="5.59227">
        <ele>1964</ele>
        <time>2017-07-16T08:59:02Z</time>
      </trkpt>
      <trkpt lat="45.03301" lon="5.59227">
        <ele>1965</ele>
        <time>2017-07-16T09:00:13Z</time>
      </trkpt>
      <trkpt lat="45.0331" lon="5.59226">
        <ele>1964</ele>
        <time>2017-07-16T09:02:34Z</time>
      </trkpt>
      <trkpt lat="45.03326" lon="5.5922">
        <ele>1965.2</ele>
        <time>2017-07-16T09:03:13Z</time>
      </trkpt>
      <trkpt lat="45.03329" lon="5.59219">
        <ele>1966.4</ele>
        <time>2017-07-16T09:03:19Z</time>
      </trkpt>
      <trkpt lat="45.03347" lon="5.5921">
        <ele>1967.4</ele>
        <time>2017-07-16T09:04:13Z</time>
      </trkpt>
      <trkpt lat="45.03349" lon="5.59207">
        <ele>1968.6</ele>
        <time>2017-07-16T09:04:17Z</time>
      </trkpt>
      <trkpt lat="45.03351" lon="5.59208">
        <ele>1967.4</ele>
        <time>2017-07-16T09:05:01Z</time>
      </trkpt>
      <trkpt lat="45.03369" lon="5.59209">
        <ele>1966.2</ele>
        <time>2017-07-16T09:05:38Z</time>
      </trkpt>
      <trkpt lat="45.0337" lon="5.59211">
        <ele>1965</ele>
        <time>2017-07-16T09:05:43Z</time>
      </trkpt>
      <trkpt lat="45.03368" lon="5.59214">
        <ele>1963.6</ele>
        <time>2017-07-16T09:05:50Z</time>
      </trkpt>
      <trkpt lat="45.0337" lon="5.59215">
        <ele>1962.4</ele>
        <time>2017-07-16T09:06:02Z</time>
      </trkpt>
      <trkpt lat="45.03372" lon="5.59215">
        <ele>1961.2</ele>
        <time>2017-07-16T09:06:11Z</time>
      </trkpt>
      <trkpt lat="45.03371" lon="5.59218">
        <ele>1960</ele>
        <time>2017-07-16T09:06:19Z</time>
      </trkpt>
      <trkpt lat="45.0337" lon="5.5922">
        <ele>1958.8</ele>
        <time>2017-07-16T09:06:27Z</time>
      </trkpt>
      <trkpt lat="45.03375" lon="5.59221">
        <ele>1957.6</ele>
        <time>2017-07-16T09:06:35Z</time>
      </trkpt>
      <trkpt lat="45.03378" lon="5.59222">
        <ele>1956.2</ele>
        <time>2017-07-16T09:06:38Z</time>
      </trkpt>
      <trkpt lat="45.03381" lon="5.59223">
        <ele>1955.2</ele>
        <time>2017-07-16T09:06:43Z</time>
      </trkpt>
      <trkpt lat="45.03385" lon="5.59224">
        <ele>1954</ele>
        <time>2017-07-16T09:06:53Z</time>
      </trkpt>
      <trkpt lat="45.03386" lon="5.59226">
        <ele>1953</ele>
        <time>2017-07-16T09:06:57Z</time>
      </trkpt>
      <trkpt lat="45.03385" lon="5.59228">
        <ele>1952</ele>
        <time>2017-07-16T09:07:01Z</time>
      </trkpt>
      <trkpt lat="45.03386" lon="5.59229">
        <ele>1950.8</ele>
        <time>2017-07-16T09:07:04Z</time>
      </trkpt>
      <trkpt lat="45.03389" lon="5.59232">
        <ele>1949.8</ele>
        <time>2017-07-16T09:07:09Z</time>
      </trkpt>
      <trkpt lat="45.03392" lon="5.59234">
        <ele>1949.6</ele>
        <time>2017-07-16T09:07:12Z</time>
      </trkpt>
      <trkpt lat="45.03394" lon="5.59235">
        <ele>1949.4</ele>
        <time>2017-07-16T09:07:15Z</time>
      </trkpt>
      <trkpt lat="45.03396" lon="5.59236">
        <ele>1948.8</ele>
        <time>2017-07-16T09:07:23Z</time>
      </trkpt>
      <trkpt lat="45.03404" lon="5.59235">
        <ele>1949.8</ele>
        <time>2017-07-16T09:08:15Z</time>
      </trkpt>
      <trkpt lat="45.03404" lon="5.59236">
        <ele>1950.8</ele>
        <time>2017-07-16T09:08:20Z</time>
      </trkpt>
      <trkpt lat="45.03407" lon="5.59233">
        <ele>1949.8</ele>
        <time>2017-07-16T09:08:37Z</time>
      </trkpt>
      <trkpt lat="45.03408" lon="5.59235">
        <ele>1951</ele>
        <time>2017-07-16T09:10:12Z</time>
      </trkpt>
      <trkpt lat="45.03416" lon="5.59235">
        <ele>1949.8</ele>
        <time>2017-07-16T09:10:45Z</time>
      </trkpt>
      <trkpt lat="45.0342" lon="5.59235">
        <ele>1948.4</ele>
        <time>2017-07-16T09:10:59Z</time>
      </trkpt>
      <trkpt lat="45.0343" lon="5.59234">
        <ele>1949.6</ele>
        <time>2017-07-16T09:11:25Z</time>
      </trkpt>
      <trkpt lat="45.03432" lon="5.59233">
        <ele>1951</ele>
        <time>2017-07-16T09:11:28Z</time>
      </trkpt>
      <trkpt lat="45.03434" lon="5.59232">
        <ele>1952</ele>
        <time>2017-07-16T09:11:34Z</time>
      </trkpt>
      <trkpt lat="45.03436" lon="5.59231">
        <ele>1953.4</ele>
        <time>2017-07-16T09:11:44Z</time>
      </trkpt>
      <trkpt lat="45.03437" lon="5.5923">
        <ele>1954.4</ele>
        <time>2017-07-16T09:11:47Z</time>
      </trkpt>
      <trkpt lat="45.03437" lon="5.59229">
        <ele>1955.8</ele>
        <time>2017-07-16T09:11:50Z</time>
      </trkpt>
      <trkpt lat="45.03438" lon="5.59228">
        <ele>1957</ele>
        <time>2017-07-16T09:11:52Z</time>
      </trkpt>
      <trkpt lat="45.0344" lon="5.5923">
        <ele>1955.8</ele>
        <time>2017-07-16T09:12:34Z</time>
      </trkpt>
      <trkpt lat="45.03442" lon="5.59229">
        <ele>1957</ele>
        <time>2017-07-16T09:12:46Z</time>
      </trkpt>
      <trkpt lat="45.03459" lon="5.59224">
        <ele>1955.8</ele>
        <time>2017-07-16T09:13:25Z</time>
      </trkpt>
      <trkpt lat="45.03463" lon="5.59221">
        <ele>1954.8</ele>
        <time>2017-07-16T09:13:43Z</time>
      </trkpt>
      <trkpt lat="45.03467" lon="5.59218">
        <ele>1953.8</ele>
        <time>2017-07-16T09:14:01Z</time>
      </trkpt>
      <trkpt lat="45.03469" lon="5.59217">
        <ele>1952.6</ele>
        <time>2017-07-16T09:14:09Z</time>
      </trkpt>
      <trkpt lat="45.03476" lon="5.59218">
        <ele>1953.8</ele>
        <time>2017-07-16T09:14:50Z</time>
      </trkpt>
      <trkpt lat="45.03482" lon="5.59212">
        <ele>1955.2</ele>
        <time>2017-07-16T09:15:27Z</time>
      </trkpt>
      <trkpt lat="45.03485" lon="5.59211">
        <ele>1956.4</ele>
        <time>2017-07-16T09:15:35Z</time>
      </trkpt>
      <trkpt lat="45.03488" lon="5.59209">
        <ele>1957.6</ele>
        <time>2017-07-16T09:15:41Z</time>
      </trkpt>
      <trkpt lat="45.03497" lon="5.59208">
        <ele>1958.4</ele>
        <time>2017-07-16T09:16:06Z</time>
      </trkpt>
      <trkpt lat="45.03513" lon="5.59206">
        <ele>1959</ele>
        <time>2017-07-16T09:16:35Z</time>
      </trkpt>
      <trkpt lat="45.03514" lon="5.59207">
        <ele>1960.2</ele>
        <time>2017-07-16T09:16:38Z</time>
      </trkpt>
      <trkpt lat="45.03521" lon="5.59206">
        <ele>1961.8</ele>
        <time>2017-07-16T09:16:50Z</time>
      </trkpt>
      <trkpt lat="45.03523" lon="5.59206">
        <ele>1960.6</ele>
        <time>2017-07-16T09:16:52Z</time>
      </trkpt>
      <trkpt lat="45.03526" lon="5.5921">
        <ele>1960.6</ele>
        <time>2017-07-16T09:16:57Z</time>
      </trkpt>
      <trkpt lat="45.0353" lon="5.59211">
        <ele>1960.8</ele>
        <time>2017-07-16T09:17:02Z</time>
      </trkpt>
      <trkpt lat="45.03531" lon="5.59212">
        <ele>1959.4</ele>
        <time>2017-07-16T09:17:05Z</time>
      </trkpt>
      <trkpt lat="45.03535" lon="5.59215">
        <ele>1958.4</ele>
        <time>2017-07-16T09:17:28Z</time>
      </trkpt>
      <trkpt lat="45.03541" lon="5.59217">
        <ele>1957.4</ele>
        <time>2017-07-16T09:17:40Z</time>
      </trkpt>
      <trkpt lat="45.03541" lon="5.59217">
        <ele>1958.4</ele>
        <time>2017-07-16T09:17:45Z</time>
      </trkpt>
      <trkpt lat="45.03541" lon="5.59218">
        <ele>1957.2</ele>
        <time>2017-07-16T09:17:49Z</time>
      </trkpt>
      <trkpt lat="45.03542" lon="5.5922">
        <ele>1956.2</ele>
        <time>2017-07-16T09:18:33Z</time>
      </trkpt>
      <trkpt lat="45.03543" lon="5.5922">
        <ele>1955.2</ele>
        <time>2017-07-16T09:18:52Z</time>
      </trkpt>
      <trkpt lat="45.03544" lon="5.5922">
        <ele>1954</ele>
        <time>2017-07-16T09:19:09Z</time>
      </trkpt>
      <trkpt lat="45.03545" lon="5.59219">
        <ele>1953</ele>
        <time>2017-07-16T09:19:23Z</time>
      </trkpt>
      <trkpt lat="45.03546" lon="5.5922">
        <ele>1951.8</ele>
        <time>2017-07-16T09:19:33Z</time>
      </trkpt>
      <trkpt lat="45.03546" lon="5.5922">
        <ele>1950.8</ele>
        <time>2017-07-16T09:19:44Z</time>
      </trkpt>
      <trkpt lat="45.03547" lon="5.59221">
        <ele>1949.8</ele>
        <time>2017-07-16T09:19:53Z</time>
      </trkpt>
      <trkpt lat="45.03547" lon="5.59222">
        <ele>1948.6</ele>
        <time>2017-07-16T09:19:58Z</time>
      </trkpt>
      <trkpt lat="45.03548" lon="5.59222">
        <ele>1947.6</ele>
        <time>2017-07-16T09:20:03Z</time>
      </trkpt>
      <trkpt lat="45.0355" lon="5.59222">
        <ele>1946.6</ele>
        <time>2017-07-16T09:20:09Z</time>
      </trkpt>
      <trkpt lat="45.0355" lon="5.59223">
        <ele>1945.6</ele>
        <time>2017-07-16T09:20:17Z</time>
      </trkpt>
      <trkpt lat="45.03554" lon="5.59224">
        <ele>1944.4</ele>
        <time>2017-07-16T09:20:21Z</time>
      </trkpt>
      <trkpt lat="45.03556" lon="5.59225">
        <ele>1944.4</ele>
        <time>2017-07-16T09:20:23Z</time>
      </trkpt>
      <trkpt lat="45.0356" lon="5.59228">
        <ele>1943.4</ele>
        <time>2017-07-16T09:20:40Z</time>
      </trkpt>
      <trkpt lat="45.03564" lon="5.59229">
        <ele>1942.2</ele>
        <time>2017-07-16T09:20:46Z</time>
      </trkpt>
      <trkpt lat="45.03566" lon="5.5923">
        <ele>1941.2</ele>
        <time>2017-07-16T09:21:11Z</time>
      </trkpt>
      <trkpt lat="45.03567" lon="5.59231">
        <ele>1940.2</ele>
        <time>2017-07-16T09:21:19Z</time>
      </trkpt>
      <trkpt lat="45.03569" lon="5.59232">
        <ele>1939</ele>
        <time>2017-07-16T09:21:30Z</time>
      </trkpt>
      <trkpt lat="45.03571" lon="5.59232">
        <ele>1938</ele>
        <time>2017-07-16T09:21:38Z</time>
      </trkpt>
      <trkpt lat="45.03575" lon="5.59233">
        <ele>1936.8</ele>
        <time>2017-07-16T09:22:00Z</time>
      </trkpt>
      <trkpt lat="45.03577" lon="5.59235">
        <ele>1935.4</ele>
        <time>2017-07-16T09:22:06Z</time>
      </trkpt>
      <trkpt lat="45.03579" lon="5.59236">
        <ele>1934.4</ele>
        <time>2017-07-16T09:22:16Z</time>
      </trkpt>
      <trkpt lat="45.03579" lon="5.59238">
        <ele>1933.4</ele>
        <time>2017-07-16T09:22:25Z</time>
      </trkpt>
      <trkpt lat="45.03581" lon="5.59239">
        <ele>1932.2</ele>
        <time>2017-07-16T09:22:36Z</time>
      </trkpt>
      <trkpt lat="45.03583" lon="5.59241">
        <ele>1931.2</ele>
        <time>2017-07-16T09:22:40Z</time>
      </trkpt>
      <trkpt lat="45.03584" lon="5.59243">
        <ele>1930.2</ele>
        <time>2017-07-16T09:22:45Z</time>
      </trkpt>
      <trkpt lat="45.03587" lon="5.59243">
        <ele>1929.2</ele>
        <time>2017-07-16T09:23:00Z</time>
      </trkpt>
      <trkpt lat="45.03591" lon="5.59245">
        <ele>1928</ele>
        <time>2017-07-16T09:23:10Z</time>
      </trkpt>
      <trkpt lat="45.03593" lon="5.59246">
        <ele>1927</ele>
        <time>2017-07-16T09:23:33Z</time>
      </trkpt>
      <trkpt lat="45.03596" lon="5.59247">
        <ele>1925.8</ele>
        <time>2017-07-16T09:23:38Z</time>
      </trkpt>
      <trkpt lat="45.03599" lon="5.59251">
        <ele>1924.6</ele>
        <time>2017-07-16T09:23:43Z</time>
      </trkpt>
      <trkpt lat="45.03602" lon="5.59253">
        <ele>1924.8</ele>
        <time>2017-07-16T09:23:45Z</time>
      </trkpt>
      <trkpt lat="45.03606" lon="5.59255">
        <ele>1923.6</ele>
        <time>2017-07-16T09:24:06Z</time>
      </trkpt>
      <trkpt lat="45.03613" lon="5.59253">
        <ele>1924.8</ele>
        <time>2017-07-16T09:25:21Z</time>
      </trkpt>
      <trkpt lat="45.03627" lon="5.59248">
        <ele>1925.8</ele>
        <time>2017-07-16T09:26:08Z</time>
      </trkpt>
      <trkpt lat="45.0363" lon="5.59249">
        <ele>1924.8</ele>
        <time>2017-07-16T09:26:27Z</time>
      </trkpt>
      <trkpt lat="45.03632" lon="5.5925">
        <ele>1923.6</ele>
        <time>2017-07-16T09:26:49Z</time>
      </trkpt>
      <trkpt lat="45.03632" lon="5.59251">
        <ele>1922.6</ele>
        <time>2017-07-16T09:26:54Z</time>
      </trkpt>
      <trkpt lat="45.03635" lon="5.59253">
        <ele>1921.4</ele>
        <time>2017-07-16T09:27:04Z</time>
      </trkpt>
      <trkpt lat="45.03638" lon="5.59253">
        <ele>1920.2</ele>
        <time>2017-07-16T09:27:13Z</time>
      </trkpt>
      <trkpt lat="45.03639" lon="5.59254">
        <ele>1919</ele>
        <time>2017-07-16T09:27:18Z</time>
      </trkpt>
      <trkpt lat="45.03641" lon="5.59256">
        <ele>1918</ele>
        <time>2017-07-16T09:27:25Z</time>
      </trkpt>
      <trkpt lat="45.03641" lon="5.59258">
        <ele>1917</ele>
        <time>2017-07-16T09:27:29Z</time>
      </trkpt>
      <trkpt lat="45.03641" lon="5.5926">
        <ele>1915.8</ele>
        <time>2017-07-16T09:27:32Z</time>
      </trkpt>
      <trkpt lat="45.03643" lon="5.59262">
        <ele>1914.6</ele>
        <time>2017-07-16T09:27:36Z</time>
      </trkpt>
      <trkpt lat="45.03648" lon="5.59265">
        <ele>1913.4</ele>
        <time>2017-07-16T09:28:01Z</time>
      </trkpt>
      <trkpt lat="45.03652" lon="5.59272">
        <ele>1912.4</ele>
        <time>2017-07-16T09:28:24Z</time>
      </trkpt>
      <trkpt lat="45.03662" lon="5.59277">
        <ele>1913.6</ele>
        <time>2017-07-16T09:28:50Z</time>
      </trkpt>
      <trkpt lat="45.03668" lon="5.59278">
        <ele>1914.8</ele>
        <time>2017-07-16T09:29:07Z</time>
      </trkpt>
      <trkpt lat="45.03673" lon="5.59279">
        <ele>1915.8</ele>
        <time>2017-07-16T09:29:24Z</time>
      </trkpt>
      <trkpt lat="45.03677" lon="5.59278">
        <ele>1917</ele>
        <time>2017-07-16T09:29:30Z</time>
      </trkpt>
      <trkpt lat="45.03685" lon="5.5928">
        <ele>1918</ele>
        <time>2017-07-16T09:29:51Z</time>
      </trkpt>
      <trkpt lat="45.03685" lon="5.5928">
        <ele>1919.2</ele>
        <time>2017-07-16T09:30:29Z</time>
      </trkpt>
      <trkpt lat="45.03688" lon="5.59279">
        <ele>1920.2</ele>
        <time>2017-07-16T09:30:38Z</time>
      </trkpt>
      <trkpt lat="45.03692" lon="5.59279">
        <ele>1921.4</ele>
        <time>2017-07-16T09:30:44Z</time>
      </trkpt>
      <trkpt lat="45.03697" lon="5.59286">
        <ele>1922.4</ele>
        <time>2017-07-16T09:30:57Z</time>
      </trkpt>
      <trkpt lat="45.03699" lon="5.59287">
        <ele>1923.6</ele>
        <time>2017-07-16T09:31:01Z</time>
      </trkpt>
      <trkpt lat="45.03702" lon="5.59285">
        <ele>1924.8</ele>
        <time>2017-07-16T09:32:21Z</time>
      </trkpt>
      <trkpt lat="45.03705" lon="5.59281">
        <ele>1926.2</ele>
        <time>2017-07-16T09:32:29Z</time>
      </trkpt>
      <trkpt lat="45.03706" lon="5.5928">
        <ele>1927.2</ele>
        <time>2017-07-16T09:32:34Z</time>
      </trkpt>
      <trkpt lat="45.03706" lon="5.59281">
        <ele>1928.4</ele>
        <time>2017-07-16T09:32:38Z</time>
      </trkpt>
      <trkpt lat="45.03706" lon="5.59283">
        <ele>1929.4</ele>
        <time>2017-07-16T09:32:42Z</time>
      </trkpt>
      <trkpt lat="45.03708" lon="5.59283">
        <ele>1930.8</ele>
        <time>2017-07-16T09:32:47Z</time>
      </trkpt>
      <trkpt lat="45.0371" lon="5.59282">
        <ele>1932</ele>
        <time>2017-07-16T09:32:54Z</time>
      </trkpt>
      <trkpt lat="45.03711" lon="5.59283">
        <ele>1933</ele>
        <time>2017-07-16T09:32:59Z</time>
      </trkpt>
      <trkpt lat="45.03712" lon="5.59283">
        <ele>1934.2</ele>
        <time>2017-07-16T09:33:05Z</time>
      </trkpt>
      <trkpt lat="45.03714" lon="5.59284">
        <ele>1935.2</ele>
        <time>2017-07-16T09:33:11Z</time>
      </trkpt>
      <trkpt lat="45.03721" lon="5.59283">
        <ele>1936.6</ele>
        <time>2017-07-16T09:33:22Z</time>
      </trkpt>
      <trkpt lat="45.0373" lon="5.59282">
        <ele>1937.6</ele>
        <time>2017-07-16T09:33:36Z</time>
      </trkpt>
      <trkpt lat="45.03737" lon="5.59286">
        <ele>1936.6</ele>
        <time>2017-07-16T09:34:14Z</time>
      </trkpt>
      <trkpt lat="45.0374" lon="5.59289">
        <ele>1935.4</ele>
        <time>2017-07-16T09:34:25Z</time>
      </trkpt>
      <trkpt lat="45.03745" lon="5.59291">
        <ele>1934.4</ele>
        <time>2017-07-16T09:34:33Z</time>
      </trkpt>
      <trkpt lat="45.03748" lon="5.59293">
        <ele>1933.4</ele>
        <time>2017-07-16T09:34:58Z</time>
      </trkpt>
      <trkpt lat="45.03749" lon="5.59294">
        <ele>1932</ele>
        <time>2017-07-16T09:35:06Z</time>
      </trkpt>
      <trkpt lat="45.03749" lon="5.59297">
        <ele>1930.6</ele>
        <time>2017-07-16T09:35:10Z</time>
      </trkpt>
      <trkpt lat="45.03763" lon="5.59302">
        <ele>1931.8</ele>
        <time>2017-07-16T09:35:52Z</time>
      </trkpt>
      <trkpt lat="45.03768" lon="5.59303">
        <ele>1932.8</ele>
        <time>2017-07-16T09:36:05Z</time>
      </trkpt>
      <trkpt lat="45.03769" lon="5.59302">
        <ele>1931.6</ele>
        <time>2017-07-16T09:36:23Z</time>
      </trkpt>
      <trkpt lat="45.03774" lon="5.59299">
        <ele>1931.8</ele>
        <time>2017-07-16T09:36:32Z</time>
      </trkpt>
      <trkpt lat="45.0378" lon="5.593">
        <ele>1930.6</ele>
        <time>2017-07-16T09:36:53Z</time>
      </trkpt>
      <trkpt lat="45.03785" lon="5.59301">
        <ele>1931.6</ele>
        <time>2017-07-16T09:37:01Z</time>
      </trkpt>
      <trkpt lat="45.03788" lon="5.59301">
        <ele>1932.8</ele>
        <time>2017-07-16T09:37:10Z</time>
      </trkpt>
      <trkpt lat="45.03794" lon="5.59299">
        <ele>1933.8</ele>
        <time>2017-07-16T09:37:20Z</time>
      </trkpt>
      <trkpt lat="45.03796" lon="5.59298">
        <ele>1935</ele>
        <time>2017-07-16T09:38:50Z</time>
      </trkpt>
      <trkpt lat="45.03799" lon="5.593">
        <ele>1934</ele>
        <time>2017-07-16T09:39:46Z</time>
      </trkpt>
      <trkpt lat="45.038" lon="5.59304">
        <ele>1932.8</ele>
        <time>2017-07-16T09:39:56Z</time>
      </trkpt>
      <trkpt lat="45.03802" lon="5.59306">
        <ele>1931.8</ele>
        <time>2017-07-16T09:40:03Z</time>
      </trkpt>
      <trkpt lat="45.03805" lon="5.59308">
        <ele>1930.8</ele>
        <time>2017-07-16T09:40:11Z</time>
      </trkpt>
      <trkpt lat="45.03809" lon="5.59309">
        <ele>1931.6</ele>
        <time>2017-07-16T09:40:18Z</time>
      </trkpt>
      <trkpt lat="45.03811" lon="5.59309">
        <ele>1931.8</ele>
        <time>2017-07-16T09:40:24Z</time>
      </trkpt>
      <trkpt lat="45.03814" lon="5.59312">
        <ele>1930.6</ele>
        <time>2017-07-16T09:40:37Z</time>
      </trkpt>
      <trkpt lat="45.03814" lon="5.59311">
        <ele>1929.6</ele>
        <time>2017-07-16T09:40:42Z</time>
      </trkpt>
      <trkpt lat="45.03819" lon="5.59309">
        <ele>1929</ele>
        <time>2017-07-16T09:40:48Z</time>
      </trkpt>
      <trkpt lat="45.03831" lon="5.59311">
        <ele>1930.6</ele>
        <time>2017-07-16T09:40:59Z</time>
      </trkpt>
      <trkpt lat="45.03836" lon="5.59314">
        <ele>1931.6</ele>
        <time>2017-07-16T09:41:05Z</time>
      </trkpt>
      <trkpt lat="45.03846" lon="5.59322">
        <ele>1930.6</ele>
        <time>2017-07-16T09:41:32Z</time>
      </trkpt>
      <trkpt lat="45.03851" lon="5.59327">
        <ele>1929.4</ele>
        <time>2017-07-16T09:42:04Z</time>
      </trkpt>
      <trkpt lat="45.03851" lon="5.59329">
        <ele>1928.2</ele>
        <time>2017-07-16T09:42:16Z</time>
      </trkpt>
      <trkpt lat="45.03855" lon="5.59332">
        <ele>1927</ele>
        <time>2017-07-16T09:42:27Z</time>
      </trkpt>
      <trkpt lat="45.03858" lon="5.59335">
        <ele>1926.2</ele>
        <time>2017-07-16T09:42:38Z</time>
      </trkpt>
      <trkpt lat="45.03861" lon="5.59337">
        <ele>1925</ele>
        <time>2017-07-16T09:42:42Z</time>
      </trkpt>
      <trkpt lat="45.03868" lon="5.59342">
        <ele>1923.8</ele>
        <time>2017-07-16T09:43:16Z</time>
      </trkpt>
      <trkpt lat="45.0387" lon="5.59341">
        <ele>1922.8</ele>
        <time>2017-07-16T09:43:24Z</time>
      </trkpt>
      <trkpt lat="45.03873" lon="5.59339">
        <ele>1921.6</ele>
        <time>2017-07-16T09:43:36Z</time>
      </trkpt>
      <trkpt lat="45.03876" lon="5.59341">
        <ele>1920.6</ele>
        <time>2017-07-16T09:43:42Z</time>
      </trkpt>
      <trkpt lat="45.03878" lon="5.59343">
        <ele>1919.6</ele>
        <time>2017-07-16T09:43:46Z</time>
      </trkpt>
      <trkpt lat="45.03882" lon="5.59345">
        <ele>1918.4</ele>
        <time>2017-07-16T09:43:52Z</time>
      </trkpt>
      <trkpt lat="45.03885" lon="5.59348">
        <ele>1917.4</ele>
        <time>2017-07-16T09:44:28Z</time>
      </trkpt>
      <trkpt lat="45.03887" lon="5.59348">
        <ele>1916.2</ele>
        <time>2017-07-16T09:44:35Z</time>
      </trkpt>
      <trkpt lat="45.03887" lon="5.59351">
        <ele>1915.2</ele>
        <time>2017-07-16T09:45:05Z</time>
      </trkpt>
      <trkpt lat="45.03889" lon="5.59355">
        <ele>1914</ele>
        <time>2017-07-16T09:45:46Z</time>
      </trkpt>
      <trkpt lat="45.0389" lon="5.59357">
        <ele>1912.8</ele>
        <time>2017-07-16T09:46:00Z</time>
      </trkpt>
      <trkpt lat="45.03892" lon="5.59361">
        <ele>1911.8</ele>
        <time>2017-07-16T09:46:27Z</time>
      </trkpt>
      <trkpt lat="45.03893" lon="5.59363">
        <ele>1910.8</ele>
        <time>2017-07-16T09:46:33Z</time>
      </trkpt>
      <trkpt lat="45.03894" lon="5.59364">
        <ele>1909.6</ele>
        <time>2017-07-16T09:46:47Z</time>
      </trkpt>
      <trkpt lat="45.03898" lon="5.59367">
        <ele>1908.6</ele>
        <time>2017-07-16T09:47:30Z</time>
      </trkpt>
      <trkpt lat="45.03897" lon="5.59365">
        <ele>1907.6</ele>
        <time>2017-07-16T09:47:48Z</time>
      </trkpt>
      <trkpt lat="45.039" lon="5.59363">
        <ele>1906.2</ele>
        <time>2017-07-16T09:47:58Z</time>
      </trkpt>
      <trkpt lat="45.039" lon="5.59365">
        <ele>1905</ele>
        <time>2017-07-16T09:48:02Z</time>
      </trkpt>
      <trkpt lat="45.039" lon="5.59368">
        <ele>1903.8</ele>
        <time>2017-07-16T09:48:05Z</time>
      </trkpt>
      <trkpt lat="45.039" lon="5.59369">
        <ele>1903.6</ele>
        <time>2017-07-16T09:48:06Z</time>
      </trkpt>
      <trkpt lat="45.03899" lon="5.59368">
        <ele>1902.8</ele>
        <time>2017-07-16T09:48:20Z</time>
      </trkpt>
      <trkpt lat="45.03909" lon="5.59373">
        <ele>1901.6</ele>
        <time>2017-07-16T09:49:12Z</time>
      </trkpt>
      <trkpt lat="45.03911" lon="5.59375">
        <ele>1900.6</ele>
        <time>2017-07-16T09:49:17Z</time>
      </trkpt>
      <trkpt lat="45.03917" lon="5.59377">
        <ele>1899.4</ele>
        <time>2017-07-16T09:49:30Z</time>
      </trkpt>
      <trkpt lat="45.03918" lon="5.59378">
        <ele>1898.4</ele>
        <time>2017-07-16T09:49:42Z</time>
      </trkpt>
      <trkpt lat="45.03921" lon="5.59385">
        <ele>1897.8</ele>
        <time>2017-07-16T09:49:49Z</time>
      </trkpt>
      <trkpt lat="45.03924" lon="5.59388">
        <ele>1898.6</ele>
        <time>2017-07-16T09:49:53Z</time>
      </trkpt>
      <trkpt lat="45.03925" lon="5.59389">
        <ele>1899</ele>
        <time>2017-07-16T09:49:55Z</time>
      </trkpt>
      <trkpt lat="45.03925" lon="5.59388">
        <ele>1899.6</ele>
        <time>2017-07-16T09:50:00Z</time>
      </trkpt>
      <trkpt lat="45.03927" lon="5.59388">
        <ele>1900.6</ele>
        <time>2017-07-16T09:50:06Z</time>
      </trkpt>
      <trkpt lat="45.03932" lon="5.59387">
        <ele>1899.4</ele>
        <time>2017-07-16T09:50:37Z</time>
      </trkpt>
      <trkpt lat="45.03943" lon="5.59385">
        <ele>1898.4</ele>
        <time>2017-07-16T09:52:03Z</time>
      </trkpt>
      <trkpt lat="45.03946" lon="5.59387">
        <ele>1897.2</ele>
        <time>2017-07-16T09:52:07Z</time>
      </trkpt>
      <trkpt lat="45.0395" lon="5.59387">
        <ele>1896.2</ele>
        <time>2017-07-16T09:52:14Z</time>
      </trkpt>
      <trkpt lat="45.03952" lon="5.59387">
        <ele>1895</ele>
        <time>2017-07-16T09:52:18Z</time>
      </trkpt>
      <trkpt lat="45.03955" lon="5.59387">
        <ele>1894</ele>
        <time>2017-07-16T09:52:22Z</time>
      </trkpt>
      <trkpt lat="45.03972" lon="5.59381">
        <ele>1895</ele>
        <time>2017-07-16T09:52:47Z</time>
      </trkpt>
      <trkpt lat="45.03973" lon="5.59382">
        <ele>1896.4</ele>
        <time>2017-07-16T09:52:51Z</time>
      </trkpt>
      <trkpt lat="45.03977" lon="5.59382">
        <ele>1897.4</ele>
        <time>2017-07-16T09:52:56Z</time>
      </trkpt>
      <trkpt lat="45.03981" lon="5.59384">
        <ele>1898.4</ele>
        <time>2017-07-16T09:53:02Z</time>
      </trkpt>
      <trkpt lat="45.03983" lon="5.59384">
        <ele>1899.4</ele>
        <time>2017-07-16T09:53:12Z</time>
      </trkpt>
      <trkpt lat="45.03984" lon="5.59386">
        <ele>1900.6</ele>
        <time>2017-07-16T09:53:36Z</time>
      </trkpt>
      <trkpt lat="45.03989" lon="5.59389">
        <ele>1901.8</ele>
        <time>2017-07-16T09:53:43Z</time>
      </trkpt>
      <trkpt lat="45.03992" lon="5.5939">
        <ele>1902.8</ele>
        <time>2017-07-16T09:53:51Z</time>
      </trkpt>
      <trkpt lat="45.03994" lon="5.59391">
        <ele>1903.8</ele>
        <time>2017-07-16T09:53:55Z</time>
      </trkpt>
      <trkpt lat="45.03996" lon="5.59389">
        <ele>1905</ele>
        <time>2017-07-16T09:54:00Z</time>
      </trkpt>
      <trkpt lat="45.03997" lon="5.59391">
        <ele>1906.2</ele>
        <time>2017-07-16T09:54:06Z</time>
      </trkpt>
      <trkpt lat="45.03999" lon="5.59392">
        <ele>1907.4</ele>
        <time>2017-07-16T09:54:11Z</time>
      </trkpt>
      <trkpt lat="45.04" lon="5.59393">
        <ele>1908.6</ele>
        <time>2017-07-16T09:54:17Z</time>
      </trkpt>
      <trkpt lat="45.04005" lon="5.59395">
        <ele>1909.8</ele>
        <time>2017-07-16T09:54:51Z</time>
      </trkpt>
      <trkpt lat="45.0401" lon="5.59397">
        <ele>1910.2</ele>
        <time>2017-07-16T09:54:56Z</time>
      </trkpt>
      <trkpt lat="45.04011" lon="5.59397">
        <ele>1910.4</ele>
        <time>2017-07-16T09:54:58Z</time>
      </trkpt>
      <trkpt lat="45.04012" lon="5.59398">
        <ele>1910.8</ele>
        <time>2017-07-16T09:55:00Z</time>
      </trkpt>
      <trkpt lat="45.04026" lon="5.59405">
        <ele>1909.6</ele>
        <time>2017-07-16T09:56:22Z</time>
      </trkpt>
      <trkpt lat="45.04029" lon="5.59408">
        <ele>1908.4</ele>
        <time>2017-07-16T09:56:50Z</time>
      </trkpt>
      <trkpt lat="45.04043" lon="5.59413">
        <ele>1908.2</ele>
        <time>2017-07-16T09:57:37Z</time>
      </trkpt>
      <trkpt lat="45.04044" lon="5.59414">
        <ele>1908</ele>
        <time>2017-07-16T09:57:39Z</time>
      </trkpt>
      <trkpt lat="45.04046" lon="5.59415">
        <ele>1907.2</ele>
        <time>2017-07-16T09:57:44Z</time>
      </trkpt>
      <trkpt lat="45.0405" lon="5.59418">
        <ele>1906.2</ele>
        <time>2017-07-16T09:57:50Z</time>
      </trkpt>
      <trkpt lat="45.04054" lon="5.59421">
        <ele>1907.4</ele>
        <time>2017-07-16T09:58:03Z</time>
      </trkpt>
      <trkpt lat="45.04055" lon="5.59422">
        <ele>1906.4</ele>
        <time>2017-07-16T09:58:29Z</time>
      </trkpt>
      <trkpt lat="45.04056" lon="5.59422">
        <ele>1905.2</ele>
        <time>2017-07-16T09:58:37Z</time>
      </trkpt>
      <trkpt lat="45.04057" lon="5.59423">
        <ele>1904.2</ele>
        <time>2017-07-16T09:58:45Z</time>
      </trkpt>
      <trkpt lat="45.04062" lon="5.59425">
        <ele>1903.4</ele>
        <time>2017-07-16T09:58:51Z</time>
      </trkpt>
      <trkpt lat="45.04064" lon="5.59425">
        <ele>1903.2</ele>
        <time>2017-07-16T09:58:54Z</time>
      </trkpt>
      <trkpt lat="45.0407" lon="5.59425">
        <ele>1901.6</ele>
        <time>2017-07-16T09:59:11Z</time>
      </trkpt>
      <trkpt lat="45.04072" lon="5.59426">
        <ele>1900.6</ele>
        <time>2017-07-16T09:59:14Z</time>
      </trkpt>
      <trkpt lat="45.04076" lon="5.59427">
        <ele>1899.6</ele>
        <time>2017-07-16T09:59:18Z</time>
      </trkpt>
      <trkpt lat="45.04084" lon="5.59431">
        <ele>1901</ele>
        <time>2017-07-16T09:59:31Z</time>
      </trkpt>
      <trkpt lat="45.04092" lon="5.59434">
        <ele>1900.6</ele>
        <time>2017-07-16T09:59:44Z</time>
      </trkpt>
      <trkpt lat="45.04099" lon="5.59435">
        <ele>1899.8</ele>
        <time>2017-07-16T10:00:23Z</time>
      </trkpt>
      <trkpt lat="45.04102" lon="5.59437">
        <ele>1898.8</ele>
        <time>2017-07-16T10:00:29Z</time>
      </trkpt>
      <trkpt lat="45.04108" lon="5.5944">
        <ele>1897.8</ele>
        <time>2017-07-16T10:00:43Z</time>
      </trkpt>
      <trkpt lat="45.04113" lon="5.59442">
        <ele>1896.6</ele>
        <time>2017-07-16T10:00:52Z</time>
      </trkpt>
      <trkpt lat="45.04114" lon="5.59444">
        <ele>1895.6</ele>
        <time>2017-07-16T10:01:07Z</time>
      </trkpt>
      <trkpt lat="45.04132" lon="5.59438">
        <ele>1896.6</ele>
        <time>2017-07-16T10:01:46Z</time>
      </trkpt>
      <trkpt lat="45.04143" lon="5.59436">
        <ele>1897.8</ele>
        <time>2017-07-16T10:02:31Z</time>
      </trkpt>
      <trkpt lat="45.04145" lon="5.59434">
        <ele>1898.8</ele>
        <time>2017-07-16T10:02:38Z</time>
      </trkpt>
      <trkpt lat="45.04151" lon="5.59435">
        <ele>1900</ele>
        <time>2017-07-16T10:02:50Z</time>
      </trkpt>
      <trkpt lat="45.04158" lon="5.59431">
        <ele>1901</ele>
        <time>2017-07-16T10:03:28Z</time>
      </trkpt>
      <trkpt lat="45.04156" lon="5.59429">
        <ele>1902.2</ele>
        <time>2017-07-16T10:03:37Z</time>
      </trkpt>
      <trkpt lat="45.04157" lon="5.59428">
        <ele>1903.2</ele>
        <time>2017-07-16T10:03:42Z</time>
      </trkpt>
      <trkpt lat="45.04158" lon="5.59426">
        <ele>1904.4</ele>
        <time>2017-07-16T10:03:47Z</time>
      </trkpt>
      <trkpt lat="45.0416" lon="5.59425">
        <ele>1905.4</ele>
        <time>2017-07-16T10:03:53Z</time>
      </trkpt>
      <trkpt lat="45.04163" lon="5.59425">
        <ele>1906.6</ele>
        <time>2017-07-16T10:03:57Z</time>
      </trkpt>
      <trkpt lat="45.04164" lon="5.59429">
        <ele>1907.6</ele>
        <time>2017-07-16T10:04:01Z</time>
      </trkpt>
      <trkpt lat="45.04168" lon="5.5943">
        <ele>1906.4</ele>
        <time>2017-07-16T10:04:16Z</time>
      </trkpt>
      <trkpt lat="45.04171" lon="5.5943">
        <ele>1905.2</ele>
        <time>2017-07-16T10:04:21Z</time>
      </trkpt>
      <trkpt lat="45.04181" lon="5.59433">
        <ele>1904</ele>
        <time>2017-07-16T10:04:33Z</time>
      </trkpt>
      <trkpt lat="45.04192" lon="5.59439">
        <ele>1903</ele>
        <time>2017-07-16T10:04:58Z</time>
      </trkpt>
      <trkpt lat="45.04198" lon="5.59435">
        <ele>1903</ele>
        <time>2017-07-16T10:05:08Z</time>
      </trkpt>
      <trkpt lat="45.04206" lon="5.5943">
        <ele>1904.2</ele>
        <time>2017-07-16T10:05:35Z</time>
      </trkpt>
      <trkpt lat="45.0421" lon="5.59429">
        <ele>1905.2</ele>
        <time>2017-07-16T10:05:43Z</time>
      </trkpt>
      <trkpt lat="45.04212" lon="5.59429">
        <ele>1906.4</ele>
        <time>2017-07-16T10:05:50Z</time>
      </trkpt>
      <trkpt lat="45.04226" lon="5.59426">
        <ele>1907.8</ele>
        <time>2017-07-16T10:06:13Z</time>
      </trkpt>
      <trkpt lat="45.04231" lon="5.59421">
        <ele>1906.6</ele>
        <time>2017-07-16T10:06:29Z</time>
      </trkpt>
      <trkpt lat="45.04252" lon="5.59417">
        <ele>1905.6</ele>
        <time>2017-07-16T10:07:43Z</time>
      </trkpt>
      <trkpt lat="45.04257" lon="5.59421">
        <ele>1904.6</ele>
        <time>2017-07-16T10:07:52Z</time>
      </trkpt>
      <trkpt lat="45.04261" lon="5.59421">
        <ele>1903.6</ele>
        <time>2017-07-16T10:08:02Z</time>
      </trkpt>
      <trkpt lat="45.04264" lon="5.59422">
        <ele>1902.4</ele>
        <time>2017-07-16T10:08:07Z</time>
      </trkpt>
      <trkpt lat="45.04276" lon="5.59424">
        <ele>1901.8</ele>
        <time>2017-07-16T10:08:22Z</time>
      </trkpt>
      <trkpt lat="45.04281" lon="5.59423">
        <ele>1901.2</ele>
        <time>2017-07-16T10:08:43Z</time>
      </trkpt>
      <trkpt lat="45.04303" lon="5.5942">
        <ele>1902.2</ele>
        <time>2017-07-16T10:09:15Z</time>
      </trkpt>
      <trkpt lat="45.04315" lon="5.5942">
        <ele>1901.2</ele>
        <time>2017-07-16T10:09:31Z</time>
      </trkpt>
      <trkpt lat="45.04325" lon="5.5942">
        <ele>1900.2</ele>
        <time>2017-07-16T10:09:54Z</time>
      </trkpt>
      <trkpt lat="45.04331" lon="5.59419">
        <ele>1899.2</ele>
        <time>2017-07-16T10:10:04Z</time>
      </trkpt>
      <trkpt lat="45.04332" lon="5.59421">
        <ele>1898.2</ele>
        <time>2017-07-16T10:10:10Z</time>
      </trkpt>
      <trkpt lat="45.04335" lon="5.59423">
        <ele>1897</ele>
        <time>2017-07-16T10:10:17Z</time>
      </trkpt>
      <trkpt lat="45.04338" lon="5.59425">
        <ele>1896</ele>
        <time>2017-07-16T10:10:25Z</time>
      </trkpt>
      <trkpt lat="45.0434" lon="5.59426">
        <ele>1894.6</ele>
        <time>2017-07-16T10:10:31Z</time>
      </trkpt>
      <trkpt lat="45.04343" lon="5.59427">
        <ele>1893.6</ele>
        <time>2017-07-16T10:10:38Z</time>
      </trkpt>
      <trkpt lat="45.04343" lon="5.59429">
        <ele>1892.4</ele>
        <time>2017-07-16T10:10:45Z</time>
      </trkpt>
      <trkpt lat="45.04341" lon="5.5943">
        <ele>1891.4</ele>
        <time>2017-07-16T10:10:55Z</time>
      </trkpt>
      <trkpt lat="45.04343" lon="5.59431">
        <ele>1890.2</ele>
        <time>2017-07-16T10:11:11Z</time>
      </trkpt>
      <trkpt lat="45.04348" lon="5.59435">
        <ele>1889.2</ele>
        <time>2017-07-16T10:11:41Z</time>
      </trkpt>
      <trkpt lat="45.04348" lon="5.59437">
        <ele>1888</ele>
        <time>2017-07-16T10:11:54Z</time>
      </trkpt>
      <trkpt lat="45.04351" lon="5.59441">
        <ele>1887</ele>
        <time>2017-07-16T10:12:02Z</time>
      </trkpt>
      <trkpt lat="45.04367" lon="5.59447">
        <ele>1885.6</ele>
        <time>2017-07-16T10:12:26Z</time>
      </trkpt>
      <trkpt lat="45.04377" lon="5.59446">
        <ele>1885.4</ele>
        <time>2017-07-16T10:12:37Z</time>
      </trkpt>
      <trkpt lat="45.04392" lon="5.59447">
        <ele>1886.8</ele>
        <time>2017-07-16T10:12:55Z</time>
      </trkpt>
      <trkpt lat="45.04398" lon="5.59446">
        <ele>1887.6</ele>
        <time>2017-07-16T10:13:04Z</time>
      </trkpt>
      <trkpt lat="45.0444" lon="5.59445">
        <ele>1886.6</ele>
        <time>2017-07-16T10:14:05Z</time>
      </trkpt>
      <trkpt lat="45.04444" lon="5.59447">
        <ele>1885.6</ele>
        <time>2017-07-16T10:14:15Z</time>
      </trkpt>
      <trkpt lat="45.04447" lon="5.59446">
        <ele>1884.4</ele>
        <time>2017-07-16T10:14:25Z</time>
      </trkpt>
      <trkpt lat="45.04449" lon="5.59444">
        <ele>1883.4</ele>
        <time>2017-07-16T10:14:33Z</time>
      </trkpt>
      <trkpt lat="45.04451" lon="5.59445">
        <ele>1882.4</ele>
        <time>2017-07-16T10:14:40Z</time>
      </trkpt>
      <trkpt lat="45.04455" lon="5.59443">
        <ele>1881.4</ele>
        <time>2017-07-16T10:14:48Z</time>
      </trkpt>
      <trkpt lat="45.04456" lon="5.59447">
        <ele>1880.2</ele>
        <time>2017-07-16T10:14:56Z</time>
      </trkpt>
      <trkpt lat="45.04456" lon="5.59451">
        <ele>1879</ele>
        <time>2017-07-16T10:15:01Z</time>
      </trkpt>
      <trkpt lat="45.04455" lon="5.59456">
        <ele>1878</ele>
        <time>2017-07-16T10:15:08Z</time>
      </trkpt>
      <trkpt lat="45.04455" lon="5.5946">
        <ele>1876.8</ele>
        <time>2017-07-16T10:15:13Z</time>
      </trkpt>
      <trkpt lat="45.04454" lon="5.59462">
        <ele>1875.6</ele>
        <time>2017-07-16T10:15:22Z</time>
      </trkpt>
      <trkpt lat="45.04453" lon="5.59463">
        <ele>1874.4</ele>
        <time>2017-07-16T10:15:30Z</time>
      </trkpt>
      <trkpt lat="45.04455" lon="5.59465">
        <ele>1873.4</ele>
        <time>2017-07-16T10:15:39Z</time>
      </trkpt>
      <trkpt lat="45.04456" lon="5.59467">
        <ele>1872.2</ele>
        <time>2017-07-16T10:15:45Z</time>
      </trkpt>
      <trkpt lat="45.04456" lon="5.59468">
        <ele>1871</ele>
        <time>2017-07-16T10:15:54Z</time>
      </trkpt>
      <trkpt lat="45.0446" lon="5.59466">
        <ele>1869.8</ele>
        <time>2017-07-16T10:16:06Z</time>
      </trkpt>
      <trkpt lat="45.04465" lon="5.59469">
        <ele>1868.8</ele>
        <time>2017-07-16T10:16:13Z</time>
      </trkpt>
      <trkpt lat="45.04466" lon="5.59471">
        <ele>1869</ele>
        <time>2017-07-16T10:16:16Z</time>
      </trkpt>
      <trkpt lat="45.04468" lon="5.59477">
        <ele>1868.4</ele>
        <time>2017-07-16T10:16:28Z</time>
      </trkpt>
      <trkpt lat="45.04468" lon="5.59478">
        <ele>1867.4</ele>
        <time>2017-07-16T10:16:34Z</time>
      </trkpt>
      <trkpt lat="45.04477" lon="5.59482">
        <ele>1866.2</ele>
        <time>2017-07-16T10:20:53Z</time>
      </trkpt>
      <trkpt lat="45.04479" lon="5.59482">
        <ele>1865</ele>
        <time>2017-07-16T10:21:01Z</time>
      </trkpt>
      <trkpt lat="45.0448" lon="5.59484">
        <ele>1863.6</ele>
        <time>2017-07-16T10:21:05Z</time>
      </trkpt>
      <trkpt lat="45.04482" lon="5.59486">
        <ele>1862.6</ele>
        <time>2017-07-16T10:21:24Z</time>
      </trkpt>
      <trkpt lat="45.04483" lon="5.59486">
        <ele>1861.4</ele>
        <time>2017-07-16T10:21:33Z</time>
      </trkpt>
      <trkpt lat="45.04486" lon="5.59488">
        <ele>1860.4</ele>
        <time>2017-07-16T10:21:41Z</time>
      </trkpt>
      <trkpt lat="45.04486" lon="5.59486">
        <ele>1859.4</ele>
        <time>2017-07-16T10:21:51Z</time>
      </trkpt>
      <trkpt lat="45.04489" lon="5.59484">
        <ele>1858.2</ele>
        <time>2017-07-16T10:22:24Z</time>
      </trkpt>
      <trkpt lat="45.04488" lon="5.59483">
        <ele>1857.2</ele>
        <time>2017-07-16T10:22:39Z</time>
      </trkpt>
      <trkpt lat="45.04496" lon="5.5948">
        <ele>1858.2</ele>
        <time>2017-07-16T10:23:21Z</time>
      </trkpt>
      <trkpt lat="45.04505" lon="5.5948">
        <ele>1859.2</ele>
        <time>2017-07-16T10:23:42Z</time>
      </trkpt>
      <trkpt lat="45.04509" lon="5.59481">
        <ele>1858</ele>
        <time>2017-07-16T10:23:49Z</time>
      </trkpt>
      <trkpt lat="45.04512" lon="5.59483">
        <ele>1857</ele>
        <time>2017-07-16T10:23:55Z</time>
      </trkpt>
      <trkpt lat="45.04526" lon="5.59483">
        <ele>1856.8</ele>
        <time>2017-07-16T10:24:13Z</time>
      </trkpt>
      <trkpt lat="45.04531" lon="5.59484">
        <ele>1856.4</ele>
        <time>2017-07-16T10:24:19Z</time>
      </trkpt>
      <trkpt lat="45.04552" lon="5.59489">
        <ele>1857.6</ele>
        <time>2017-07-16T10:24:49Z</time>
      </trkpt>
      <trkpt lat="45.04555" lon="5.5949">
        <ele>1858</ele>
        <time>2017-07-16T10:24:53Z</time>
      </trkpt>
      <trkpt lat="45.04559" lon="5.59491">
        <ele>1859</ele>
        <time>2017-07-16T10:25:00Z</time>
      </trkpt>
      <trkpt lat="45.04566" lon="5.59492">
        <ele>1860</ele>
        <time>2017-07-16T10:25:09Z</time>
      </trkpt>
      <trkpt lat="45.0457" lon="5.59494">
        <ele>1861</ele>
        <time>2017-07-16T10:25:16Z</time>
      </trkpt>
      <trkpt lat="45.04574" lon="5.59494">
        <ele>1862</ele>
        <time>2017-07-16T10:25:26Z</time>
      </trkpt>
      <trkpt lat="45.04589" lon="5.59497">
        <ele>1860.8</ele>
        <time>2017-07-16T10:25:50Z</time>
      </trkpt>
      <trkpt lat="45.04595" lon="5.59498">
        <ele>1862</ele>
        <time>2017-07-16T10:26:00Z</time>
      </trkpt>
      <trkpt lat="45.046" lon="5.59498">
        <ele>1863.2</ele>
        <time>2017-07-16T10:26:08Z</time>
      </trkpt>
      <trkpt lat="45.04604" lon="5.59501">
        <ele>1864.4</ele>
        <time>2017-07-16T10:26:16Z</time>
      </trkpt>
      <trkpt lat="45.04612" lon="5.59503">
        <ele>1865.6</ele>
        <time>2017-07-16T10:26:28Z</time>
      </trkpt>
      <trkpt lat="45.04616" lon="5.59503">
        <ele>1866.8</ele>
        <time>2017-07-16T10:26:34Z</time>
      </trkpt>
      <trkpt lat="45.04618" lon="5.59505">
        <ele>1865.4</ele>
        <time>2017-07-16T10:26:55Z</time>
      </trkpt>
      <trkpt lat="45.04621" lon="5.59507">
        <ele>1864.2</ele>
        <time>2017-07-16T10:27:03Z</time>
      </trkpt>
      <trkpt lat="45.04625" lon="5.59509">
        <ele>1863.2</ele>
        <time>2017-07-16T10:27:13Z</time>
      </trkpt>
      <trkpt lat="45.04626" lon="5.59512">
        <ele>1862.2</ele>
        <time>2017-07-16T10:27:18Z</time>
      </trkpt>
      <trkpt lat="45.04629" lon="5.59513">
        <ele>1861</ele>
        <time>2017-07-16T10:27:25Z</time>
      </trkpt>
      <trkpt lat="45.04632" lon="5.59515">
        <ele>1859.8</ele>
        <time>2017-07-16T10:27:32Z</time>
      </trkpt>
      <trkpt lat="45.04635" lon="5.59516">
        <ele>1858.8</ele>
        <time>2017-07-16T10:27:40Z</time>
      </trkpt>
      <trkpt lat="45.04636" lon="5.59517">
        <ele>1857.6</ele>
        <time>2017-07-16T10:27:45Z</time>
      </trkpt>
      <trkpt lat="45.04639" lon="5.59517">
        <ele>1856.6</ele>
        <time>2017-07-16T10:27:58Z</time>
      </trkpt>
      <trkpt lat="45.0464" lon="5.59518">
        <ele>1855.2</ele>
        <time>2017-07-16T10:28:09Z</time>
      </trkpt>
      <trkpt lat="45.04642" lon="5.5952">
        <ele>1854.2</ele>
        <time>2017-07-16T10:28:24Z</time>
      </trkpt>
      <trkpt lat="45.04648" lon="5.5952">
        <ele>1853.2</ele>
        <time>2017-07-16T10:28:39Z</time>
      </trkpt>
      <trkpt lat="45.04649" lon="5.59521">
        <ele>1851.8</ele>
        <time>2017-07-16T10:28:43Z</time>
      </trkpt>
      <trkpt lat="45.04652" lon="5.59522">
        <ele>1850.8</ele>
        <time>2017-07-16T10:28:51Z</time>
      </trkpt>
      <trkpt lat="45.04654" lon="5.59522">
        <ele>1849.8</ele>
        <time>2017-07-16T10:28:57Z</time>
      </trkpt>
      <trkpt lat="45.04658" lon="5.59523">
        <ele>1849.2</ele>
        <time>2017-07-16T10:29:02Z</time>
      </trkpt>
      <trkpt lat="45.0466" lon="5.59524">
        <ele>1848.6</ele>
        <time>2017-07-16T10:29:04Z</time>
      </trkpt>
      <trkpt lat="45.04689" lon="5.59522">
        <ele>1847.6</ele>
        <time>2017-07-16T10:29:33Z</time>
      </trkpt>
      <trkpt lat="45.04696" lon="5.59521">
        <ele>1847.6</ele>
        <time>2017-07-16T10:29:42Z</time>
      </trkpt>
      <trkpt lat="45.04704" lon="5.5952">
        <ele>1846.6</ele>
        <time>2017-07-16T10:29:59Z</time>
      </trkpt>
      <trkpt lat="45.04705" lon="5.59518">
        <ele>1845.4</ele>
        <time>2017-07-16T10:30:04Z</time>
      </trkpt>
      <trkpt lat="45.0471" lon="5.59514">
        <ele>1844.2</ele>
        <time>2017-07-16T10:30:12Z</time>
      </trkpt>
      <trkpt lat="45.04716" lon="5.59511">
        <ele>1843.8</ele>
        <time>2017-07-16T10:30:18Z</time>
      </trkpt>
      <trkpt lat="45.04721" lon="5.59511">
        <ele>1843.8</ele>
        <time>2017-07-16T10:30:24Z</time>
      </trkpt>
      <trkpt lat="45.04725" lon="5.59508">
        <ele>1843.2</ele>
        <time>2017-07-16T10:32:27Z</time>
      </trkpt>
      <trkpt lat="45.04724" lon="5.59507">
        <ele>1844.4</ele>
        <time>2017-07-16T10:35:12Z</time>
      </trkpt>
      <trkpt lat="45.04726" lon="5.59507">
        <ele>1843.2</ele>
        <time>2017-07-16T10:38:24Z</time>
      </trkpt>
      <trkpt lat="45.04726" lon="5.59508">
        <ele>1844.4</ele>
        <time>2017-07-16T10:39:43Z</time>
      </trkpt>
      <trkpt lat="45.04726" lon="5.5951">
        <ele>1843.4</ele>
        <time>2017-07-16T10:40:50Z</time>
      </trkpt>
      <trkpt lat="45.04726" lon="5.5951">
        <ele>1844.4</ele>
        <time>2017-07-16T10:43:31Z</time>
      </trkpt>
      <trkpt lat="45.04724" lon="5.5951">
        <ele>1843.4</ele>
        <time>2017-07-16T11:04:58Z</time>
      </trkpt>
      <trkpt lat="45.04724" lon="5.59507">
        <ele>1844.4</ele>
        <time>2017-07-16T11:07:13Z</time>
      </trkpt>
      <trkpt lat="45.04728" lon="5.59518">
        <ele>1844.2</ele>
        <time>2017-07-16T11:20:34Z</time>
      </trkpt>
      <trkpt lat="45.04736" lon="5.59522">
        <ele>1843.4</ele>
        <time>2017-07-16T11:20:57Z</time>
      </trkpt>
      <trkpt lat="45.04743" lon="5.59529">
        <ele>1842.4</ele>
        <time>2017-07-16T11:21:21Z</time>
      </trkpt>
      <trkpt lat="45.04744" lon="5.59531">
        <ele>1841.4</ele>
        <time>2017-07-16T11:21:28Z</time>
      </trkpt>
      <trkpt lat="45.04747" lon="5.59534">
        <ele>1840</ele>
        <time>2017-07-16T11:21:39Z</time>
      </trkpt>
      <trkpt lat="45.04753" lon="5.59537">
        <ele>1841.2</ele>
        <time>2017-07-16T11:22:08Z</time>
      </trkpt>
      <trkpt lat="45.04754" lon="5.59536">
        <ele>1842.4</ele>
        <time>2017-07-16T11:22:18Z</time>
      </trkpt>
      <trkpt lat="45.04756" lon="5.59535">
        <ele>1843.2</ele>
        <time>2017-07-16T11:22:30Z</time>
      </trkpt>
      <trkpt lat="45.04762" lon="5.59533">
        <ele>1844.4</ele>
        <time>2017-07-16T11:22:51Z</time>
      </trkpt>
      <trkpt lat="45.04765" lon="5.59532">
        <ele>1845.8</ele>
        <time>2017-07-16T11:22:56Z</time>
      </trkpt>
      <trkpt lat="45.04768" lon="5.59534">
        <ele>1847</ele>
        <time>2017-07-16T11:22:59Z</time>
      </trkpt>
      <trkpt lat="45.04771" lon="5.59536">
        <ele>1848</ele>
        <time>2017-07-16T11:23:18Z</time>
      </trkpt>
      <trkpt lat="45.04777" lon="5.59536">
        <ele>1849.2</ele>
        <time>2017-07-16T11:23:29Z</time>
      </trkpt>
      <trkpt lat="45.04781" lon="5.59538">
        <ele>1850.4</ele>
        <time>2017-07-16T11:23:36Z</time>
      </trkpt>
      <trkpt lat="45.04782" lon="5.5954">
        <ele>1851.4</ele>
        <time>2017-07-16T11:23:54Z</time>
      </trkpt>
      <trkpt lat="45.04783" lon="5.5954">
        <ele>1850.4</ele>
        <time>2017-07-16T11:23:58Z</time>
      </trkpt>
      <trkpt lat="45.04788" lon="5.59542">
        <ele>1849.2</ele>
        <time>2017-07-16T11:26:08Z</time>
      </trkpt>
      <trkpt lat="45.04809" lon="5.59549">
        <ele>1850.4</ele>
        <time>2017-07-16T11:26:44Z</time>
      </trkpt>
      <trkpt lat="45.04832" lon="5.59558">
        <ele>1849.4</ele>
        <time>2017-07-16T11:27:24Z</time>
      </trkpt>
      <trkpt lat="45.04833" lon="5.59559">
        <ele>1850.6</ele>
        <time>2017-07-16T11:27:52Z</time>
      </trkpt>
      <trkpt lat="45.04832" lon="5.59559">
        <ele>1849.4</ele>
        <time>2017-07-16T11:27:56Z</time>
      </trkpt>
      <trkpt lat="45.04832" lon="5.59561">
        <ele>1848.4</ele>
        <time>2017-07-16T11:28:01Z</time>
      </trkpt>
      <trkpt lat="45.04831" lon="5.59562">
        <ele>1847.2</ele>
        <time>2017-07-16T11:28:04Z</time>
      </trkpt>
      <trkpt lat="45.04831" lon="5.59564">
        <ele>1846.2</ele>
        <time>2017-07-16T11:28:08Z</time>
      </trkpt>
      <trkpt lat="45.04838" lon="5.59571">
        <ele>1846.4</ele>
        <time>2017-07-16T11:28:21Z</time>
      </trkpt>
      <trkpt lat="45.04848" lon="5.59576">
        <ele>1845</ele>
        <time>2017-07-16T11:28:38Z</time>
      </trkpt>
      <trkpt lat="45.04854" lon="5.5958">
        <ele>1844</ele>
        <time>2017-07-16T11:28:45Z</time>
      </trkpt>
      <trkpt lat="45.04856" lon="5.59581">
        <ele>1843.8</ele>
        <time>2017-07-16T11:28:48Z</time>
      </trkpt>
      <trkpt lat="45.04858" lon="5.59582">
        <ele>1843.6</ele>
        <time>2017-07-16T11:28:50Z</time>
      </trkpt>
      <trkpt lat="45.04865" lon="5.59585">
        <ele>1843.2</ele>
        <time>2017-07-16T11:29:00Z</time>
      </trkpt>
      <trkpt lat="45.04866" lon="5.59584">
        <ele>1843</ele>
        <time>2017-07-16T11:29:02Z</time>
      </trkpt>
      <trkpt lat="45.04869" lon="5.59585">
        <ele>1841.8</ele>
        <time>2017-07-16T11:29:08Z</time>
      </trkpt>
      <trkpt lat="45.04873" lon="5.59588">
        <ele>1840.6</ele>
        <time>2017-07-16T11:29:15Z</time>
      </trkpt>
      <trkpt lat="45.04876" lon="5.59589">
        <ele>1839.2</ele>
        <time>2017-07-16T11:29:22Z</time>
      </trkpt>
      <trkpt lat="45.0488" lon="5.59591">
        <ele>1838</ele>
        <time>2017-07-16T11:29:27Z</time>
      </trkpt>
      <trkpt lat="45.04884" lon="5.59595">
        <ele>1837</ele>
        <time>2017-07-16T11:29:34Z</time>
      </trkpt>
      <trkpt lat="45.04887" lon="5.59597">
        <ele>1835.8</ele>
        <time>2017-07-16T11:29:40Z</time>
      </trkpt>
      <trkpt lat="45.0489" lon="5.59598">
        <ele>1834.6</ele>
        <time>2017-07-16T11:29:49Z</time>
      </trkpt>
      <trkpt lat="45.04894" lon="5.596">
        <ele>1833.6</ele>
        <time>2017-07-16T11:29:57Z</time>
      </trkpt>
      <trkpt lat="45.04901" lon="5.59603">
        <ele>1834.8</ele>
        <time>2017-07-16T11:30:28Z</time>
      </trkpt>
      <trkpt lat="45.04903" lon="5.59603">
        <ele>1832.6</ele>
        <time>2017-07-16T11:30:31Z</time>
      </trkpt>
      <trkpt lat="45.04903" lon="5.59603">
        <ele>1831.4</ele>
        <time>2017-07-16T11:30:32Z</time>
      </trkpt>
      <trkpt lat="45.04907" lon="5.59603">
        <ele>1830.2</ele>
        <time>2017-07-16T11:30:45Z</time>
      </trkpt>
      <trkpt lat="45.04907" lon="5.59605">
        <ele>1829</ele>
        <time>2017-07-16T11:30:49Z</time>
      </trkpt>
      <trkpt lat="45.04908" lon="5.59606">
        <ele>1828</ele>
        <time>2017-07-16T11:30:52Z</time>
      </trkpt>
      <trkpt lat="45.04909" lon="5.59607">
        <ele>1827</ele>
        <time>2017-07-16T11:30:58Z</time>
      </trkpt>
      <trkpt lat="45.04911" lon="5.59607">
        <ele>1826</ele>
        <time>2017-07-16T11:31:02Z</time>
      </trkpt>
      <trkpt lat="45.04914" lon="5.59608">
        <ele>1824.8</ele>
        <time>2017-07-16T11:31:06Z</time>
      </trkpt>
      <trkpt lat="45.04916" lon="5.59607">
        <ele>1823.8</ele>
        <time>2017-07-16T11:31:10Z</time>
      </trkpt>
      <trkpt lat="45.04919" lon="5.59607">
        <ele>1822.4</ele>
        <time>2017-07-16T11:31:15Z</time>
      </trkpt>
      <trkpt lat="45.04924" lon="5.59613">
        <ele>1821.4</ele>
        <time>2017-07-16T11:31:28Z</time>
      </trkpt>
      <trkpt lat="45.04925" lon="5.59615">
        <ele>1820.4</ele>
        <time>2017-07-16T11:31:31Z</time>
      </trkpt>
      <trkpt lat="45.04928" lon="5.59617">
        <ele>1819.4</ele>
        <time>2017-07-16T11:31:37Z</time>
      </trkpt>
      <trkpt lat="45.04933" lon="5.59619">
        <ele>1818.2</ele>
        <time>2017-07-16T11:31:44Z</time>
      </trkpt>
      <trkpt lat="45.04935" lon="5.59621">
        <ele>1817.2</ele>
        <time>2017-07-16T11:31:47Z</time>
      </trkpt>
      <trkpt lat="45.04938" lon="5.59621">
        <ele>1816.2</ele>
        <time>2017-07-16T11:32:04Z</time>
      </trkpt>
      <trkpt lat="45.04951" lon="5.59624">
        <ele>1817.4</ele>
        <time>2017-07-16T11:33:11Z</time>
      </trkpt>
      <trkpt lat="45.04958" lon="5.59629">
        <ele>1818.4</ele>
        <time>2017-07-16T11:33:20Z</time>
      </trkpt>
      <trkpt lat="45.04962" lon="5.59631">
        <ele>1819.6</ele>
        <time>2017-07-16T11:33:28Z</time>
      </trkpt>
      <trkpt lat="45.04968" lon="5.59632">
        <ele>1821</ele>
        <time>2017-07-16T11:33:39Z</time>
      </trkpt>
      <trkpt lat="45.04974" lon="5.59635">
        <ele>1822</ele>
        <time>2017-07-16T11:33:46Z</time>
      </trkpt>
      <trkpt lat="45.04974" lon="5.59636">
        <ele>1823.2</ele>
        <time>2017-07-16T11:34:35Z</time>
      </trkpt>
      <trkpt lat="45.04975" lon="5.59635">
        <ele>1822</ele>
        <time>2017-07-16T11:36:47Z</time>
      </trkpt>
      <trkpt lat="45.04979" lon="5.59632">
        <ele>1820.8</ele>
        <time>2017-07-16T11:37:04Z</time>
      </trkpt>
      <trkpt lat="45.04982" lon="5.59633">
        <ele>1819.8</ele>
        <time>2017-07-16T11:37:09Z</time>
      </trkpt>
      <trkpt lat="45.04984" lon="5.59635">
        <ele>1818.8</ele>
        <time>2017-07-16T11:37:14Z</time>
      </trkpt>
      <trkpt lat="45.04988" lon="5.59636">
        <ele>1817.8</ele>
        <time>2017-07-16T11:37:32Z</time>
      </trkpt>
      <trkpt lat="45.04989" lon="5.59638">
        <ele>1816.6</ele>
        <time>2017-07-16T11:37:37Z</time>
      </trkpt>
      <trkpt lat="45.04991" lon="5.5964">
        <ele>1815.4</ele>
        <time>2017-07-16T11:37:50Z</time>
      </trkpt>
      <trkpt lat="45.04992" lon="5.59641">
        <ele>1814.4</ele>
        <time>2017-07-16T11:39:51Z</time>
      </trkpt>
      <trkpt lat="45.04992" lon="5.5964">
        <ele>1813.4</ele>
        <time>2017-07-16T11:40:07Z</time>
      </trkpt>
      <trkpt lat="45.04993" lon="5.59641">
        <ele>1812.2</ele>
        <time>2017-07-16T11:40:48Z</time>
      </trkpt>
      <trkpt lat="45.04994" lon="5.59643">
        <ele>1811.2</ele>
        <time>2017-07-16T11:42:13Z</time>
      </trkpt>
      <trkpt lat="45.04995" lon="5.59643">
        <ele>1809.8</ele>
        <time>2017-07-16T11:42:20Z</time>
      </trkpt>
      <trkpt lat="45.04997" lon="5.59644">
        <ele>1808.8</ele>
        <time>2017-07-16T11:42:49Z</time>
      </trkpt>
      <trkpt lat="45.04996" lon="5.59645">
        <ele>1807.6</ele>
        <time>2017-07-16T11:42:57Z</time>
      </trkpt>
      <trkpt lat="45.04997" lon="5.59645">
        <ele>1806.6</ele>
        <time>2017-07-16T11:43:01Z</time>
      </trkpt>
      <trkpt lat="45.04999" lon="5.59645">
        <ele>1805.4</ele>
        <time>2017-07-16T11:44:11Z</time>
      </trkpt>
      <trkpt lat="45.05001" lon="5.59643">
        <ele>1804.4</ele>
        <time>2017-07-16T11:44:24Z</time>
      </trkpt>
      <trkpt lat="45.05003" lon="5.59644">
        <ele>1803.2</ele>
        <time>2017-07-16T11:44:29Z</time>
      </trkpt>
      <trkpt lat="45.05009" lon="5.5964">
        <ele>1804.2</ele>
        <time>2017-07-16T11:44:44Z</time>
      </trkpt>
      <trkpt lat="45.05016" lon="5.59644">
        <ele>1803</ele>
        <time>2017-07-16T11:45:08Z</time>
      </trkpt>
      <trkpt lat="45.05016" lon="5.59644">
        <ele>1802</ele>
        <time>2017-07-16T11:45:17Z</time>
      </trkpt>
      <trkpt lat="45.05017" lon="5.59645">
        <ele>1801</ele>
        <time>2017-07-16T11:45:25Z</time>
      </trkpt>
      <trkpt lat="45.05018" lon="5.59647">
        <ele>1799.8</ele>
        <time>2017-07-16T11:45:35Z</time>
      </trkpt>
      <trkpt lat="45.05019" lon="5.59648">
        <ele>1798.8</ele>
        <time>2017-07-16T11:45:45Z</time>
      </trkpt>
      <trkpt lat="45.05019" lon="5.59649">
        <ele>1797.6</ele>
        <time>2017-07-16T11:45:57Z</time>
      </trkpt>
      <trkpt lat="45.0502" lon="5.59651">
        <ele>1796.4</ele>
        <time>2017-07-16T11:46:02Z</time>
      </trkpt>
      <trkpt lat="45.0502" lon="5.59654">
        <ele>1795.4</ele>
        <time>2017-07-16T11:46:10Z</time>
      </trkpt>
      <trkpt lat="45.05022" lon="5.59657">
        <ele>1794.2</ele>
        <time>2017-07-16T11:46:19Z</time>
      </trkpt>
      <trkpt lat="45.05023" lon="5.59659">
        <ele>1793</ele>
        <time>2017-07-16T11:46:29Z</time>
      </trkpt>
      <trkpt lat="45.05031" lon="5.59659">
        <ele>1791.8</ele>
        <time>2017-07-16T11:47:02Z</time>
      </trkpt>
      <trkpt lat="45.05032" lon="5.59661">
        <ele>1790.6</ele>
        <time>2017-07-16T11:47:48Z</time>
      </trkpt>
      <trkpt lat="45.05033" lon="5.59662">
        <ele>1789.6</ele>
        <time>2017-07-16T11:47:52Z</time>
      </trkpt>
      <trkpt lat="45.05036" lon="5.59665">
        <ele>1788.6</ele>
        <time>2017-07-16T11:47:59Z</time>
      </trkpt>
      <trkpt lat="45.05039" lon="5.59668">
        <ele>1787.4</ele>
        <time>2017-07-16T11:48:04Z</time>
      </trkpt>
      <trkpt lat="45.05043" lon="5.59671">
        <ele>1786.2</ele>
        <time>2017-07-16T11:48:13Z</time>
      </trkpt>
      <trkpt lat="45.05043" lon="5.59672">
        <ele>1785.2</ele>
        <time>2017-07-16T11:48:16Z</time>
      </trkpt>
      <trkpt lat="45.05047" lon="5.59676">
        <ele>1784</ele>
        <time>2017-07-16T11:48:23Z</time>
      </trkpt>
      <trkpt lat="45.05048" lon="5.59678">
        <ele>1782.8</ele>
        <time>2017-07-16T11:48:27Z</time>
      </trkpt>
      <trkpt lat="45.05051" lon="5.5968">
        <ele>1781.6</ele>
        <time>2017-07-16T11:48:46Z</time>
      </trkpt>
      <trkpt lat="45.05053" lon="5.5968">
        <ele>1780.6</ele>
        <time>2017-07-16T11:48:53Z</time>
      </trkpt>
      <trkpt lat="45.05055" lon="5.5968">
        <ele>1779.6</ele>
        <time>2017-07-16T11:49:01Z</time>
      </trkpt>
      <trkpt lat="45.05057" lon="5.59681">
        <ele>1778.4</ele>
        <time>2017-07-16T11:49:11Z</time>
      </trkpt>
      <trkpt lat="45.05059" lon="5.5968">
        <ele>1777.4</ele>
        <time>2017-07-16T11:49:23Z</time>
      </trkpt>
      <trkpt lat="45.05061" lon="5.59681">
        <ele>1776.2</ele>
        <time>2017-07-16T11:49:33Z</time>
      </trkpt>
      <trkpt lat="45.05073" lon="5.59676">
        <ele>1777.4</ele>
        <time>2017-07-16T11:49:51Z</time>
      </trkpt>
      <trkpt lat="45.05083" lon="5.59672">
        <ele>1777.8</ele>
        <time>2017-07-16T11:50:15Z</time>
      </trkpt>
      <trkpt lat="45.05086" lon="5.59673">
        <ele>1777.8</ele>
        <time>2017-07-16T11:50:18Z</time>
      </trkpt>
      <trkpt lat="45.05087" lon="5.59674">
        <ele>1777.6</ele>
        <time>2017-07-16T11:50:20Z</time>
      </trkpt>
      <trkpt lat="45.05098" lon="5.59675">
        <ele>1776.2</ele>
        <time>2017-07-16T11:50:38Z</time>
      </trkpt>
      <trkpt lat="45.05101" lon="5.59676">
        <ele>1775</ele>
        <time>2017-07-16T11:50:46Z</time>
      </trkpt>
      <trkpt lat="45.05106" lon="5.59674">
        <ele>1774</ele>
        <time>2017-07-16T11:50:57Z</time>
      </trkpt>
      <trkpt lat="45.05111" lon="5.59672">
        <ele>1772.8</ele>
        <time>2017-07-16T11:51:07Z</time>
      </trkpt>
      <trkpt lat="45.05115" lon="5.59675">
        <ele>1771.8</ele>
        <time>2017-07-16T11:51:14Z</time>
      </trkpt>
      <trkpt lat="45.05119" lon="5.59678">
        <ele>1770.6</ele>
        <time>2017-07-16T11:51:35Z</time>
      </trkpt>
      <trkpt lat="45.05122" lon="5.59678">
        <ele>1769.4</ele>
        <time>2017-07-16T11:51:46Z</time>
      </trkpt>
      <trkpt lat="45.05124" lon="5.59677">
        <ele>1768.4</ele>
        <time>2017-07-16T11:51:50Z</time>
      </trkpt>
      <trkpt lat="45.05139" lon="5.59684">
        <ele>1769.4</ele>
        <time>2017-07-16T11:52:39Z</time>
      </trkpt>
      <trkpt lat="45.05143" lon="5.59684">
        <ele>1770.6</ele>
        <time>2017-07-16T11:52:51Z</time>
      </trkpt>
      <trkpt lat="45.05152" lon="5.59682">
        <ele>1769.6</ele>
        <time>2017-07-16T11:53:15Z</time>
      </trkpt>
      <trkpt lat="45.05157" lon="5.59685">
        <ele>1768.4</ele>
        <time>2017-07-16T11:53:45Z</time>
      </trkpt>
      <trkpt lat="45.05158" lon="5.59685">
        <ele>1767.2</ele>
        <time>2017-07-16T11:53:59Z</time>
      </trkpt>
      <trkpt lat="45.0517" lon="5.59686">
        <ele>1768.4</ele>
        <time>2017-07-16T11:54:32Z</time>
      </trkpt>
      <trkpt lat="45.05186" lon="5.5969">
        <ele>1769</ele>
        <time>2017-07-16T11:55:16Z</time>
      </trkpt>
      <trkpt lat="45.05188" lon="5.5969">
        <ele>1769.4</ele>
        <time>2017-07-16T11:55:19Z</time>
      </trkpt>
      <trkpt lat="45.05187" lon="5.5969">
        <ele>1769.6</ele>
        <time>2017-07-16T11:55:23Z</time>
      </trkpt>
      <trkpt lat="45.05193" lon="5.59695">
        <ele>1768.4</ele>
        <time>2017-07-16T11:56:46Z</time>
      </trkpt>
      <trkpt lat="45.05197" lon="5.59697">
        <ele>1767.2</ele>
        <time>2017-07-16T11:56:53Z</time>
      </trkpt>
      <trkpt lat="45.05199" lon="5.59696">
        <ele>1766</ele>
        <time>2017-07-16T11:56:58Z</time>
      </trkpt>
      <trkpt lat="45.05201" lon="5.59697">
        <ele>1764.8</ele>
        <time>2017-07-16T11:57:04Z</time>
      </trkpt>
      <trkpt lat="45.05203" lon="5.59696">
        <ele>1763.6</ele>
        <time>2017-07-16T11:57:09Z</time>
      </trkpt>
      <trkpt lat="45.05227" lon="5.59694">
        <ele>1763.8</ele>
        <time>2017-07-16T11:57:38Z</time>
      </trkpt>
      <trkpt lat="45.05236" lon="5.59693">
        <ele>1762.6</ele>
        <time>2017-07-16T11:58:00Z</time>
      </trkpt>
      <trkpt lat="45.0524" lon="5.59694">
        <ele>1761.4</ele>
        <time>2017-07-16T11:58:06Z</time>
      </trkpt>
      <trkpt lat="45.05242" lon="5.59697">
        <ele>1760.4</ele>
        <time>2017-07-16T11:58:15Z</time>
      </trkpt>
      <trkpt lat="45.05242" lon="5.59699">
        <ele>1759.4</ele>
        <time>2017-07-16T11:58:21Z</time>
      </trkpt>
      <trkpt lat="45.05245" lon="5.597">
        <ele>1758.2</ele>
        <time>2017-07-16T11:58:27Z</time>
      </trkpt>
      <trkpt lat="45.05246" lon="5.59699">
        <ele>1757.2</ele>
        <time>2017-07-16T11:58:31Z</time>
      </trkpt>
      <trkpt lat="45.05246" lon="5.59701">
        <ele>1756.2</ele>
        <time>2017-07-16T11:58:37Z</time>
      </trkpt>
      <trkpt lat="45.0525" lon="5.59701">
        <ele>1755.2</ele>
        <time>2017-07-16T11:58:42Z</time>
      </trkpt>
      <trkpt lat="45.05251" lon="5.59702">
        <ele>1755</ele>
        <time>2017-07-16T11:58:43Z</time>
      </trkpt>
      <trkpt lat="45.05263" lon="5.59705">
        <ele>1755</ele>
        <time>2017-07-16T11:58:58Z</time>
      </trkpt>
      <trkpt lat="45.05269" lon="5.5971">
        <ele>1753.8</ele>
        <time>2017-07-16T11:59:09Z</time>
      </trkpt>
      <trkpt lat="45.05271" lon="5.59715">
        <ele>1753.6</ele>
        <time>2017-07-16T11:59:13Z</time>
      </trkpt>
      <trkpt lat="45.05279" lon="5.59719">
        <ele>1752.8</ele>
        <time>2017-07-16T11:59:33Z</time>
      </trkpt>
      <trkpt lat="45.05278" lon="5.59722">
        <ele>1751.6</ele>
        <time>2017-07-16T11:59:40Z</time>
      </trkpt>
      <trkpt lat="45.05279" lon="5.59717">
        <ele>1752.8</ele>
        <time>2017-07-16T11:59:49Z</time>
      </trkpt>
      <trkpt lat="45.05282" lon="5.59714">
        <ele>1753.8</ele>
        <time>2017-07-16T12:00:06Z</time>
      </trkpt>
      <trkpt lat="45.05279" lon="5.59718">
        <ele>1752.8</ele>
        <time>2017-07-16T12:01:54Z</time>
      </trkpt>
      <trkpt lat="45.05275" lon="5.59718">
        <ele>1751.6</ele>
        <time>2017-07-16T12:01:59Z</time>
      </trkpt>
      <trkpt lat="45.05275" lon="5.5972">
        <ele>1751.6</ele>
        <time>2017-07-16T12:02:01Z</time>
      </trkpt>
      <trkpt lat="45.05272" lon="5.59719">
        <ele>1750.6</ele>
        <time>2017-07-16T12:02:08Z</time>
      </trkpt>
      <trkpt lat="45.0527" lon="5.59718">
        <ele>1749.6</ele>
        <time>2017-07-16T12:02:13Z</time>
      </trkpt>
      <trkpt lat="45.05266" lon="5.59717">
        <ele>1748.4</ele>
        <time>2017-07-16T12:02:21Z</time>
      </trkpt>
      <trkpt lat="45.05264" lon="5.59717">
        <ele>1747.2</ele>
        <time>2017-07-16T12:02:26Z</time>
      </trkpt>
      <trkpt lat="45.05261" lon="5.59717">
        <ele>1746.2</ele>
        <time>2017-07-16T12:02:30Z</time>
      </trkpt>
      <trkpt lat="45.05258" lon="5.59719">
        <ele>1745.2</ele>
        <time>2017-07-16T12:02:35Z</time>
      </trkpt>
      <trkpt lat="45.05255" lon="5.59721">
        <ele>1744</ele>
        <time>2017-07-16T12:02:41Z</time>
      </trkpt>
      <trkpt lat="45.05252" lon="5.59721">
        <ele>1743</ele>
        <time>2017-07-16T12:02:48Z</time>
      </trkpt>
      <trkpt lat="45.05247" lon="5.59722">
        <ele>1741.8</ele>
        <time>2017-07-16T12:02:54Z</time>
      </trkpt>
      <trkpt lat="45.05243" lon="5.59721">
        <ele>1740.6</ele>
        <time>2017-07-16T12:03:01Z</time>
      </trkpt>
      <trkpt lat="45.0524" lon="5.59722">
        <ele>1739.4</ele>
        <time>2017-07-16T12:03:07Z</time>
      </trkpt>
      <trkpt lat="45.05237" lon="5.59725">
        <ele>1738.2</ele>
        <time>2017-07-16T12:03:15Z</time>
      </trkpt>
      <trkpt lat="45.05241" lon="5.59729">
        <ele>1737.2</ele>
        <time>2017-07-16T12:03:27Z</time>
      </trkpt>
      <trkpt lat="45.05244" lon="5.59732">
        <ele>1736.2</ele>
        <time>2017-07-16T12:03:32Z</time>
      </trkpt>
      <trkpt lat="45.05248" lon="5.59735">
        <ele>1735.2</ele>
        <time>2017-07-16T12:03:40Z</time>
      </trkpt>
      <trkpt lat="45.0525" lon="5.59736">
        <ele>1734</ele>
        <time>2017-07-16T12:03:45Z</time>
      </trkpt>
      <trkpt lat="45.05252" lon="5.5974">
        <ele>1733</ele>
        <time>2017-07-16T12:03:51Z</time>
      </trkpt>
      <trkpt lat="45.05254" lon="5.59742">
        <ele>1731.8</ele>
        <time>2017-07-16T12:03:56Z</time>
      </trkpt>
      <trkpt lat="45.05257" lon="5.59744">
        <ele>1730.8</ele>
        <time>2017-07-16T12:04:03Z</time>
      </trkpt>
      <trkpt lat="45.05257" lon="5.59748">
        <ele>1730</ele>
        <time>2017-07-16T12:04:08Z</time>
      </trkpt>
      <trkpt lat="45.05256" lon="5.59748">
        <ele>1729.8</ele>
        <time>2017-07-16T12:04:17Z</time>
      </trkpt>
      <trkpt lat="45.05251" lon="5.59747">
        <ele>1728.6</ele>
        <time>2017-07-16T12:04:28Z</time>
      </trkpt>
      <trkpt lat="45.05247" lon="5.59748">
        <ele>1727.6</ele>
        <time>2017-07-16T12:04:35Z</time>
      </trkpt>
      <trkpt lat="45.05244" lon="5.59749">
        <ele>1726.4</ele>
        <time>2017-07-16T12:04:41Z</time>
      </trkpt>
      <trkpt lat="45.05238" lon="5.59751">
        <ele>1725.2</ele>
        <time>2017-07-16T12:04:50Z</time>
      </trkpt>
      <trkpt lat="45.05237" lon="5.59754">
        <ele>1724.2</ele>
        <time>2017-07-16T12:04:57Z</time>
      </trkpt>
      <trkpt lat="45.05241" lon="5.59755">
        <ele>1723</ele>
        <time>2017-07-16T12:05:42Z</time>
      </trkpt>
      <trkpt lat="45.05243" lon="5.59757">
        <ele>1722</ele>
        <time>2017-07-16T12:05:50Z</time>
      </trkpt>
      <trkpt lat="45.05245" lon="5.59759">
        <ele>1721</ele>
        <time>2017-07-16T12:06:00Z</time>
      </trkpt>
      <trkpt lat="45.0524" lon="5.5976">
        <ele>1719.8</ele>
        <time>2017-07-16T12:06:06Z</time>
      </trkpt>
      <trkpt lat="45.05235" lon="5.5976">
        <ele>1718.8</ele>
        <time>2017-07-16T12:06:13Z</time>
      </trkpt>
      <trkpt lat="45.05232" lon="5.59761">
        <ele>1717.6</ele>
        <time>2017-07-16T12:06:19Z</time>
      </trkpt>
      <trkpt lat="45.0523" lon="5.59763">
        <ele>1716.6</ele>
        <time>2017-07-16T12:06:24Z</time>
      </trkpt>
      <trkpt lat="45.05227" lon="5.59766">
        <ele>1715.4</ele>
        <time>2017-07-16T12:06:29Z</time>
      </trkpt>
      <trkpt lat="45.05227" lon="5.5977">
        <ele>1714.4</ele>
        <time>2017-07-16T12:06:38Z</time>
      </trkpt>
      <trkpt lat="45.05232" lon="5.59772">
        <ele>1713.2</ele>
        <time>2017-07-16T12:06:48Z</time>
      </trkpt>
      <trkpt lat="45.05235" lon="5.59774">
        <ele>1712.2</ele>
        <time>2017-07-16T12:06:55Z</time>
      </trkpt>
      <trkpt lat="45.05238" lon="5.59777">
        <ele>1711.2</ele>
        <time>2017-07-16T12:07:01Z</time>
      </trkpt>
      <trkpt lat="45.05238" lon="5.5978">
        <ele>1710</ele>
        <time>2017-07-16T12:07:12Z</time>
      </trkpt>
      <trkpt lat="45.05236" lon="5.59783">
        <ele>1709</ele>
        <time>2017-07-16T12:07:19Z</time>
      </trkpt>
      <trkpt lat="45.05233" lon="5.59786">
        <ele>1707.6</ele>
        <time>2017-07-16T12:07:27Z</time>
      </trkpt>
      <trkpt lat="45.0523" lon="5.59788">
        <ele>1706.4</ele>
        <time>2017-07-16T12:07:34Z</time>
      </trkpt>
      <trkpt lat="45.05227" lon="5.59791">
        <ele>1705.4</ele>
        <time>2017-07-16T12:07:41Z</time>
      </trkpt>
      <trkpt lat="45.05225" lon="5.59792">
        <ele>1704.4</ele>
        <time>2017-07-16T12:07:46Z</time>
      </trkpt>
      <trkpt lat="45.05221" lon="5.59795">
        <ele>1703.2</ele>
        <time>2017-07-16T12:07:53Z</time>
      </trkpt>
      <trkpt lat="45.05216" lon="5.59794">
        <ele>1702.2</ele>
        <time>2017-07-16T12:08:02Z</time>
      </trkpt>
      <trkpt lat="45.05206" lon="5.59798">
        <ele>1701.2</ele>
        <time>2017-07-16T12:08:18Z</time>
      </trkpt>
      <trkpt lat="45.05203" lon="5.59799">
        <ele>1700</ele>
        <time>2017-07-16T12:08:39Z</time>
      </trkpt>
      <trkpt lat="45.052" lon="5.598">
        <ele>1699</ele>
        <time>2017-07-16T12:08:45Z</time>
      </trkpt>
      <trkpt lat="45.05197" lon="5.59801">
        <ele>1698.2</ele>
        <time>2017-07-16T12:08:50Z</time>
      </trkpt>
      <trkpt lat="45.05195" lon="5.59801">
        <ele>1696.8</ele>
        <time>2017-07-16T12:08:56Z</time>
      </trkpt>
      <trkpt lat="45.05192" lon="5.59804">
        <ele>1695.6</ele>
        <time>2017-07-16T12:09:02Z</time>
      </trkpt>
      <trkpt lat="45.05189" lon="5.59807">
        <ele>1694.6</ele>
        <time>2017-07-16T12:09:08Z</time>
      </trkpt>
      <trkpt lat="45.05186" lon="5.59807">
        <ele>1693.4</ele>
        <time>2017-07-16T12:09:15Z</time>
      </trkpt>
      <trkpt lat="45.05183" lon="5.59808">
        <ele>1692.4</ele>
        <time>2017-07-16T12:09:22Z</time>
      </trkpt>
      <trkpt lat="45.05179" lon="5.59808">
        <ele>1691.4</ele>
        <time>2017-07-16T12:09:28Z</time>
      </trkpt>
      <trkpt lat="45.05176" lon="5.5981">
        <ele>1690.2</ele>
        <time>2017-07-16T12:09:35Z</time>
      </trkpt>
      <trkpt lat="45.05173" lon="5.59812">
        <ele>1689.2</ele>
        <time>2017-07-16T12:09:42Z</time>
      </trkpt>
      <trkpt lat="45.05169" lon="5.59813">
        <ele>1688</ele>
        <time>2017-07-16T12:09:49Z</time>
      </trkpt>
      <trkpt lat="45.05166" lon="5.59814">
        <ele>1687</ele>
        <time>2017-07-16T12:09:56Z</time>
      </trkpt>
      <trkpt lat="45.05164" lon="5.59815">
        <ele>1686</ele>
        <time>2017-07-16T12:10:01Z</time>
      </trkpt>
      <trkpt lat="45.05161" lon="5.59815">
        <ele>1684.8</ele>
        <time>2017-07-16T12:10:09Z</time>
      </trkpt>
      <trkpt lat="45.05157" lon="5.59816">
        <ele>1683.6</ele>
        <time>2017-07-16T12:10:15Z</time>
      </trkpt>
      <trkpt lat="45.05154" lon="5.59817">
        <ele>1682.4</ele>
        <time>2017-07-16T12:10:27Z</time>
      </trkpt>
      <trkpt lat="45.05151" lon="5.59819">
        <ele>1681.2</ele>
        <time>2017-07-16T12:10:32Z</time>
      </trkpt>
      <trkpt lat="45.05147" lon="5.59823">
        <ele>1680.4</ele>
        <time>2017-07-16T12:10:36Z</time>
      </trkpt>
      <trkpt lat="45.05146" lon="5.59824">
        <ele>1680.2</ele>
        <time>2017-07-16T12:10:37Z</time>
      </trkpt>
      <trkpt lat="45.05142" lon="5.5983">
        <ele>1679</ele>
        <time>2017-07-16T12:10:42Z</time>
      </trkpt>
      <trkpt lat="45.05135" lon="5.59832">
        <ele>1678</ele>
        <time>2017-07-16T12:10:51Z</time>
      </trkpt>
      <trkpt lat="45.05132" lon="5.5983">
        <ele>1677</ele>
        <time>2017-07-16T12:10:59Z</time>
      </trkpt>
      <trkpt lat="45.05128" lon="5.59831">
        <ele>1675.8</ele>
        <time>2017-07-16T12:11:06Z</time>
      </trkpt>
      <trkpt lat="45.05127" lon="5.59835">
        <ele>1674.8</ele>
        <time>2017-07-16T12:11:13Z</time>
      </trkpt>
      <trkpt lat="45.05124" lon="5.59836">
        <ele>1673.8</ele>
        <time>2017-07-16T12:11:19Z</time>
      </trkpt>
      <trkpt lat="45.05122" lon="5.59838">
        <ele>1672.6</ele>
        <time>2017-07-16T12:11:26Z</time>
      </trkpt>
      <trkpt lat="45.05119" lon="5.59839">
        <ele>1671.6</ele>
        <time>2017-07-16T12:11:31Z</time>
      </trkpt>
      <trkpt lat="45.05117" lon="5.59842">
        <ele>1670.4</ele>
        <time>2017-07-16T12:11:36Z</time>
      </trkpt>
      <trkpt lat="45.05115" lon="5.59847">
        <ele>1669.4</ele>
        <time>2017-07-16T12:11:41Z</time>
      </trkpt>
      <trkpt lat="45.05112" lon="5.59848">
        <ele>1668.2</ele>
        <time>2017-07-16T12:11:56Z</time>
      </trkpt>
      <trkpt lat="45.05106" lon="5.59848">
        <ele>1667</ele>
        <time>2017-07-16T12:12:02Z</time>
      </trkpt>
      <trkpt lat="45.05101" lon="5.59848">
        <ele>1665.8</ele>
        <time>2017-07-16T12:12:08Z</time>
      </trkpt>
      <trkpt lat="45.05093" lon="5.59849">
        <ele>1664.6</ele>
        <time>2017-07-16T12:12:16Z</time>
      </trkpt>
      <trkpt lat="45.05088" lon="5.59851">
        <ele>1663.6</ele>
        <time>2017-07-16T12:12:21Z</time>
      </trkpt>
      <trkpt lat="45.05086" lon="5.59853">
        <ele>1663.2</ele>
        <time>2017-07-16T12:12:23Z</time>
      </trkpt>
      <trkpt lat="45.05081" lon="5.59856">
        <ele>1662.4</ele>
        <time>2017-07-16T12:12:27Z</time>
      </trkpt>
      <trkpt lat="45.0507" lon="5.5986">
        <ele>1661.6</ele>
        <time>2017-07-16T12:12:37Z</time>
      </trkpt>
      <trkpt lat="45.05068" lon="5.5986">
        <ele>1661.4</ele>
        <time>2017-07-16T12:12:39Z</time>
      </trkpt>
      <trkpt lat="45.05067" lon="5.59861">
        <ele>1661.4</ele>
        <time>2017-07-16T12:12:40Z</time>
      </trkpt>
      <trkpt lat="45.05052" lon="5.59867">
        <ele>1660.2</ele>
        <time>2017-07-16T12:12:53Z</time>
      </trkpt>
      <trkpt lat="45.05043" lon="5.59869">
        <ele>1659.2</ele>
        <time>2017-07-16T12:13:00Z</time>
      </trkpt>
      <trkpt lat="45.05038" lon="5.59871">
        <ele>1658.2</ele>
        <time>2017-07-16T12:13:05Z</time>
      </trkpt>
      <trkpt lat="45.05034" lon="5.59875">
        <ele>1657.2</ele>
        <time>2017-07-16T12:13:10Z</time>
      </trkpt>
      <trkpt lat="45.05033" lon="5.59875">
        <ele>1657</ele>
        <time>2017-07-16T12:13:11Z</time>
      </trkpt>
      <trkpt lat="45.05031" lon="5.59878">
        <ele>1655.8</ele>
        <time>2017-07-16T12:13:16Z</time>
      </trkpt>
      <trkpt lat="45.0503" lon="5.59879">
        <ele>1655.4</ele>
        <time>2017-07-16T12:13:17Z</time>
      </trkpt>
      <trkpt lat="45.05028" lon="5.5988">
        <ele>1654.6</ele>
        <time>2017-07-16T12:13:20Z</time>
      </trkpt>
      <trkpt lat="45.05025" lon="5.59883">
        <ele>1653.4</ele>
        <time>2017-07-16T12:13:25Z</time>
      </trkpt>
      <trkpt lat="45.05022" lon="5.59887">
        <ele>1652.2</ele>
        <time>2017-07-16T12:13:30Z</time>
      </trkpt>
      <trkpt lat="45.05019" lon="5.5989">
        <ele>1651.6</ele>
        <time>2017-07-16T12:13:34Z</time>
      </trkpt>
      <trkpt lat="45.05018" lon="5.59892">
        <ele>1651</ele>
        <time>2017-07-16T12:13:36Z</time>
      </trkpt>
      <trkpt lat="45.05014" lon="5.59895">
        <ele>1650</ele>
        <time>2017-07-16T12:13:41Z</time>
      </trkpt>
      <trkpt lat="45.05004" lon="5.59901">
        <ele>1648.8</ele>
        <time>2017-07-16T12:13:50Z</time>
      </trkpt>
      <trkpt lat="45.04993" lon="5.59907">
        <ele>1647.8</ele>
        <time>2017-07-16T12:14:00Z</time>
      </trkpt>
      <trkpt lat="45.04986" lon="5.59911">
        <ele>1646.6</ele>
        <time>2017-07-16T12:14:07Z</time>
      </trkpt>
      <trkpt lat="45.0498" lon="5.59915">
        <ele>1645.6</ele>
        <time>2017-07-16T12:14:13Z</time>
      </trkpt>
      <trkpt lat="45.04973" lon="5.59919">
        <ele>1644.4</ele>
        <time>2017-07-16T12:14:21Z</time>
      </trkpt>
      <trkpt lat="45.04969" lon="5.59922">
        <ele>1643.2</ele>
        <time>2017-07-16T12:14:26Z</time>
      </trkpt>
      <trkpt lat="45.04964" lon="5.59928">
        <ele>1642</ele>
        <time>2017-07-16T12:14:32Z</time>
      </trkpt>
      <trkpt lat="45.04958" lon="5.59932">
        <ele>1641</ele>
        <time>2017-07-16T12:14:38Z</time>
      </trkpt>
      <trkpt lat="45.0495" lon="5.59935">
        <ele>1639.8</ele>
        <time>2017-07-16T12:14:45Z</time>
      </trkpt>
      <trkpt lat="45.04935" lon="5.59937">
        <ele>1638.8</ele>
        <time>2017-07-16T12:14:58Z</time>
      </trkpt>
      <trkpt lat="45.04925" lon="5.59941">
        <ele>1637.8</ele>
        <time>2017-07-16T12:15:08Z</time>
      </trkpt>
      <trkpt lat="45.0492" lon="5.59945">
        <ele>1636.8</ele>
        <time>2017-07-16T12:15:14Z</time>
      </trkpt>
      <trkpt lat="45.04913" lon="5.59949">
        <ele>1635.6</ele>
        <time>2017-07-16T12:15:21Z</time>
      </trkpt>
      <trkpt lat="45.04893" lon="5.59958">
        <ele>1634.6</ele>
        <time>2017-07-16T12:15:41Z</time>
      </trkpt>
      <trkpt lat="45.04889" lon="5.5996">
        <ele>1633.4</ele>
        <time>2017-07-16T12:15:46Z</time>
      </trkpt>
      <trkpt lat="45.04884" lon="5.59962">
        <ele>1632.4</ele>
        <time>2017-07-16T12:15:51Z</time>
      </trkpt>
      <trkpt lat="45.04881" lon="5.59964">
        <ele>1631.4</ele>
        <time>2017-07-16T12:15:55Z</time>
      </trkpt>
      <trkpt lat="45.04879" lon="5.59968">
        <ele>1630.2</ele>
        <time>2017-07-16T12:16:00Z</time>
      </trkpt>
      <trkpt lat="45.04878" lon="5.59972">
        <ele>1629</ele>
        <time>2017-07-16T12:16:05Z</time>
      </trkpt>
      <trkpt lat="45.04876" lon="5.59976">
        <ele>1628</ele>
        <time>2017-07-16T12:16:10Z</time>
      </trkpt>
      <trkpt lat="45.04875" lon="5.59981">
        <ele>1627</ele>
        <time>2017-07-16T12:16:14Z</time>
      </trkpt>
      <trkpt lat="45.04872" lon="5.59985">
        <ele>1626</ele>
        <time>2017-07-16T12:16:20Z</time>
      </trkpt>
      <trkpt lat="45.04869" lon="5.5999">
        <ele>1624.8</ele>
        <time>2017-07-16T12:16:26Z</time>
      </trkpt>
      <trkpt lat="45.04866" lon="5.59994">
        <ele>1623.8</ele>
        <time>2017-07-16T12:16:32Z</time>
      </trkpt>
      <trkpt lat="45.04862" lon="5.59997">
        <ele>1622.6</ele>
        <time>2017-07-16T12:16:39Z</time>
      </trkpt>
      <trkpt lat="45.04858" lon="5.6">
        <ele>1621.4</ele>
        <time>2017-07-16T12:16:45Z</time>
      </trkpt>
      <trkpt lat="45.04854" lon="5.60003">
        <ele>1620.4</ele>
        <time>2017-07-16T12:16:52Z</time>
      </trkpt>
      <trkpt lat="45.0485" lon="5.60007">
        <ele>1619.2</ele>
        <time>2017-07-16T12:16:58Z</time>
      </trkpt>
      <trkpt lat="45.04846" lon="5.6001">
        <ele>1618.2</ele>
        <time>2017-07-16T12:17:03Z</time>
      </trkpt>
      <trkpt lat="45.04844" lon="5.60011">
        <ele>1617.8</ele>
        <time>2017-07-16T12:17:06Z</time>
      </trkpt>
      <trkpt lat="45.04841" lon="5.60014">
        <ele>1617</ele>
        <time>2017-07-16T12:17:11Z</time>
      </trkpt>
      <trkpt lat="45.04834" lon="5.6002">
        <ele>1616</ele>
        <time>2017-07-16T12:17:19Z</time>
      </trkpt>
      <trkpt lat="45.04827" lon="5.60023">
        <ele>1615</ele>
        <time>2017-07-16T12:17:26Z</time>
      </trkpt>
      <trkpt lat="45.04802" lon="5.60032">
        <ele>1614.6</ele>
        <time>2017-07-16T12:17:49Z</time>
      </trkpt>
      <trkpt lat="45.048" lon="5.60031">
        <ele>1614.4</ele>
        <time>2017-07-16T12:17:51Z</time>
      </trkpt>
      <trkpt lat="45.04796" lon="5.60033">
        <ele>1613.8</ele>
        <time>2017-07-16T12:17:55Z</time>
      </trkpt>
      <trkpt lat="45.04776" lon="5.60034">
        <ele>1612.8</ele>
        <time>2017-07-16T12:18:14Z</time>
      </trkpt>
      <trkpt lat="45.04762" lon="5.60031">
        <ele>1612</ele>
        <time>2017-07-16T12:18:28Z</time>
      </trkpt>
      <trkpt lat="45.04759" lon="5.6003">
        <ele>1612</ele>
        <time>2017-07-16T12:18:31Z</time>
      </trkpt>
      <trkpt lat="45.04757" lon="5.6003">
        <ele>1611.8</ele>
        <time>2017-07-16T12:18:33Z</time>
      </trkpt>
      <trkpt lat="45.04746" lon="5.60026">
        <ele>1610.6</ele>
        <time>2017-07-16T12:18:43Z</time>
      </trkpt>
      <trkpt lat="45.04738" lon="5.60027">
        <ele>1609.6</ele>
        <time>2017-07-16T12:18:50Z</time>
      </trkpt>
      <trkpt lat="45.04728" lon="5.60026">
        <ele>1608.6</ele>
        <time>2017-07-16T12:18:58Z</time>
      </trkpt>
      <trkpt lat="45.04695" lon="5.60013">
        <ele>1609</ele>
        <time>2017-07-16T12:19:26Z</time>
      </trkpt>
      <trkpt lat="45.04683" lon="5.60019">
        <ele>1607.6</ele>
        <time>2017-07-16T12:19:36Z</time>
      </trkpt>
      <trkpt lat="45.04682" lon="5.60019">
        <ele>1607.4</ele>
        <time>2017-07-16T12:19:37Z</time>
      </trkpt>
      <trkpt lat="45.04678" lon="5.60023">
        <ele>1606.6</ele>
        <time>2017-07-16T12:19:41Z</time>
      </trkpt>
      <trkpt lat="45.04676" lon="5.60024">
        <ele>1606.2</ele>
        <time>2017-07-16T12:19:43Z</time>
      </trkpt>
      <trkpt lat="45.04667" lon="5.60025">
        <ele>1605.2</ele>
        <time>2017-07-16T12:19:51Z</time>
      </trkpt>
      <trkpt lat="45.04661" lon="5.60021">
        <ele>1605</ele>
        <time>2017-07-16T12:20:11Z</time>
      </trkpt>
      <trkpt lat="45.04645" lon="5.60009">
        <ele>1606.2</ele>
        <time>2017-07-16T12:20:27Z</time>
      </trkpt>
      <trkpt lat="45.0464" lon="5.60007">
        <ele>1605.2</ele>
        <time>2017-07-16T12:20:33Z</time>
      </trkpt>
      <trkpt lat="45.04634" lon="5.60006">
        <ele>1604</ele>
        <time>2017-07-16T12:20:38Z</time>
      </trkpt>
      <trkpt lat="45.04627" lon="5.60005">
        <ele>1602.8</ele>
        <time>2017-07-16T12:20:43Z</time>
      </trkpt>
      <trkpt lat="45.04611" lon="5.60007">
        <ele>1602</ele>
        <time>2017-07-16T12:20:54Z</time>
      </trkpt>
      <trkpt lat="45.04595" lon="5.60005">
        <ele>1603.2</ele>
        <time>2017-07-16T12:21:07Z</time>
      </trkpt>
      <trkpt lat="45.04587" lon="5.60005">
        <ele>1603.2</ele>
        <time>2017-07-16T12:21:14Z</time>
      </trkpt>
      <trkpt lat="45.04556" lon="5.60013">
        <ele>1601.8</ele>
        <time>2017-07-16T12:21:39Z</time>
      </trkpt>
      <trkpt lat="45.0453" lon="5.60023">
        <ele>1600.6</ele>
        <time>2017-07-16T12:22:02Z</time>
      </trkpt>
      <trkpt lat="45.04529" lon="5.60026">
        <ele>1600.2</ele>
        <time>2017-07-16T12:22:04Z</time>
      </trkpt>
      <trkpt lat="45.04526" lon="5.60031">
        <ele>1599.6</ele>
        <time>2017-07-16T12:22:08Z</time>
      </trkpt>
      <trkpt lat="45.04523" lon="5.60038">
        <ele>1598.8</ele>
        <time>2017-07-16T12:22:13Z</time>
      </trkpt>
      <trkpt lat="45.04522" lon="5.60039">
        <ele>1598.6</ele>
        <time>2017-07-16T12:22:14Z</time>
      </trkpt>
      <trkpt lat="45.04515" lon="5.60045">
        <ele>1597.6</ele>
        <time>2017-07-16T12:22:21Z</time>
      </trkpt>
      <trkpt lat="45.04514" lon="5.60046">
        <ele>1597.4</ele>
        <time>2017-07-16T12:22:22Z</time>
      </trkpt>
      <trkpt lat="45.04514" lon="5.60046">
        <ele>1597.4</ele>
        <time>2017-07-16T12:22:23Z</time>
      </trkpt>
      <trkpt lat="45.04508" lon="5.60051">
        <ele>1596.4</ele>
        <time>2017-07-16T12:22:41Z</time>
      </trkpt>
      <trkpt lat="45.04502" lon="5.60053">
        <ele>1595.2</ele>
        <time>2017-07-16T12:22:48Z</time>
      </trkpt>
      <trkpt lat="45.04499" lon="5.60056">
        <ele>1594.2</ele>
        <time>2017-07-16T12:23:59Z</time>
      </trkpt>
      <trkpt lat="45.04485" lon="5.60058">
        <ele>1593.6</ele>
        <time>2017-07-16T12:24:10Z</time>
      </trkpt>
      <trkpt lat="45.04482" lon="5.60059">
        <ele>1593.2</ele>
        <time>2017-07-16T12:24:12Z</time>
      </trkpt>
      <trkpt lat="45.0447" lon="5.60059">
        <ele>1593</ele>
        <time>2017-07-16T12:24:22Z</time>
      </trkpt>
      <trkpt lat="45.04442" lon="5.60059">
        <ele>1592.6</ele>
        <time>2017-07-16T12:24:45Z</time>
      </trkpt>
      <trkpt lat="45.0444" lon="5.6006">
        <ele>1592.4</ele>
        <time>2017-07-16T12:24:47Z</time>
      </trkpt>
      <trkpt lat="45.04431" lon="5.60058">
        <ele>1592.2</ele>
        <time>2017-07-16T12:24:56Z</time>
      </trkpt>
      <trkpt lat="45.04431" lon="5.60058">
        <ele>1592.2</ele>
        <time>2017-07-16T12:24:57Z</time>
      </trkpt>
      <trkpt lat="45.0442" lon="5.60056">
        <ele>1592</ele>
        <time>2017-07-16T12:25:07Z</time>
      </trkpt>
      <trkpt lat="45.04416" lon="5.60058">
        <ele>1591.6</ele>
        <time>2017-07-16T12:25:10Z</time>
      </trkpt>
      <trkpt lat="45.04397" lon="5.60059">
        <ele>1591.2</ele>
        <time>2017-07-16T12:25:27Z</time>
      </trkpt>
      <trkpt lat="45.04393" lon="5.6006">
        <ele>1591</ele>
        <time>2017-07-16T12:25:30Z</time>
      </trkpt>
      <trkpt lat="45.04388" lon="5.60059">
        <ele>1590.8</ele>
        <time>2017-07-16T12:25:34Z</time>
      </trkpt>
      <trkpt lat="45.04374" lon="5.60056">
        <ele>1590.2</ele>
        <time>2017-07-16T12:25:47Z</time>
      </trkpt>
      <trkpt lat="45.0437" lon="5.60055">
        <ele>1590</ele>
        <time>2017-07-16T12:25:51Z</time>
      </trkpt>
      <trkpt lat="45.04368" lon="5.60054">
        <ele>1590</ele>
        <time>2017-07-16T12:25:53Z</time>
      </trkpt>
      <trkpt lat="45.04365" lon="5.60055">
        <ele>1589.8</ele>
        <time>2017-07-16T12:25:55Z</time>
      </trkpt>
      <trkpt lat="45.04362" lon="5.60054">
        <ele>1589.8</ele>
        <time>2017-07-16T12:25:58Z</time>
      </trkpt>
      <trkpt lat="45.0436" lon="5.60054">
        <ele>1589.8</ele>
        <time>2017-07-16T12:26:00Z</time>
      </trkpt>
      <trkpt lat="45.0435" lon="5.60057">
        <ele>1589.2</ele>
        <time>2017-07-16T12:26:12Z</time>
      </trkpt>
      <trkpt lat="45.04349" lon="5.60057">
        <ele>1589</ele>
        <time>2017-07-16T12:26:13Z</time>
      </trkpt>
      <trkpt lat="45.04335" lon="5.60051">
        <ele>1588.2</ele>
        <time>2017-07-16T12:26:30Z</time>
      </trkpt>
      <trkpt lat="45.04332" lon="5.6005">
        <ele>1587.8</ele>
        <time>2017-07-16T12:26:33Z</time>
      </trkpt>
      <trkpt lat="45.04329" lon="5.6005">
        <ele>1587.4</ele>
        <time>2017-07-16T12:26:36Z</time>
      </trkpt>
      <trkpt lat="45.04323" lon="5.6005">
        <ele>1587</ele>
        <time>2017-07-16T12:26:42Z</time>
      </trkpt>
      <trkpt lat="45.04321" lon="5.60049">
        <ele>1586.8</ele>
        <time>2017-07-16T12:26:44Z</time>
      </trkpt>
      <trkpt lat="45.04304" lon="5.60051">
        <ele>1585.8</ele>
        <time>2017-07-16T12:26:59Z</time>
      </trkpt>
      <trkpt lat="45.04261" lon="5.60056">
        <ele>1586.8</ele>
        <time>2017-07-16T12:27:40Z</time>
      </trkpt>
      <trkpt lat="45.04252" lon="5.60053">
        <ele>1587</ele>
        <time>2017-07-16T12:27:49Z</time>
      </trkpt>
      <trkpt lat="45.04247" lon="5.60052">
        <ele>1586.8</ele>
        <time>2017-07-16T12:27:54Z</time>
      </trkpt>
      <trkpt lat="45.04234" lon="5.6005">
        <ele>1586.4</ele>
        <time>2017-07-16T12:28:07Z</time>
      </trkpt>
      <trkpt lat="45.0423" lon="5.60049">
        <ele>1585.8</ele>
        <time>2017-07-16T12:28:13Z</time>
      </trkpt>
      <trkpt lat="45.0423" lon="5.60049">
        <ele>1585.6</ele>
        <time>2017-07-16T12:28:14Z</time>
      </trkpt>
      <trkpt lat="45.04225" lon="5.60049">
        <ele>1585.4</ele>
        <time>2017-07-16T12:28:19Z</time>
      </trkpt>
      <trkpt lat="45.04224" lon="5.6005">
        <ele>1585.2</ele>
        <time>2017-07-16T12:28:21Z</time>
      </trkpt>
      <trkpt lat="45.04219" lon="5.60051">
        <ele>1584.6</ele>
        <time>2017-07-16T12:28:26Z</time>
      </trkpt>
      <trkpt lat="45.04213" lon="5.60052">
        <ele>1583.6</ele>
        <time>2017-07-16T12:28:32Z</time>
      </trkpt>
      <trkpt lat="45.04212" lon="5.60053">
        <ele>1583.2</ele>
        <time>2017-07-16T12:28:33Z</time>
      </trkpt>
      <trkpt lat="45.04207" lon="5.60053">
        <ele>1582.4</ele>
        <time>2017-07-16T12:28:38Z</time>
      </trkpt>
      <trkpt lat="45.04206" lon="5.60052">
        <ele>1582.2</ele>
        <time>2017-07-16T12:28:39Z</time>
      </trkpt>
      <trkpt lat="45.04197" lon="5.60052">
        <ele>1581.6</ele>
        <time>2017-07-16T12:28:47Z</time>
      </trkpt>
      <trkpt lat="45.04195" lon="5.60052">
        <ele>1581.6</ele>
        <time>2017-07-16T12:28:50Z</time>
      </trkpt>
      <trkpt lat="45.04193" lon="5.60052">
        <ele>1581.2</ele>
        <time>2017-07-16T12:28:52Z</time>
      </trkpt>
      <trkpt lat="45.04176" lon="5.60049">
        <ele>1580.2</ele>
        <time>2017-07-16T12:29:08Z</time>
      </trkpt>
      <trkpt lat="45.04173" lon="5.60049">
        <ele>1580</ele>
        <time>2017-07-16T12:29:11Z</time>
      </trkpt>
      <trkpt lat="45.04169" lon="5.60049">
        <ele>1579</ele>
        <time>2017-07-16T12:29:16Z</time>
      </trkpt>
      <trkpt lat="45.04164" lon="5.60051">
        <ele>1578</ele>
        <time>2017-07-16T12:29:22Z</time>
      </trkpt>
      <trkpt lat="45.04158" lon="5.60051">
        <ele>1577</ele>
        <time>2017-07-16T12:29:28Z</time>
      </trkpt>
      <trkpt lat="45.04148" lon="5.60051">
        <ele>1575.8</ele>
        <time>2017-07-16T12:29:36Z</time>
      </trkpt>
      <trkpt lat="45.04139" lon="5.6005">
        <ele>1574.8</ele>
        <time>2017-07-16T12:29:44Z</time>
      </trkpt>
      <trkpt lat="45.04123" lon="5.60041">
        <ele>1573.6</ele>
        <time>2017-07-16T12:30:02Z</time>
      </trkpt>
      <trkpt lat="45.04117" lon="5.60039">
        <ele>1572.4</ele>
        <time>2017-07-16T12:30:09Z</time>
      </trkpt>
      <trkpt lat="45.0411" lon="5.60038">
        <ele>1571.4</ele>
        <time>2017-07-16T12:30:15Z</time>
      </trkpt>
      <trkpt lat="45.04102" lon="5.60033">
        <ele>1570.4</ele>
        <time>2017-07-16T12:30:23Z</time>
      </trkpt>
      <trkpt lat="45.04101" lon="5.60034">
        <ele>1570.2</ele>
        <time>2017-07-16T12:30:24Z</time>
      </trkpt>
      <trkpt lat="45.04093" lon="5.6003">
        <ele>1569.2</ele>
        <time>2017-07-16T12:30:32Z</time>
      </trkpt>
      <trkpt lat="45.04092" lon="5.6003">
        <ele>1569</ele>
        <time>2017-07-16T12:30:33Z</time>
      </trkpt>
      <trkpt lat="45.04087" lon="5.60029">
        <ele>1568</ele>
        <time>2017-07-16T12:30:39Z</time>
      </trkpt>
      <trkpt lat="45.04076" lon="5.60024">
        <ele>1567</ele>
        <time>2017-07-16T12:30:49Z</time>
      </trkpt>
      <trkpt lat="45.04068" lon="5.60023">
        <ele>1565.8</ele>
        <time>2017-07-16T12:30:56Z</time>
      </trkpt>
      <trkpt lat="45.04058" lon="5.60024">
        <ele>1564.8</ele>
        <time>2017-07-16T12:31:06Z</time>
      </trkpt>
      <trkpt lat="45.0405" lon="5.6003">
        <ele>1563.6</ele>
        <time>2017-07-16T12:31:14Z</time>
      </trkpt>
      <trkpt lat="45.04037" lon="5.60034">
        <ele>1562.6</ele>
        <time>2017-07-16T12:31:26Z</time>
      </trkpt>
      <trkpt lat="45.04036" lon="5.60032">
        <ele>1562.2</ele>
        <time>2017-07-16T12:31:28Z</time>
      </trkpt>
      <trkpt lat="45.04034" lon="5.60028">
        <ele>1561.2</ele>
        <time>2017-07-16T12:31:32Z</time>
      </trkpt>
      <trkpt lat="45.04033" lon="5.60025">
        <ele>1560.8</ele>
        <time>2017-07-16T12:31:34Z</time>
      </trkpt>
      <trkpt lat="45.04014" lon="5.60015">
        <ele>1560.6</ele>
        <time>2017-07-16T12:31:51Z</time>
      </trkpt>
      <trkpt lat="45.04007" lon="5.60019">
        <ele>1560.6</ele>
        <time>2017-07-16T12:31:58Z</time>
      </trkpt>
      <trkpt lat="45.04002" lon="5.6002">
        <ele>1560.8</ele>
        <time>2017-07-16T12:32:03Z</time>
      </trkpt>
      <trkpt lat="45.03998" lon="5.60017">
        <ele>1560.2</ele>
        <time>2017-07-16T12:32:09Z</time>
      </trkpt>
      <trkpt lat="45.03996" lon="5.60016">
        <ele>1559.6</ele>
        <time>2017-07-16T12:32:11Z</time>
      </trkpt>
      <trkpt lat="45.03994" lon="5.60014">
        <ele>1559</ele>
        <time>2017-07-16T12:32:14Z</time>
      </trkpt>
      <trkpt lat="45.03985" lon="5.60009">
        <ele>1558</ele>
        <time>2017-07-16T12:32:23Z</time>
      </trkpt>
      <trkpt lat="45.03974" lon="5.60009">
        <ele>1556.8</ele>
        <time>2017-07-16T12:32:34Z</time>
      </trkpt>
      <trkpt lat="45.03973" lon="5.60009">
        <ele>1556.6</ele>
        <time>2017-07-16T12:32:35Z</time>
      </trkpt>
      <trkpt lat="45.0397" lon="5.60008">
        <ele>1556</ele>
        <time>2017-07-16T12:32:39Z</time>
      </trkpt>
      <trkpt lat="45.03969" lon="5.60007">
        <ele>1555.6</ele>
        <time>2017-07-16T12:32:41Z</time>
      </trkpt>
      <trkpt lat="45.03964" lon="5.60003">
        <ele>1555</ele>
        <time>2017-07-16T12:32:47Z</time>
      </trkpt>
      <trkpt lat="45.03963" lon="5.60002">
        <ele>1554.8</ele>
        <time>2017-07-16T12:32:49Z</time>
      </trkpt>
      <trkpt lat="45.03962" lon="5.60002">
        <ele>1554.6</ele>
        <time>2017-07-16T12:32:50Z</time>
      </trkpt>
      <trkpt lat="45.03957" lon="5.60002">
        <ele>1553.4</ele>
        <time>2017-07-16T12:32:58Z</time>
      </trkpt>
      <trkpt lat="45.03949" lon="5.6">
        <ele>1552.2</ele>
        <time>2017-07-16T12:33:07Z</time>
      </trkpt>
      <trkpt lat="45.03947" lon="5.6">
        <ele>1552</ele>
        <time>2017-07-16T12:33:09Z</time>
      </trkpt>
      <trkpt lat="45.03944" lon="5.59998">
        <ele>1551.8</ele>
        <time>2017-07-16T12:33:13Z</time>
      </trkpt>
      <trkpt lat="45.03941" lon="5.59998">
        <ele>1551.2</ele>
        <time>2017-07-16T12:33:17Z</time>
      </trkpt>
      <trkpt lat="45.03934" lon="5.59999">
        <ele>1550</ele>
        <time>2017-07-16T12:33:25Z</time>
      </trkpt>
      <trkpt lat="45.03926" lon="5.59994">
        <ele>1549</ele>
        <time>2017-07-16T12:33:36Z</time>
      </trkpt>
      <trkpt lat="45.03922" lon="5.59991">
        <ele>1548</ele>
        <time>2017-07-16T12:33:40Z</time>
      </trkpt>
      <trkpt lat="45.03916" lon="5.59987">
        <ele>1548.2</ele>
        <time>2017-07-16T12:33:47Z</time>
      </trkpt>
      <trkpt lat="45.03904" lon="5.59977">
        <ele>1547.2</ele>
        <time>2017-07-16T12:34:02Z</time>
      </trkpt>
      <trkpt lat="45.03901" lon="5.59976">
        <ele>1547.2</ele>
        <time>2017-07-16T12:34:06Z</time>
      </trkpt>
      <trkpt lat="45.039" lon="5.59977">
        <ele>1547</ele>
        <time>2017-07-16T12:34:07Z</time>
      </trkpt>
      <trkpt lat="45.0386" lon="5.59974">
        <ele>1546.8</ele>
        <time>2017-07-16T12:34:44Z</time>
      </trkpt>
      <trkpt lat="45.03841" lon="5.59986">
        <ele>1546</ele>
        <time>2017-07-16T12:35:04Z</time>
      </trkpt>
      <trkpt lat="45.03826" lon="5.5999">
        <ele>1545</ele>
        <time>2017-07-16T12:35:16Z</time>
      </trkpt>
      <trkpt lat="45.03822" lon="5.5999">
        <ele>1544.4</ele>
        <time>2017-07-16T12:35:19Z</time>
      </trkpt>
      <trkpt lat="45.03802" lon="5.59973">
        <ele>1544.2</ele>
        <time>2017-07-16T12:35:39Z</time>
      </trkpt>
      <trkpt lat="45.03799" lon="5.59971">
        <ele>1543.8</ele>
        <time>2017-07-16T12:35:41Z</time>
      </trkpt>
      <trkpt lat="45.03791" lon="5.59962">
        <ele>1542.6</ele>
        <time>2017-07-16T12:35:51Z</time>
      </trkpt>
      <trkpt lat="45.03788" lon="5.59957">
        <ele>1542.8</ele>
        <time>2017-07-16T12:35:55Z</time>
      </trkpt>
      <trkpt lat="45.03784" lon="5.59953">
        <ele>1541.6</ele>
        <time>2017-07-16T12:36:02Z</time>
      </trkpt>
      <trkpt lat="45.0378" lon="5.59951">
        <ele>1540.6</ele>
        <time>2017-07-16T12:36:07Z</time>
      </trkpt>
      <trkpt lat="45.03778" lon="5.5995">
        <ele>1540.2</ele>
        <time>2017-07-16T12:36:09Z</time>
      </trkpt>
      <trkpt lat="45.03776" lon="5.5995">
        <ele>1539.8</ele>
        <time>2017-07-16T12:36:11Z</time>
      </trkpt>
      <trkpt lat="45.03775" lon="5.59949">
        <ele>1539.6</ele>
        <time>2017-07-16T12:36:13Z</time>
      </trkpt>
      <trkpt lat="45.03769" lon="5.59947">
        <ele>1538.2</ele>
        <time>2017-07-16T12:36:23Z</time>
      </trkpt>
      <trkpt lat="45.03765" lon="5.59947">
        <ele>1537.2</ele>
        <time>2017-07-16T12:36:28Z</time>
      </trkpt>
      <trkpt lat="45.0376" lon="5.59946">
        <ele>1536.2</ele>
        <time>2017-07-16T12:36:34Z</time>
      </trkpt>
      <trkpt lat="45.03759" lon="5.59946">
        <ele>1535.8</ele>
        <time>2017-07-16T12:36:36Z</time>
      </trkpt>
      <trkpt lat="45.03754" lon="5.59947">
        <ele>1535</ele>
        <time>2017-07-16T12:36:42Z</time>
      </trkpt>
      <trkpt lat="45.03752" lon="5.59947">
        <ele>1534.6</ele>
        <time>2017-07-16T12:36:44Z</time>
      </trkpt>
      <trkpt lat="45.03743" lon="5.59943">
        <ele>1533.6</ele>
        <time>2017-07-16T12:36:54Z</time>
      </trkpt>
      <trkpt lat="45.03742" lon="5.59942">
        <ele>1533.4</ele>
        <time>2017-07-16T12:36:56Z</time>
      </trkpt>
      <trkpt lat="45.03737" lon="5.59944">
        <ele>1532.6</ele>
        <time>2017-07-16T12:37:01Z</time>
      </trkpt>
      <trkpt lat="45.03732" lon="5.59944">
        <ele>1531.6</ele>
        <time>2017-07-16T12:37:07Z</time>
      </trkpt>
      <trkpt lat="45.03716" lon="5.59942">
        <ele>1530.6</ele>
        <time>2017-07-16T12:37:22Z</time>
      </trkpt>
      <trkpt lat="45.03715" lon="5.59942">
        <ele>1530.4</ele>
        <time>2017-07-16T12:37:23Z</time>
      </trkpt>
      <trkpt lat="45.03714" lon="5.59942">
        <ele>1530.4</ele>
        <time>2017-07-16T12:37:25Z</time>
      </trkpt>
      <trkpt lat="45.03708" lon="5.59941">
        <ele>1529.2</ele>
        <time>2017-07-16T12:37:34Z</time>
      </trkpt>
      <trkpt lat="45.03705" lon="5.59942">
        <ele>1528</ele>
        <time>2017-07-16T12:37:40Z</time>
      </trkpt>
      <trkpt lat="45.03702" lon="5.59942">
        <ele>1526.8</ele>
        <time>2017-07-16T12:37:45Z</time>
      </trkpt>
      <trkpt lat="45.03697" lon="5.59944">
        <ele>1525.8</ele>
        <time>2017-07-16T12:37:50Z</time>
      </trkpt>
      <trkpt lat="45.03687" lon="5.59946">
        <ele>1524.8</ele>
        <time>2017-07-16T12:38:00Z</time>
      </trkpt>
      <trkpt lat="45.03684" lon="5.59946">
        <ele>1523.8</ele>
        <time>2017-07-16T12:38:06Z</time>
      </trkpt>
      <trkpt lat="45.03681" lon="5.5995">
        <ele>1522.8</ele>
        <time>2017-07-16T12:38:13Z</time>
      </trkpt>
      <trkpt lat="45.03676" lon="5.59951">
        <ele>1521.8</ele>
        <time>2017-07-16T12:38:19Z</time>
      </trkpt>
      <trkpt lat="45.03666" lon="5.59952">
        <ele>1520.6</ele>
        <time>2017-07-16T12:38:29Z</time>
      </trkpt>
      <trkpt lat="45.03659" lon="5.59952">
        <ele>1519.6</ele>
        <time>2017-07-16T12:38:38Z</time>
      </trkpt>
      <trkpt lat="45.03654" lon="5.59954">
        <ele>1518.6</ele>
        <time>2017-07-16T12:38:42Z</time>
      </trkpt>
      <trkpt lat="45.03638" lon="5.59956">
        <ele>1517.2</ele>
        <time>2017-07-16T12:38:56Z</time>
      </trkpt>
      <trkpt lat="45.03632" lon="5.5996">
        <ele>1516.2</ele>
        <time>2017-07-16T12:39:01Z</time>
      </trkpt>
      <trkpt lat="45.03625" lon="5.59962">
        <ele>1515.2</ele>
        <time>2017-07-16T12:39:07Z</time>
      </trkpt>
      <trkpt lat="45.03618" lon="5.5996">
        <ele>1514</ele>
        <time>2017-07-16T12:39:14Z</time>
      </trkpt>
      <trkpt lat="45.03611" lon="5.59958">
        <ele>1512.8</ele>
        <time>2017-07-16T12:39:22Z</time>
      </trkpt>
      <trkpt lat="45.03603" lon="5.59954">
        <ele>1511.8</ele>
        <time>2017-07-16T12:39:29Z</time>
      </trkpt>
      <trkpt lat="45.03598" lon="5.59953">
        <ele>1510.8</ele>
        <time>2017-07-16T12:39:35Z</time>
      </trkpt>
      <trkpt lat="45.03591" lon="5.59953">
        <ele>1509.6</ele>
        <time>2017-07-16T12:39:42Z</time>
      </trkpt>
      <trkpt lat="45.03585" lon="5.59951">
        <ele>1508.2</ele>
        <time>2017-07-16T12:39:49Z</time>
      </trkpt>
      <trkpt lat="45.0358" lon="5.59949">
        <ele>1507</ele>
        <time>2017-07-16T12:39:54Z</time>
      </trkpt>
      <trkpt lat="45.03578" lon="5.59949">
        <ele>1506.6</ele>
        <time>2017-07-16T12:39:56Z</time>
      </trkpt>
      <trkpt lat="45.03575" lon="5.59949">
        <ele>1506</ele>
        <time>2017-07-16T12:39:59Z</time>
      </trkpt>
      <trkpt lat="45.03573" lon="5.59948">
        <ele>1505.4</ele>
        <time>2017-07-16T12:40:01Z</time>
      </trkpt>
      <trkpt lat="45.03571" lon="5.59949">
        <ele>1504.8</ele>
        <time>2017-07-16T12:40:03Z</time>
      </trkpt>
      <trkpt lat="45.03566" lon="5.59949">
        <ele>1503.8</ele>
        <time>2017-07-16T12:40:07Z</time>
      </trkpt>
      <trkpt lat="45.03563" lon="5.59951">
        <ele>1502.6</ele>
        <time>2017-07-16T12:40:11Z</time>
      </trkpt>
      <trkpt lat="45.03557" lon="5.59952">
        <ele>1501.4</ele>
        <time>2017-07-16T12:40:17Z</time>
      </trkpt>
      <trkpt lat="45.03549" lon="5.59954">
        <ele>1500.8</ele>
        <time>2017-07-16T12:40:24Z</time>
      </trkpt>
      <trkpt lat="45.03547" lon="5.59954">
        <ele>1500.4</ele>
        <time>2017-07-16T12:40:27Z</time>
      </trkpt>
      <trkpt lat="45.03543" lon="5.59954">
        <ele>1499.2</ele>
        <time>2017-07-16T12:40:33Z</time>
      </trkpt>
      <trkpt lat="45.0354" lon="5.59956">
        <ele>1498.2</ele>
        <time>2017-07-16T12:40:38Z</time>
      </trkpt>
      <trkpt lat="45.03538" lon="5.59959">
        <ele>1497.2</ele>
        <time>2017-07-16T12:40:42Z</time>
      </trkpt>
      <trkpt lat="45.03536" lon="5.59963">
        <ele>1496</ele>
        <time>2017-07-16T12:40:47Z</time>
      </trkpt>
      <trkpt lat="45.03531" lon="5.59966">
        <ele>1494.8</ele>
        <time>2017-07-16T12:40:53Z</time>
      </trkpt>
      <trkpt lat="45.03526" lon="5.59969">
        <ele>1493.8</ele>
        <time>2017-07-16T12:40:57Z</time>
      </trkpt>
      <trkpt lat="45.03521" lon="5.59969">
        <ele>1492.6</ele>
        <time>2017-07-16T12:41:04Z</time>
      </trkpt>
      <trkpt lat="45.03516" lon="5.59973">
        <ele>1491.4</ele>
        <time>2017-07-16T12:41:10Z</time>
      </trkpt>
      <trkpt lat="45.03512" lon="5.59973">
        <ele>1490.4</ele>
        <time>2017-07-16T12:41:15Z</time>
      </trkpt>
      <trkpt lat="45.03509" lon="5.59975">
        <ele>1489.2</ele>
        <time>2017-07-16T12:41:21Z</time>
      </trkpt>
      <trkpt lat="45.03506" lon="5.59976">
        <ele>1487.8</ele>
        <time>2017-07-16T12:41:26Z</time>
      </trkpt>
      <trkpt lat="45.03504" lon="5.59977">
        <ele>1487.2</ele>
        <time>2017-07-16T12:41:28Z</time>
      </trkpt>
      <trkpt lat="45.03502" lon="5.59977">
        <ele>1486.8</ele>
        <time>2017-07-16T12:41:30Z</time>
      </trkpt>
      <trkpt lat="45.03497" lon="5.59977">
        <ele>1485.6</ele>
        <time>2017-07-16T12:41:38Z</time>
      </trkpt>
      <trkpt lat="45.03492" lon="5.5998">
        <ele>1484.4</ele>
        <time>2017-07-16T12:41:44Z</time>
      </trkpt>
      <trkpt lat="45.03489" lon="5.5998">
        <ele>1483.8</ele>
        <time>2017-07-16T12:41:47Z</time>
      </trkpt>
      <trkpt lat="45.03486" lon="5.5998">
        <ele>1483.4</ele>
        <time>2017-07-16T12:41:50Z</time>
      </trkpt>
      <trkpt lat="45.03485" lon="5.5998">
        <ele>1483.2</ele>
        <time>2017-07-16T12:41:51Z</time>
      </trkpt>
      <trkpt lat="45.0348" lon="5.59982">
        <ele>1482.2</ele>
        <time>2017-07-16T12:41:56Z</time>
      </trkpt>
      <trkpt lat="45.03475" lon="5.59985">
        <ele>1481.2</ele>
        <time>2017-07-16T12:42:01Z</time>
      </trkpt>
      <trkpt lat="45.03465" lon="5.59986">
        <ele>1480.2</ele>
        <time>2017-07-16T12:42:11Z</time>
      </trkpt>
      <trkpt lat="45.03459" lon="5.59987">
        <ele>1479</ele>
        <time>2017-07-16T12:42:16Z</time>
      </trkpt>
      <trkpt lat="45.03454" lon="5.59987">
        <ele>1477.8</ele>
        <time>2017-07-16T12:42:21Z</time>
      </trkpt>
      <trkpt lat="45.03448" lon="5.59987">
        <ele>1476.8</ele>
        <time>2017-07-16T12:42:26Z</time>
      </trkpt>
      <trkpt lat="45.03443" lon="5.59987">
        <ele>1475.6</ele>
        <time>2017-07-16T12:42:32Z</time>
      </trkpt>
      <trkpt lat="45.03438" lon="5.59988">
        <ele>1474.4</ele>
        <time>2017-07-16T12:42:37Z</time>
      </trkpt>
      <trkpt lat="45.03433" lon="5.5999">
        <ele>1473</ele>
        <time>2017-07-16T12:42:41Z</time>
      </trkpt>
      <trkpt lat="45.03426" lon="5.59992">
        <ele>1471.8</ele>
        <time>2017-07-16T12:42:46Z</time>
      </trkpt>
      <trkpt lat="45.03422" lon="5.59992">
        <ele>1470.8</ele>
        <time>2017-07-16T12:42:51Z</time>
      </trkpt>
      <trkpt lat="45.03417" lon="5.59993">
        <ele>1469.6</ele>
        <time>2017-07-16T12:42:56Z</time>
      </trkpt>
      <trkpt lat="45.03411" lon="5.59994">
        <ele>1468.4</ele>
        <time>2017-07-16T12:43:01Z</time>
      </trkpt>
      <trkpt lat="45.03407" lon="5.59994">
        <ele>1467.2</ele>
        <time>2017-07-16T12:43:05Z</time>
      </trkpt>
      <trkpt lat="45.03402" lon="5.59994">
        <ele>1465.8</ele>
        <time>2017-07-16T12:43:10Z</time>
      </trkpt>
      <trkpt lat="45.03399" lon="5.59994">
        <ele>1464.6</ele>
        <time>2017-07-16T12:43:14Z</time>
      </trkpt>
      <trkpt lat="45.03394" lon="5.59994">
        <ele>1463.4</ele>
        <time>2017-07-16T12:43:18Z</time>
      </trkpt>
      <trkpt lat="45.0339" lon="5.59994">
        <ele>1462.2</ele>
        <time>2017-07-16T12:43:22Z</time>
      </trkpt>
      <trkpt lat="45.03386" lon="5.59995">
        <ele>1461.2</ele>
        <time>2017-07-16T12:43:26Z</time>
      </trkpt>
      <trkpt lat="45.03383" lon="5.59996">
        <ele>1460</ele>
        <time>2017-07-16T12:43:32Z</time>
      </trkpt>
      <trkpt lat="45.03379" lon="5.59998">
        <ele>1459</ele>
        <time>2017-07-16T12:43:37Z</time>
      </trkpt>
      <trkpt lat="45.03378" lon="5.59998">
        <ele>1458.6</ele>
        <time>2017-07-16T12:43:38Z</time>
      </trkpt>
      <trkpt lat="45.03376" lon="5.59999">
        <ele>1458</ele>
        <time>2017-07-16T12:43:41Z</time>
      </trkpt>
      <trkpt lat="45.03376" lon="5.59999">
        <ele>1457.6</ele>
        <time>2017-07-16T12:43:42Z</time>
      </trkpt>
      <trkpt lat="45.03373" lon="5.59998">
        <ele>1456.4</ele>
        <time>2017-07-16T12:43:46Z</time>
      </trkpt>
      <trkpt lat="45.0337" lon="5.59998">
        <ele>1455.2</ele>
        <time>2017-07-16T12:43:51Z</time>
      </trkpt>
      <trkpt lat="45.03367" lon="5.59995">
        <ele>1454.2</ele>
        <time>2017-07-16T12:43:57Z</time>
      </trkpt>
      <trkpt lat="45.03363" lon="5.59994">
        <ele>1453</ele>
        <time>2017-07-16T12:44:02Z</time>
      </trkpt>
      <trkpt lat="45.0336" lon="5.59995">
        <ele>1452</ele>
        <time>2017-07-16T12:44:05Z</time>
      </trkpt>
      <trkpt lat="45.03357" lon="5.59995">
        <ele>1451</ele>
        <time>2017-07-16T12:44:08Z</time>
      </trkpt>
      <trkpt lat="45.03352" lon="5.59997">
        <ele>1450.4</ele>
        <time>2017-07-16T12:44:15Z</time>
      </trkpt>
      <trkpt lat="45.03351" lon="5.59997">
        <ele>1449.8</ele>
        <time>2017-07-16T12:44:17Z</time>
      </trkpt>
      <trkpt lat="45.0335" lon="5.59998">
        <ele>1448.4</ele>
        <time>2017-07-16T12:44:19Z</time>
      </trkpt>
      <trkpt lat="45.03349" lon="5.59999">
        <ele>1447.2</ele>
        <time>2017-07-16T12:44:22Z</time>
      </trkpt>
      <trkpt lat="45.03345" lon="5.60002">
        <ele>1446.2</ele>
        <time>2017-07-16T12:44:26Z</time>
      </trkpt>
      <trkpt lat="45.03343" lon="5.60003">
        <ele>1445.6</ele>
        <time>2017-07-16T12:44:28Z</time>
      </trkpt>
      <trkpt lat="45.03337" lon="5.60009">
        <ele>1445</ele>
        <time>2017-07-16T12:44:35Z</time>
      </trkpt>
      <trkpt lat="45.03335" lon="5.60011">
        <ele>1443.8</ele>
        <time>2017-07-16T12:44:36Z</time>
      </trkpt>
      <trkpt lat="45.03331" lon="5.60015">
        <ele>1442.6</ele>
        <time>2017-07-16T12:44:39Z</time>
      </trkpt>
      <trkpt lat="45.03327" lon="5.60017">
        <ele>1441.6</ele>
        <time>2017-07-16T12:44:43Z</time>
      </trkpt>
      <trkpt lat="45.03322" lon="5.60019">
        <ele>1440.4</ele>
        <time>2017-07-16T12:44:48Z</time>
      </trkpt>
      <trkpt lat="45.03319" lon="5.60018">
        <ele>1439.2</ele>
        <time>2017-07-16T12:44:52Z</time>
      </trkpt>
      <trkpt lat="45.03315" lon="5.60019">
        <ele>1438</ele>
        <time>2017-07-16T12:44:56Z</time>
      </trkpt>
      <trkpt lat="45.03311" lon="5.60018">
        <ele>1436.8</ele>
        <time>2017-07-16T12:45:00Z</time>
      </trkpt>
      <trkpt lat="45.03305" lon="5.6002">
        <ele>1435.6</ele>
        <time>2017-07-16T12:45:05Z</time>
      </trkpt>
      <trkpt lat="45.033" lon="5.60024">
        <ele>1435</ele>
        <time>2017-07-16T12:45:11Z</time>
      </trkpt>
      <trkpt lat="45.03298" lon="5.60026">
        <ele>1434.6</ele>
        <time>2017-07-16T12:45:15Z</time>
      </trkpt>
      <trkpt lat="45.03295" lon="5.60028">
        <ele>1434.2</ele>
        <time>2017-07-16T12:45:18Z</time>
      </trkpt>
      <trkpt lat="45.03282" lon="5.6003">
        <ele>1433.6</ele>
        <time>2017-07-16T12:45:29Z</time>
      </trkpt>
      <trkpt lat="45.03271" lon="5.60028">
        <ele>1432.4</ele>
        <time>2017-07-16T12:45:38Z</time>
      </trkpt>
      <trkpt lat="45.03265" lon="5.60027">
        <ele>1431.4</ele>
        <time>2017-07-16T12:45:44Z</time>
      </trkpt>
      <trkpt lat="45.03258" lon="5.60023">
        <ele>1430.4</ele>
        <time>2017-07-16T12:45:51Z</time>
      </trkpt>
      <trkpt lat="45.03247" lon="5.6002">
        <ele>1429.4</ele>
        <time>2017-07-16T12:45:59Z</time>
      </trkpt>
      <trkpt lat="45.03238" lon="5.60014">
        <ele>1428.2</ele>
        <time>2017-07-16T12:46:08Z</time>
      </trkpt>
      <trkpt lat="45.03229" lon="5.6001">
        <ele>1427.2</ele>
        <time>2017-07-16T12:46:16Z</time>
      </trkpt>
      <trkpt lat="45.03221" lon="5.60008">
        <ele>1426</ele>
        <time>2017-07-16T12:46:22Z</time>
      </trkpt>
      <trkpt lat="45.03215" lon="5.60006">
        <ele>1425</ele>
        <time>2017-07-16T12:46:27Z</time>
      </trkpt>
      <trkpt lat="45.03204" lon="5.60006">
        <ele>1423.6</ele>
        <time>2017-07-16T12:46:35Z</time>
      </trkpt>
      <trkpt lat="45.03196" lon="5.60002">
        <ele>1422.6</ele>
        <time>2017-07-16T12:46:41Z</time>
      </trkpt>
      <trkpt lat="45.03184" lon="5.59996">
        <ele>1421.4</ele>
        <time>2017-07-16T12:46:49Z</time>
      </trkpt>
      <trkpt lat="45.03175" lon="5.59993">
        <ele>1420.4</ele>
        <time>2017-07-16T12:46:56Z</time>
      </trkpt>
      <trkpt lat="45.03164" lon="5.5999">
        <ele>1419.2</ele>
        <time>2017-07-16T12:47:04Z</time>
      </trkpt>
      <trkpt lat="45.03158" lon="5.59985">
        <ele>1418.2</ele>
        <time>2017-07-16T12:47:10Z</time>
      </trkpt>
      <trkpt lat="45.0315" lon="5.59981">
        <ele>1417</ele>
        <time>2017-07-16T12:47:17Z</time>
      </trkpt>
      <trkpt lat="45.0314" lon="5.59975">
        <ele>1416</ele>
        <time>2017-07-16T12:47:25Z</time>
      </trkpt>
      <trkpt lat="45.03132" lon="5.59974">
        <ele>1415</ele>
        <time>2017-07-16T12:47:30Z</time>
      </trkpt>
      <trkpt lat="45.03124" lon="5.59974">
        <ele>1413.8</ele>
        <time>2017-07-16T12:47:37Z</time>
      </trkpt>
      <trkpt lat="45.03112" lon="5.59973">
        <ele>1412.8</ele>
        <time>2017-07-16T12:47:46Z</time>
      </trkpt>
      <trkpt lat="45.03102" lon="5.59973">
        <ele>1411.8</ele>
        <time>2017-07-16T12:47:52Z</time>
      </trkpt>
      <trkpt lat="45.03093" lon="5.59975">
        <ele>1410.6</ele>
        <time>2017-07-16T12:47:58Z</time>
      </trkpt>
      <trkpt lat="45.03081" lon="5.59975">
        <ele>1409.6</ele>
        <time>2017-07-16T12:48:06Z</time>
      </trkpt>
      <trkpt lat="45.0307" lon="5.59971">
        <ele>1408.4</ele>
        <time>2017-07-16T12:48:14Z</time>
      </trkpt>
      <trkpt lat="45.03061" lon="5.59968">
        <ele>1407.4</ele>
        <time>2017-07-16T12:48:21Z</time>
      </trkpt>
      <trkpt lat="45.03046" lon="5.5996">
        <ele>1406.2</ele>
        <time>2017-07-16T12:48:33Z</time>
      </trkpt>
      <trkpt lat="45.03036" lon="5.59955">
        <ele>1405</ele>
        <time>2017-07-16T12:48:41Z</time>
      </trkpt>
      <trkpt lat="45.03026" lon="5.59953">
        <ele>1404</ele>
        <time>2017-07-16T12:48:49Z</time>
      </trkpt>
      <trkpt lat="45.03019" lon="5.59953">
        <ele>1403</ele>
        <time>2017-07-16T12:48:55Z</time>
      </trkpt>
      <trkpt lat="45.0301" lon="5.59952">
        <ele>1401.8</ele>
        <time>2017-07-16T12:49:02Z</time>
      </trkpt>
      <trkpt lat="45.02998" lon="5.59952">
        <ele>1400.6</ele>
        <time>2017-07-16T12:49:10Z</time>
      </trkpt>
      <trkpt lat="45.02988" lon="5.5995">
        <ele>1399.6</ele>
        <time>2017-07-16T12:49:18Z</time>
      </trkpt>
      <trkpt lat="45.02978" lon="5.59949">
        <ele>1398.4</ele>
        <time>2017-07-16T12:49:26Z</time>
      </trkpt>
      <trkpt lat="45.02968" lon="5.59946">
        <ele>1397.4</ele>
        <time>2017-07-16T12:49:34Z</time>
      </trkpt>
      <trkpt lat="45.02958" lon="5.59945">
        <ele>1396.2</ele>
        <time>2017-07-16T12:49:41Z</time>
      </trkpt>
      <trkpt lat="45.02949" lon="5.59943">
        <ele>1395.2</ele>
        <time>2017-07-16T12:49:48Z</time>
      </trkpt>
      <trkpt lat="45.02942" lon="5.59939">
        <ele>1394</ele>
        <time>2017-07-16T12:49:54Z</time>
      </trkpt>
      <trkpt lat="45.02933" lon="5.59936">
        <ele>1393</ele>
        <time>2017-07-16T12:50:02Z</time>
      </trkpt>
      <trkpt lat="45.02925" lon="5.59934">
        <ele>1391.8</ele>
        <time>2017-07-16T12:50:08Z</time>
      </trkpt>
      <trkpt lat="45.02916" lon="5.59932">
        <ele>1390.8</ele>
        <time>2017-07-16T12:50:15Z</time>
      </trkpt>
      <trkpt lat="45.0291" lon="5.59931">
        <ele>1390.2</ele>
        <time>2017-07-16T12:50:20Z</time>
      </trkpt>
      <trkpt lat="45.02909" lon="5.59931">
        <ele>1389.8</ele>
        <time>2017-07-16T12:50:21Z</time>
      </trkpt>
      <trkpt lat="45.02902" lon="5.59929">
        <ele>1388.6</ele>
        <time>2017-07-16T12:50:27Z</time>
      </trkpt>
      <trkpt lat="45.02888" lon="5.59923">
        <ele>1387.4</ele>
        <time>2017-07-16T12:50:38Z</time>
      </trkpt>
      <trkpt lat="45.02881" lon="5.59919">
        <ele>1386.4</ele>
        <time>2017-07-16T12:50:44Z</time>
      </trkpt>
      <trkpt lat="45.02876" lon="5.59918">
        <ele>1385.4</ele>
        <time>2017-07-16T12:50:48Z</time>
      </trkpt>
      <trkpt lat="45.02868" lon="5.59915">
        <ele>1384.2</ele>
        <time>2017-07-16T12:50:54Z</time>
      </trkpt>
      <trkpt lat="45.0286" lon="5.59909">
        <ele>1383.2</ele>
        <time>2017-07-16T12:51:01Z</time>
      </trkpt>
      <trkpt lat="45.02852" lon="5.59907">
        <ele>1382.2</ele>
        <time>2017-07-16T12:51:07Z</time>
      </trkpt>
      <trkpt lat="45.02847" lon="5.59904">
        <ele>1381</ele>
        <time>2017-07-16T12:51:12Z</time>
      </trkpt>
      <trkpt lat="45.02836" lon="5.59902">
        <ele>1380</ele>
        <time>2017-07-16T12:51:20Z</time>
      </trkpt>
      <trkpt lat="45.02826" lon="5.599">
        <ele>1378.8</ele>
        <time>2017-07-16T12:51:27Z</time>
      </trkpt>
      <trkpt lat="45.02817" lon="5.599">
        <ele>1377.8</ele>
        <time>2017-07-16T12:51:33Z</time>
      </trkpt>
      <trkpt lat="45.02806" lon="5.59899">
        <ele>1376.4</ele>
        <time>2017-07-16T12:51:41Z</time>
      </trkpt>
      <trkpt lat="45.02799" lon="5.59896">
        <ele>1375.4</ele>
        <time>2017-07-16T12:51:47Z</time>
      </trkpt>
      <trkpt lat="45.02792" lon="5.59894">
        <ele>1374.2</ele>
        <time>2017-07-16T12:51:53Z</time>
      </trkpt>
      <trkpt lat="45.02785" lon="5.59891">
        <ele>1373.2</ele>
        <time>2017-07-16T12:52:00Z</time>
      </trkpt>
      <trkpt lat="45.02778" lon="5.5989">
        <ele>1372.2</ele>
        <time>2017-07-16T12:52:07Z</time>
      </trkpt>
      <trkpt lat="45.02775" lon="5.59889">
        <ele>1371.4</ele>
        <time>2017-07-16T12:52:10Z</time>
      </trkpt>
      <trkpt lat="45.02773" lon="5.59888">
        <ele>1371</ele>
        <time>2017-07-16T12:52:12Z</time>
      </trkpt>
      <trkpt lat="45.02769" lon="5.59887">
        <ele>1370.4</ele>
        <time>2017-07-16T12:52:16Z</time>
      </trkpt>
      <trkpt lat="45.02767" lon="5.59886">
        <ele>1370</ele>
        <time>2017-07-16T12:52:18Z</time>
      </trkpt>
      <trkpt lat="45.02765" lon="5.59885">
        <ele>1369.6</ele>
        <time>2017-07-16T12:52:20Z</time>
      </trkpt>
      <trkpt lat="45.0276" lon="5.59884">
        <ele>1369.2</ele>
        <time>2017-07-16T12:52:24Z</time>
      </trkpt>
      <trkpt lat="45.02759" lon="5.59882">
        <ele>1368.8</ele>
        <time>2017-07-16T12:52:25Z</time>
      </trkpt>
      <trkpt lat="45.02754" lon="5.59879">
        <ele>1368</ele>
        <time>2017-07-16T12:52:29Z</time>
      </trkpt>
      <trkpt lat="45.02753" lon="5.59879">
        <ele>1367.8</ele>
        <time>2017-07-16T12:52:30Z</time>
      </trkpt>
      <trkpt lat="45.0275" lon="5.59878">
        <ele>1367.4</ele>
        <time>2017-07-16T12:52:32Z</time>
      </trkpt>
      <trkpt lat="45.02747" lon="5.59877">
        <ele>1366.8</ele>
        <time>2017-07-16T12:52:35Z</time>
      </trkpt>
      <trkpt lat="45.02745" lon="5.59876">
        <ele>1366.8</ele>
        <time>2017-07-16T12:52:36Z</time>
      </trkpt>
      <trkpt lat="45.02737" lon="5.59874">
        <ele>1365.6</ele>
        <time>2017-07-16T12:52:41Z</time>
      </trkpt>
      <trkpt lat="45.02727" lon="5.59876">
        <ele>1364.4</ele>
        <time>2017-07-16T12:52:47Z</time>
      </trkpt>
      <trkpt lat="45.0272" lon="5.59875">
        <ele>1363.6</ele>
        <time>2017-07-16T12:52:52Z</time>
      </trkpt>
      <trkpt lat="45.02719" lon="5.59876">
        <ele>1363.4</ele>
        <time>2017-07-16T12:52:53Z</time>
      </trkpt>
      <trkpt lat="45.02718" lon="5.59875">
        <ele>1363.2</ele>
        <time>2017-07-16T12:52:54Z</time>
      </trkpt>
      <trkpt lat="45.02711" lon="5.59875">
        <ele>1362.2</ele>
        <time>2017-07-16T12:52:59Z</time>
      </trkpt>
      <trkpt lat="45.02702" lon="5.59875">
        <ele>1361.2</ele>
        <time>2017-07-16T12:53:05Z</time>
      </trkpt>
      <trkpt lat="45.02692" lon="5.59875">
        <ele>1360</ele>
        <time>2017-07-16T12:53:12Z</time>
      </trkpt>
      <trkpt lat="45.02689" lon="5.59874">
        <ele>1359.6</ele>
        <time>2017-07-16T12:53:14Z</time>
      </trkpt>
      <trkpt lat="45.02683" lon="5.59872">
        <ele>1358.8</ele>
        <time>2017-07-16T12:53:18Z</time>
      </trkpt>
      <trkpt lat="45.02675" lon="5.59868">
        <ele>1357.6</ele>
        <time>2017-07-16T12:53:25Z</time>
      </trkpt>
      <trkpt lat="45.02665" lon="5.59867">
        <ele>1356.4</ele>
        <time>2017-07-16T12:53:33Z</time>
      </trkpt>
      <trkpt lat="45.02654" lon="5.59868">
        <ele>1355.2</ele>
        <time>2017-07-16T12:53:40Z</time>
      </trkpt>
      <trkpt lat="45.02644" lon="5.59868">
        <ele>1354.6</ele>
        <time>2017-07-16T12:53:47Z</time>
      </trkpt>
      <trkpt lat="45.02641" lon="5.59867">
        <ele>1354.2</ele>
        <time>2017-07-16T12:53:49Z</time>
      </trkpt>
      <trkpt lat="45.02633" lon="5.59864">
        <ele>1353</ele>
        <time>2017-07-16T12:53:55Z</time>
      </trkpt>
      <trkpt lat="45.02626" lon="5.59863">
        <ele>1352</ele>
        <time>2017-07-16T12:54:02Z</time>
      </trkpt>
      <trkpt lat="45.02619" lon="5.59864">
        <ele>1351</ele>
        <time>2017-07-16T12:54:08Z</time>
      </trkpt>
      <trkpt lat="45.02607" lon="5.59864">
        <ele>1349.8</ele>
        <time>2017-07-16T12:54:15Z</time>
      </trkpt>
      <trkpt lat="45.02597" lon="5.59863">
        <ele>1348.8</ele>
        <time>2017-07-16T12:54:21Z</time>
      </trkpt>
      <trkpt lat="45.02589" lon="5.59861">
        <ele>1347.6</ele>
        <time>2017-07-16T12:54:28Z</time>
      </trkpt>
      <trkpt lat="45.02582" lon="5.59859">
        <ele>1346.4</ele>
        <time>2017-07-16T12:54:33Z</time>
      </trkpt>
      <trkpt lat="45.02574" lon="5.59853">
        <ele>1345.4</ele>
        <time>2017-07-16T12:54:40Z</time>
      </trkpt>
      <trkpt lat="45.02566" lon="5.59849">
        <ele>1344.4</ele>
        <time>2017-07-16T12:54:46Z</time>
      </trkpt>
      <trkpt lat="45.02555" lon="5.5985">
        <ele>1343.2</ele>
        <time>2017-07-16T12:54:53Z</time>
      </trkpt>
      <trkpt lat="45.02547" lon="5.59848">
        <ele>1342</ele>
        <time>2017-07-16T12:54:59Z</time>
      </trkpt>
      <trkpt lat="45.02538" lon="5.59846">
        <ele>1341</ele>
        <time>2017-07-16T12:55:06Z</time>
      </trkpt>
      <trkpt lat="45.02532" lon="5.59844">
        <ele>1340</ele>
        <time>2017-07-16T12:55:11Z</time>
      </trkpt>
      <trkpt lat="45.02523" lon="5.5984">
        <ele>1338.8</ele>
        <time>2017-07-16T12:55:18Z</time>
      </trkpt>
      <trkpt lat="45.02512" lon="5.59837">
        <ele>1337.8</ele>
        <time>2017-07-16T12:55:26Z</time>
      </trkpt>
      <trkpt lat="45.02501" lon="5.59836">
        <ele>1336.8</ele>
        <time>2017-07-16T12:55:33Z</time>
      </trkpt>
      <trkpt lat="45.02493" lon="5.59834">
        <ele>1335.6</ele>
        <time>2017-07-16T12:55:40Z</time>
      </trkpt>
      <trkpt lat="45.02483" lon="5.59834">
        <ele>1334.4</ele>
        <time>2017-07-16T12:55:48Z</time>
      </trkpt>
      <trkpt lat="45.02473" lon="5.59835">
        <ele>1333.4</ele>
        <time>2017-07-16T12:55:55Z</time>
      </trkpt>
      <trkpt lat="45.02465" lon="5.59835">
        <ele>1332.2</ele>
        <time>2017-07-16T12:56:02Z</time>
      </trkpt>
      <trkpt lat="45.02463" lon="5.59835">
        <ele>1332</ele>
        <time>2017-07-16T12:56:04Z</time>
      </trkpt>
      <trkpt lat="45.02458" lon="5.59836">
        <ele>1331</ele>
        <time>2017-07-16T12:56:09Z</time>
      </trkpt>
      <trkpt lat="45.02451" lon="5.59835">
        <ele>1330</ele>
        <time>2017-07-16T12:56:16Z</time>
      </trkpt>
      <trkpt lat="45.02448" lon="5.59834">
        <ele>1329.8</ele>
        <time>2017-07-16T12:56:18Z</time>
      </trkpt>
      <trkpt lat="45.02441" lon="5.59833">
        <ele>1329</ele>
        <time>2017-07-16T12:56:23Z</time>
      </trkpt>
      <trkpt lat="45.02432" lon="5.59833">
        <ele>1327.8</ele>
        <time>2017-07-16T12:56:30Z</time>
      </trkpt>
      <trkpt lat="45.02423" lon="5.59836">
        <ele>1326.8</ele>
        <time>2017-07-16T12:56:36Z</time>
      </trkpt>
      <trkpt lat="45.02422" lon="5.59836">
        <ele>1326.4</ele>
        <time>2017-07-16T12:56:37Z</time>
      </trkpt>
      <trkpt lat="45.02412" lon="5.59835">
        <ele>1325.6</ele>
        <time>2017-07-16T12:56:43Z</time>
      </trkpt>
      <trkpt lat="45.02402" lon="5.59833">
        <ele>1324.6</ele>
        <time>2017-07-16T12:56:49Z</time>
      </trkpt>
      <trkpt lat="45.02398" lon="5.59832">
        <ele>1323.8</ele>
        <time>2017-07-16T12:56:52Z</time>
      </trkpt>
      <trkpt lat="45.02396" lon="5.59831">
        <ele>1323.4</ele>
        <time>2017-07-16T12:56:54Z</time>
      </trkpt>
      <trkpt lat="45.02389" lon="5.59828">
        <ele>1322.2</ele>
        <time>2017-07-16T12:56:59Z</time>
      </trkpt>
      <trkpt lat="45.02383" lon="5.59826">
        <ele>1321</ele>
        <time>2017-07-16T12:57:04Z</time>
      </trkpt>
      <trkpt lat="45.02376" lon="5.59825">
        <ele>1320</ele>
        <time>2017-07-16T12:57:10Z</time>
      </trkpt>
      <trkpt lat="45.02367" lon="5.59825">
        <ele>1319</ele>
        <time>2017-07-16T12:57:16Z</time>
      </trkpt>
      <trkpt lat="45.02359" lon="5.59825">
        <ele>1317.8</ele>
        <time>2017-07-16T12:57:22Z</time>
      </trkpt>
      <trkpt lat="45.02348" lon="5.59822">
        <ele>1316.8</ele>
        <time>2017-07-16T12:57:30Z</time>
      </trkpt>
      <trkpt lat="45.02337" lon="5.59819">
        <ele>1315.8</ele>
        <time>2017-07-16T12:57:37Z</time>
      </trkpt>
      <trkpt lat="45.02336" lon="5.59819">
        <ele>1315.6</ele>
        <time>2017-07-16T12:57:38Z</time>
      </trkpt>
      <trkpt lat="45.02326" lon="5.59816">
        <ele>1314.6</ele>
        <time>2017-07-16T12:57:46Z</time>
      </trkpt>
      <trkpt lat="45.02317" lon="5.59813">
        <ele>1313.6</ele>
        <time>2017-07-16T12:57:55Z</time>
      </trkpt>
      <trkpt lat="45.02306" lon="5.59808">
        <ele>1312.6</ele>
        <time>2017-07-16T12:58:04Z</time>
      </trkpt>
      <trkpt lat="45.02292" lon="5.59803">
        <ele>1311.4</ele>
        <time>2017-07-16T12:58:15Z</time>
      </trkpt>
      <trkpt lat="45.02284" lon="5.59801">
        <ele>1310.4</ele>
        <time>2017-07-16T12:58:21Z</time>
      </trkpt>
      <trkpt lat="45.02276" lon="5.59801">
        <ele>1309.4</ele>
        <time>2017-07-16T12:58:27Z</time>
      </trkpt>
      <trkpt lat="45.02262" lon="5.59799">
        <ele>1308.4</ele>
        <time>2017-07-16T12:58:37Z</time>
      </trkpt>
      <trkpt lat="45.02249" lon="5.59799">
        <ele>1307.2</ele>
        <time>2017-07-16T12:58:46Z</time>
      </trkpt>
      <trkpt lat="45.02226" lon="5.59795">
        <ele>1306</ele>
        <time>2017-07-16T12:59:01Z</time>
      </trkpt>
      <trkpt lat="45.0222" lon="5.59793">
        <ele>1305</ele>
        <time>2017-07-16T12:59:05Z</time>
      </trkpt>
      <trkpt lat="45.02212" lon="5.59791">
        <ele>1303.8</ele>
        <time>2017-07-16T12:59:11Z</time>
      </trkpt>
      <trkpt lat="45.02204" lon="5.59789">
        <ele>1302.8</ele>
        <time>2017-07-16T12:59:17Z</time>
      </trkpt>
      <trkpt lat="45.02196" lon="5.59786">
        <ele>1301.6</ele>
        <time>2017-07-16T12:59:24Z</time>
      </trkpt>
      <trkpt lat="45.02185" lon="5.59783">
        <ele>1300.4</ele>
        <time>2017-07-16T12:59:33Z</time>
      </trkpt>
      <trkpt lat="45.02174" lon="5.5978">
        <ele>1299.4</ele>
        <time>2017-07-16T12:59:41Z</time>
      </trkpt>
      <trkpt lat="45.02163" lon="5.59783">
        <ele>1298.4</ele>
        <time>2017-07-16T12:59:48Z</time>
      </trkpt>
      <trkpt lat="45.02151" lon="5.59785">
        <ele>1297.2</ele>
        <time>2017-07-16T12:59:57Z</time>
      </trkpt>
      <trkpt lat="45.02146" lon="5.59783">
        <ele>1296</ele>
        <time>2017-07-16T13:00:02Z</time>
      </trkpt>
      <trkpt lat="45.02139" lon="5.59784">
        <ele>1295</ele>
        <time>2017-07-16T13:00:08Z</time>
      </trkpt>
      <trkpt lat="45.0213" lon="5.59782">
        <ele>1294</ele>
        <time>2017-07-16T13:00:14Z</time>
      </trkpt>
      <trkpt lat="45.0212" lon="5.59776">
        <ele>1292.8</ele>
        <time>2017-07-16T13:00:23Z</time>
      </trkpt>
      <trkpt lat="45.02111" lon="5.59777">
        <ele>1291.8</ele>
        <time>2017-07-16T13:00:30Z</time>
      </trkpt>
      <trkpt lat="45.02101" lon="5.59778">
        <ele>1291.4</ele>
        <time>2017-07-16T13:00:37Z</time>
      </trkpt>
      <trkpt lat="45.02093" lon="5.59777">
        <ele>1290.6</ele>
        <time>2017-07-16T13:00:42Z</time>
      </trkpt>
      <trkpt lat="45.0208" lon="5.59777">
        <ele>1289.6</ele>
        <time>2017-07-16T13:00:52Z</time>
      </trkpt>
      <trkpt lat="45.02074" lon="5.59776">
        <ele>1288.4</ele>
        <time>2017-07-16T13:00:57Z</time>
      </trkpt>
      <trkpt lat="45.02064" lon="5.59776">
        <ele>1287.4</ele>
        <time>2017-07-16T13:01:03Z</time>
      </trkpt>
      <trkpt lat="45.02055" lon="5.59774">
        <ele>1286.2</ele>
        <time>2017-07-16T13:01:09Z</time>
      </trkpt>
      <trkpt lat="45.02047" lon="5.59774">
        <ele>1285.2</ele>
        <time>2017-07-16T13:01:15Z</time>
      </trkpt>
      <trkpt lat="45.0204" lon="5.59775">
        <ele>1284</ele>
        <time>2017-07-16T13:01:20Z</time>
      </trkpt>
      <trkpt lat="45.02031" lon="5.59776">
        <ele>1283</ele>
        <time>2017-07-16T13:01:27Z</time>
      </trkpt>
      <trkpt lat="45.02027" lon="5.59779">
        <ele>1282.6</ele>
        <time>2017-07-16T13:01:31Z</time>
      </trkpt>
    </trkseg>
  </trk>
</gpx>